GFSNGP_sfc_thetae_000.txt.gz
Theta_e
287 289 288 286 286 287 285 285 282 285 286 290 292 293 295 296 294 294 293 294 293 292 291 291 287 287 286 286 285 284 281 279 277 276 275 275 274 273 272 272 272 272 271 270
283 286 286 284 286 287 287 287 287 287 286 293 294 295 294 294 295 294 295 296 295 291 289 288 287 287 285 285 284 283 280 277 276 275 274 273 272 271 271 270 270 270 269 269
280 285 284 280 285 287 288 290 288 284 290 294 293 294 294 295 296 296 296 296 292 291 290 288 287 286 284 284 283 281 278 276 274 274 272 271 271 270 270 269 270 269 269 269
282 284 275 285 291 290 288 290 292 291 293 295 295 296 297 297 295 295 296 296 294 289 290 289 287 283 282 282 281 278 277 275 273 272 271 270 269 269 269 269 269 268 268 269
280 280 284 286 289 288 286 287 292 291 293 294 295 295 295 299 298 298 297 298 297 292 291 290 285 283 281 279 277 276 274 273 272 272 270 269 268 268 268 268 268 268 268 267
284 279 277 286 291 294 293 282 293 294 293 293 294 287 292 298 297 293 293 293 291 290 289 285 281 281 279 277 275 274 273 272 272 271 269 268 268 268 268 268 267 268 267 267
283 281 283 290 292 291 280 284 294 295 294 294 291 293 295 294 291 291 291 291 288 286 285 283 280 279 277 275 274 275 273 271 270 269 268 268 267 267 266 266 267 266 266 267
282 279 277 289 289 285 288 292 291 290 291 291 293 294 293 292 290 288 288 284 283 283 282 280 279 278 276 274 274 273 271 269 268 267 267 267 266 265 264 265 264 264 265 267
277 278 287 289 285 286 291 286 287 288 289 289 289 291 291 291 290 289 287 285 281 279 277 277 276 277 275 274 272 270 268 267 265 265 264 264 264 263 263 264 265 265 266 267
276 283 281 281 285 287 287 284 285 285 286 288 287 289 288 289 289 288 283 284 276 275 274 273 273 275 274 273 271 268 266 264 263 263 262 262 264 264 264 264 265 266 267 266
273 277 279 282 284 284 283 283 282 284 285 285 286 286 288 289 290 290 287 279 276 277 277 278 274 274 273 270 268 267 265 264 263 263 263 263 265 265 266 267 267 266 266 265
271 278 278 278 280 282 277 276 278 280 280 281 283 283 285 286 286 286 287 285 277 277 277 277 274 273 270 269 268 266 265 264 263 262 263 264 264 265 270 269 271 271 271 267
276 273 274 277 278 277 274 274 276 274 274 275 278 280 282 283 285 286 286 286 287 277 278 277 273 273 269 268 267 267 266 265 264 264 264 263 263 263 263 268 270 270 270 269
273 270 271 272 270 272 272 272 272 271 272 273 274 274 276 277 280 282 283 285 286 281 279 275 273 273 270 268 267 266 267 265 264 264 264 264 263 263 263 262 262 263 267 268
269 269 269 270 270 269 270 269 267 267 268 268 269 268 269 269 270 273 276 279 280 283 279 272 271 269 267 268 267 267 266 265 265 264 264 264 265 264 263 263 262 260 261 265
267 266 267 265 265 265 265 264 263 264 265 265 264 264 265 266 267 268 271 273 275 277 280 272 271 270 266 267 267 267 266 265 264 263 262 262 262 262 262 261 261 260 259 259
261 260 260 260 261 262 261 263 263 262 262 261 261 262 262 263 264 266 268 272 277 282 283 274 271 266 267 268 266 266 265 263 263 262 261 261 261 261 261 260 259 258 258 258
261 261 261 261 260 260 260 260 260 260 259 260 261 261 262 263 265 268 271 272 276 274 271 270 265 266 266 266 266 264 262 261 261 260 261 261 260 260 260 259 258 258 257 259
259 258 259 259 259 259 259 258 258 259 260 260 260 261 263 265 267 269 272 272 268 264 260 263 268 265 265 265 263 262 261 260 260 260 260 259 258 258 258 257 256 256 255 256
256 257 256 257 258 258 257 258 258 258 259 260 261 261 262 263 264 262 260 257 260 259 262 264 263 263 262 264 263 261 260 260 259 258 258 257 257 256 256 256 255 253 252 250
254 254 256 256 256 257 257 258 258 257 259 260 261 262 261 258 258 260 258 256 259 261 262 262 261 262 261 261 261 260 259 258 258 257 257 256 256 255 255 254 253 253 251 251
254 255 255 256 256 256 257 257 258 259 258 259 261 260 259 258 258 257 258 258 260 261 260 260 260 260 261 261 260 259 259 258 257 257 256 256 255 254 254 253 252 251 251 249
254 255 256 256 256 257 257 258 259 259 258 257 257 258 257 258 259 256 255 259 260 260 259 259 260 261 260 259 259 258 257 257 257 256 256 256 255 254 253 252 252 251 249 248
254 255 256 257 257 256 255 257 259 259 258 257 257 258 258 257 257 259 259 259 259 260 260 260 262 262 259 258 257 257 257 256 256 255 255 255 254 253 252 251 251 249 247 246
255 256 256 256 255 255 256 257 257 257 257 257 257 258 258 259 257 258 259 260 261 259 259 260 261 259 257 257 256 256 255 255 254 254 253 253 252 251 250 250 249 244 243 243
256 256 256 256 256 256 256 256 256 256 256 255 256 257 258 259 259 259 258 257 256 257 256 257 256 256 256 256 255 254 254 254 254 254 253 252 252 251 251 250 247 246 244 244
257 257 257 256 256 256 256 255 255 255 256 256 255 257 257 256 256 256 256 256 256 255 255 256 256 256 255 255 254 254 254 254 254 254 253 252 252 252 252 250 249 249 250 250

GFSNGP_sfc_thetae_003.txt.gz
Theta_e
287 289 288 287 286 287 285 286 282 285 286 289 291 293 294 296 296 293 290 292 293 293 292 290 289 288 287 286 284 284 283 282 281 280 279 277 276 276 274 274 273 273 272 271
285 288 287 285 288 288 288 288 287 287 287 294 296 297 295 296 296 295 295 295 294 292 291 289 288 289 286 286 283 283 282 281 280 278 276 275 275 273 273 272 272 272 271 270
282 287 286 282 286 288 288 289 288 284 289 293 293 294 295 296 297 296 296 296 294 293 291 289 288 287 285 285 283 282 281 280 277 276 275 274 274 273 272 271 271 271 270 270
282 284 276 285 290 290 288 290 291 291 292 294 295 296 297 299 297 297 298 298 292 290 290 290 289 286 286 281 282 282 281 279 276 275 274 273 272 272 271 270 270 269 269 270
280 280 283 286 286 287 286 286 291 291 293 294 295 295 295 298 296 297 297 298 298 293 292 290 289 287 283 281 281 280 279 277 275 275 273 272 271 271 270 269 269 269 269 268
282 277 274 285 289 292 292 282 284 285 285 286 288 285 288 294 293 292 292 292 290 291 289 289 287 282 281 280 279 278 278 277 275 274 273 271 271 270 269 269 268 269 268 267
281 279 280 284 286 290 280 276 284 284 284 283 283 286 290 291 290 290 290 288 287 285 285 285 281 279 279 278 278 278 276 274 273 273 272 271 270 270 268 268 269 268 267 267
277 276 274 285 284 275 278 284 283 282 282 282 284 285 287 288 288 288 289 290 288 284 283 281 279 278 277 277 276 274 274 272 271 271 271 269 268 267 267 267 266 266 266 266
273 273 278 283 280 282 286 282 281 281 282 283 283 284 285 286 287 288 289 289 290 286 281 279 276 278 278 275 273 272 271 271 270 268 268 267 266 265 265 265 265 265 266 266
272 276 277 278 281 283 282 280 280 280 279 281 282 282 281 282 284 284 285 286 288 288 287 286 278 278 279 275 274 271 269 268 267 266 265 266 266 266 266 265 266 267 267 267
271 275 276 278 280 279 279 277 276 276 277 276 275 275 277 277 279 281 283 285 286 285 284 285 284 279 279 274 273 271 270 267 266 266 265 264 266 266 266 268 269 268 268 267
269 276 274 275 276 277 273 272 272 273 272 273 273 272 274 274 275 276 277 279 282 284 282 284 285 280 279 275 273 271 268 266 266 265 265 265 265 266 271 271 273 274 273 269
275 273 272 274 276 276 272 271 271 271 271 269 270 271 270 270 270 270 270 272 273 277 280 282 282 279 278 274 272 270 269 267 266 265 265 265 265 266 265 271 274 274 274 273
273 271 273 272 271 272 271 271 270 268 269 269 268 267 266 266 266 266 266 268 269 270 271 274 277 279 279 274 271 270 270 267 265 265 265 265 266 267 267 267 267 268 273 273
270 270 269 270 269 270 269 268 265 265 266 265 266 264 263 262 262 263 264 264 265 265 267 270 273 277 279 272 270 270 269 266 266 265 266 266 266 267 267 267 266 265 267 270
266 265 266 265 264 265 264 263 262 263 263 263 262 261 261 261 261 261 262 263 263 264 266 269 271 275 270 269 269 269 269 267 266 266 265 265 265 265 264 264 263 263 264 261
260 260 259 259 260 261 261 262 262 262 261 260 259 260 259 259 259 259 261 264 266 267 269 270 272 277 271 270 269 269 267 266 266 265 265 265 265 264 263 263 262 262 261 261
260 260 260 259 259 259 259 259 259 259 259 259 259 259 258 258 258 260 262 264 264 266 269 266 267 268 268 269 269 267 266 265 264 264 264 264 263 263 263 262 261 260 260 263
257 257 258 258 258 257 257 257 258 258 258 258 258 257 258 259 259 261 263 258 257 259 260 264 268 267 267 267 266 265 264 263 263 263 263 262 262 261 261 260 260 259 259 259
255 256 255 255 256 256 256 257 257 257 257 257 257 257 257 258 260 258 259 257 257 258 261 262 263 264 265 265 265 263 262 262 262 261 261 260 260 259 259 259 258 257 256 256
253 253 253 254 255 256 256 256 257 256 257 257 257 257 258 259 257 256 256 256 258 260 261 262 262 262 262 262 262 262 261 261 260 259 259 259 258 258 257 256 255 255 254 254
252 252 254 254 254 255 257 258 258 258 258 259 258 257 257 257 257 256 258 258 259 260 260 260 261 262 261 262 260 260 260 259 259 258 258 257 257 256 255 255 255 254 254 253
252 253 253 254 255 256 257 257 257 258 258 257 256 257 258 257 257 257 255 258 259 260 260 260 261 261 261 260 259 259 258 258 257 257 257 256 256 256 255 255 254 253 252 252
253 253 254 256 257 256 255 256 257 257 257 257 257 258 258 256 256 258 259 260 261 261 260 261 261 262 259 258 258 257 257 257 257 256 256 256 255 255 254 254 253 252 252 251
253 254 256 256 255 255 255 256 257 256 256 256 257 258 258 259 257 257 257 257 259 257 258 260 261 259 257 257 256 256 256 256 256 256 255 255 254 253 253 253 252 252 251 250
255 256 257 257 256 256 256 256 255 256 256 256 256 256 256 256 257 256 256 256 256 256 256 256 256 256 256 256 255 255 255 255 255 254 254 254 253 253 252 252 252 251 250 248
256 257 257 256 257 257 256 256 255 255 256 256 255 256 256 256 256 256 256 256 256 256 255 256 256 256 255 255 255 255 255 255 255 254 254 254 254 253 253 252 251 251 250 250

GFSNGP_sfc_thetae_006.txt.gz
Theta_e
289 290 290 289 288 289 286 287 283 285 286 290 292 294 295 297 298 294 292 292 295 294 294 294 290 290 289 289 287 286 285 283 283 283 283 282 279 279 278 278 277 276 275 274
285 288 287 285 288 289 288 288 288 288 287 294 296 296 295 296 297 297 296 296 296 294 292 290 291 292 289 289 286 285 284 283 283 282 281 279 278 278 277 276 275 275 274 273
280 284 283 280 286 287 288 289 289 284 289 291 290 291 294 295 291 289 291 291 290 291 292 291 292 290 289 288 285 283 284 283 281 280 279 277 277 276 275 275 274 273 273 272
279 281 273 284 290 291 288 290 292 288 284 283 283 285 289 289 289 288 288 288 289 290 291 291 292 291 288 284 283 283 283 281 280 278 277 276 276 275 275 275 274 273 272 272
277 276 281 285 285 283 282 282 281 281 280 281 281 282 286 286 286 286 287 288 289 290 290 289 288 287 285 279 280 281 281 281 279 278 277 275 275 275 275 274 273 273 272 271
275 270 270 275 279 281 283 279 278 280 280 280 280 273 277 284 286 287 289 289 289 290 289 289 288 283 280 278 277 279 280 279 278 278 277 275 275 274 274 274 273 273 271 271
271 270 274 277 281 282 273 271 280 280 279 279 276 279 281 283 285 286 286 286 287 288 287 288 285 281 281 277 277 276 276 274 273 274 274 274 274 273 272 272 271 271 270 269
268 263 265 278 276 271 276 281 282 281 279 279 279 280 281 283 282 281 282 284 285 285 285 287 288 281 282 280 277 273 273 272 272 272 273 273 271 271 271 271 269 269 267 267
270 269 277 279 278 280 283 277 278 278 278 277 277 278 278 277 278 278 279 280 282 283 284 285 287 283 281 283 273 271 273 273 272 270 271 271 270 269 268 269 269 267 267 267
269 274 275 277 279 280 280 278 277 277 275 276 274 274 274 275 275 275 277 277 278 278 279 280 284 285 284 284 276 274 273 272 271 270 269 270 270 269 269 269 268 268 268 267
271 275 276 277 277 277 277 276 275 275 274 274 272 272 273 272 272 273 273 273 274 273 273 274 277 282 285 285 276 274 273 272 270 270 269 269 270 269 270 270 271 269 269 269
269 276 275 276 279 277 274 273 273 272 272 272 272 271 271 270 271 271 270 271 269 269 270 271 273 274 276 282 276 276 273 271 270 269 268 268 268 268 274 273 275 276 275 272
275 278 276 276 276 276 272 271 272 271 271 269 270 270 270 269 269 268 267 267 267 266 267 267 267 268 271 274 277 276 274 272 270 269 268 267 267 266 266 272 275 276 276 275
276 273 272 274 272 271 271 270 269 268 268 268 268 267 266 265 265 264 264 265 265 264 264 264 264 265 267 270 274 276 275 274 270 269 267 267 267 267 268 268 269 271 276 274
272 271 270 269 269 268 268 267 264 264 265 265 265 264 263 262 261 261 262 262 261 261 261 262 263 265 268 270 273 276 274 273 270 268 267 267 268 268 268 269 270 270 271 274
265 265 265 263 263 264 263 262 261 262 263 262 262 261 261 261 260 259 260 260 258 259 261 263 264 266 267 269 271 274 274 273 269 267 267 266 267 268 269 269 269 269 269 270
259 259 258 258 259 260 260 261 261 261 260 259 259 259 259 258 258 257 258 259 260 260 262 263 263 265 266 269 271 273 272 270 267 267 266 266 267 267 268 268 267 268 267 267
259 259 259 258 258 258 258 259 259 258 257 258 258 258 257 256 256 256 257 259 260 261 260 260 261 262 266 267 271 271 268 266 266 266 266 266 266 267 266 266 266 263 264 268
256 256 257 258 258 257 256 256 256 257 257 257 256 256 257 257 257 258 259 259 257 257 258 260 264 265 265 268 267 267 266 265 265 265 266 266 265 265 264 264 263 263 265 266
256 256 256 255 255 254 254 255 256 255 256 257 257 257 256 257 258 258 258 256 257 258 260 260 261 262 263 264 266 265 264 264 263 264 264 264 264 263 263 263 263 262 262 259
253 253 253 253 253 254 254 255 255 256 258 258 257 257 257 257 257 258 255 255 258 259 260 261 261 261 262 263 263 263 262 262 262 262 261 261 261 261 261 261 260 259 258 257
251 251 252 252 253 253 254 256 257 257 257 257 257 257 256 257 257 257 258 256 258 261 260 261 261 261 261 262 261 260 260 260 260 260 260 260 259 258 258 258 258 257 256 255
250 251 252 252 253 254 256 257 257 257 257 257 256 256 256 257 257 256 255 259 260 261 260 261 261 261 261 260 259 259 259 258 258 258 258 258 258 258 257 257 256 256 255 254
251 252 252 253 254 256 255 256 256 257 257 257 257 257 257 256 256 256 257 258 259 259 260 260 261 262 259 258 258 258 258 257 257 257 257 257 257 257 256 256 255 255 254 254
250 252 253 255 256 256 256 256 256 257 257 257 256 256 256 257 255 256 256 257 258 257 257 259 261 259 257 257 257 256 256 257 257 257 256 256 256 255 255 255 254 254 254 253
253 255 256 257 257 257 256 256 255 256 256 255 256 256 256 256 256 256 256 256 256 256 256 256 256 256 256 256 256 256 256 256 256 256 256 255 255 255 254 254 254 253 253 252
256 257 256 256 257 257 257 256 255 255 257 256 255 256 256 256 257 256 256 256 256 255 255 256 256 256 256 256 255 255 255 255 255 255 255 254 254 254 253 253 252 252 252 252

GFSNGP_sfc_thetae_009.txt.gz
Theta_e
287 288 288 287 286 287 286 286 282 284 286 290 292 292 291 292 290 288 287 288 288 289 289 290 290 292 292 292 287 285 284 284 284 285 284 284 283 281 281 280 280 279 278 278
282 284 284 283 286 285 285 284 283 284 284 289 283 283 284 283 283 283 284 285 287 287 288 288 289 289 289 290 290 284 285 285 285 284 283 283 283 281 280 279 279 278 277 277
275 280 279 275 280 282 284 287 283 279 277 280 279 279 282 281 281 282 284 285 286 287 288 288 289 288 288 287 287 288 285 287 284 281 281 281 280 279 279 278 278 277 277 276
273 274 266 277 282 284 281 278 279 279 278 279 278 280 282 284 281 282 283 286 288 287 286 287 288 288 287 286 285 284 285 285 281 281 282 280 279 278 278 278 277 277 277 276
264 263 273 277 277 275 275 274 279 277 278 278 279 279 279 281 282 283 284 286 285 285 287 287 286 287 285 284 284 282 281 281 280 279 280 278 278 277 278 277 277 277 277 275
262 265 263 273 275 280 279 272 278 277 278 277 277 271 274 280 282 283 284 282 282 283 284 285 285 286 285 284 284 282 279 279 277 276 276 277 278 277 277 278 276 276 275 275
257 259 265 272 275 277 263 267 276 278 277 276 275 277 279 280 281 281 280 280 280 280 280 282 283 284 283 284 283 282 277 274 272 273 273 274 276 276 275 275 275 274 273 273
256 255 260 276 275 269 272 277 278 279 278 277 278 278 278 279 278 277 276 277 278 278 278 279 279 280 280 281 284 282 276 273 272 270 272 272 272 270 273 274 273 272 271 270
266 266 276 277 276 279 279 278 278 277 278 278 275 275 276 274 274 275 275 276 276 275 273 275 275 276 275 276 279 283 283 279 275 274 272 274 273 272 272 272 271 270 270 270
268 274 274 277 278 278 279 279 279 278 277 275 273 275 274 274 274 274 274 273 274 272 271 271 272 273 273 275 277 276 278 280 276 273 272 272 272 271 272 270 271 270 269 270
270 274 276 277 278 278 278 277 276 276 275 274 273 273 273 272 272 272 272 272 271 270 269 268 269 270 270 271 272 271 274 277 276 273 272 271 272 271 272 273 273 271 271 271
269 276 275 276 279 278 276 275 274 272 272 273 272 271 271 270 271 271 270 270 268 267 266 266 266 266 267 268 268 268 269 272 275 273 272 271 271 270 276 276 276 278 277 274
275 278 278 278 278 275 272 272 272 271 271 269 270 269 269 269 269 268 267 266 265 264 264 264 263 263 264 265 266 266 267 269 273 273 272 270 270 270 268 273 277 278 279 278
278 275 274 275 273 271 271 270 269 268 268 268 267 267 266 265 265 264 264 264 263 262 261 261 261 260 262 263 264 265 266 268 270 275 272 271 270 269 269 270 271 271 278 277
269 269 269 268 268 267 267 266 264 264 265 265 265 264 263 262 261 261 262 261 260 259 259 259 259 260 262 263 264 265 266 267 270 274 273 271 270 269 269 269 270 271 273 277
265 265 264 263 263 263 263 262 261 262 262 262 261 260 260 260 259 259 259 259 257 256 258 258 258 260 262 263 263 263 265 267 269 271 270 269 268 268 268 269 269 271 271 272
260 260 258 258 259 260 259 260 261 260 260 259 258 258 257 257 257 256 256 257 257 257 258 258 259 261 262 261 261 262 263 267 270 272 268 268 268 268 268 269 270 270 271 272
258 258 258 258 257 258 258 258 258 257 256 257 257 257 256 255 255 256 257 257 257 258 259 259 260 260 260 261 264 265 266 268 270 268 267 267 267 268 269 269 270 269 270 273
256 256 257 258 258 257 255 255 255 256 256 256 256 255 257 258 258 258 258 257 256 256 257 259 262 262 261 262 266 266 266 266 266 266 266 267 267 268 268 268 268 267 269 269
255 255 255 255 255 254 253 254 254 254 255 255 257 257 257 257 257 257 257 256 257 257 259 259 259 260 261 262 264 263 263 264 264 265 265 265 265 265 266 264 266 267 264 262
251 252 252 252 252 253 253 253 254 254 256 258 257 256 256 256 257 256 255 255 258 259 260 260 260 260 261 262 262 262 262 262 263 263 263 263 263 263 263 264 264 261 260 259
250 250 251 251 251 251 252 253 255 256 257 257 257 257 256 256 256 256 257 256 258 261 261 260 261 261 260 261 260 260 260 260 260 261 260 261 261 261 261 260 259 259 258 258
249 249 250 250 250 251 253 254 256 257 256 257 256 256 255 256 256 254 253 256 258 259 259 260 262 261 260 259 259 259 259 259 259 259 259 259 259 259 259 258 257 257 257 257
248 248 249 250 250 252 254 256 257 257 257 257 257 256 255 255 255 257 257 257 258 257 257 260 261 262 259 258 258 258 258 258 258 258 258 258 257 258 258 257 256 256 256 256
248 247 246 251 254 255 256 256 256 256 257 257 257 257 256 257 255 256 256 256 257 256 256 258 260 259 257 256 256 256 256 256 257 257 257 257 256 256 256 256 256 255 255 255
248 253 255 256 256 257 256 256 255 256 257 256 257 256 256 257 257 257 256 256 256 256 255 256 256 256 256 255 255 255 255 255 256 256 256 256 256 255 255 255 255 254 254 253
254 255 255 255 256 257 257 257 256 255 256 256 255 256 256 256 256 257 256 256 256 255 255 255 255 255 255 255 255 255 255 255 255 255 254 254 254 254 254 253 253 254 253 253

GFSNGP_sfc_thetae_012.txt.gz
Theta_e
287 288 285 283 282 283 281 283 280 282 282 283 280 280 282 281 282 281 282 283 285 287 287 286 286 287 288 288 287 286 285 286 285 284 283 284 284 283 282 282 282 281 280 280
278 281 281 279 282 282 282 281 281 282 280 279 280 281 280 281 280 280 281 283 286 287 284 284 285 286 285 286 286 286 285 285 286 284 283 282 283 283 280 281 281 280 280 280
273 278 276 272 277 279 280 282 279 275 275 276 276 278 279 280 282 280 281 282 285 284 283 283 285 286 284 285 285 284 284 284 284 284 283 282 280 281 280 280 280 280 280 279
273 272 266 276 280 278 278 278 278 276 275 276 277 279 280 282 279 280 281 282 284 282 282 283 283 283 284 284 283 284 283 283 283 282 281 281 279 279 279 279 279 279 279 279
265 261 270 275 274 273 272 273 277 276 278 279 278 277 276 279 280 280 282 283 282 281 280 280 280 281 281 279 281 282 283 282 282 281 280 279 279 279 279 279 279 280 280 279
263 265 257 271 273 276 277 268 272 274 275 276 277 269 273 278 279 279 280 279 279 278 279 279 279 280 277 277 278 278 280 281 280 279 277 277 278 277 279 279 279 279 279 279
263 260 263 271 275 276 262 265 270 273 275 275 274 275 277 280 278 279 278 277 277 276 276 277 278 277 275 276 275 276 276 277 281 280 277 276 276 273 274 276 277 276 275 277
254 256 258 275 274 268 272 276 276 275 277 278 278 278 278 277 277 276 275 275 276 275 275 276 275 275 274 273 274 274 274 276 276 277 278 277 274 273 271 274 274 272 270 271
265 264 275 277 276 279 278 275 276 277 279 278 277 277 276 275 276 275 275 276 275 272 273 274 273 272 270 271 271 271 271 271 272 274 277 275 275 274 273 273 272 271 271 270
271 274 275 277 278 278 278 278 279 279 279 277 276 276 275 275 275 274 274 273 273 271 271 270 271 271 269 270 269 268 267 267 269 270 272 277 274 275 273 273 272 272 271 271
271 274 276 277 277 278 279 279 278 277 277 275 274 274 274 273 272 272 272 272 271 270 269 269 269 268 267 267 266 265 265 265 266 267 269 274 275 274 274 275 275 273 273 272
269 276 275 276 279 279 277 276 275 274 272 273 273 272 272 271 271 270 270 270 269 268 267 267 266 265 265 264 264 262 262 263 264 266 267 270 273 273 277 278 278 279 279 276
275 278 278 278 278 274 272 271 272 271 270 269 269 269 269 268 268 268 267 267 266 265 265 264 263 262 262 262 261 261 260 261 263 264 265 267 271 271 271 273 279 280 280 280
278 276 275 276 272 270 270 269 268 268 267 267 267 266 266 265 264 263 263 263 263 262 261 260 260 259 260 260 260 260 260 261 262 264 265 266 268 271 271 271 270 273 279 279
268 269 268 268 268 267 266 266 263 264 264 264 264 263 262 261 260 260 260 260 259 258 258 258 258 258 259 260 259 259 260 261 262 263 264 266 268 270 271 270 270 272 273 277
264 265 264 263 263 263 262 261 260 261 261 261 260 260 259 259 258 257 258 258 256 256 257 257 257 258 259 259 259 260 260 261 261 262 263 265 267 270 269 269 269 271 271 273
260 260 258 257 259 259 259 260 260 260 259 258 257 257 256 256 256 255 257 259 259 258 258 258 258 259 260 260 260 260 260 260 261 262 263 265 268 268 269 268 268 270 271 273
258 258 258 258 257 257 258 258 257 257 256 256 256 256 255 255 255 257 257 257 257 257 258 259 259 260 260 261 261 261 261 262 263 264 266 268 268 268 268 268 268 269 271 272
255 256 257 258 257 256 255 255 255 255 255 255 254 254 255 257 258 257 257 256 255 256 257 259 262 261 259 260 262 263 263 263 265 265 266 267 267 267 267 268 268 269 270 271
254 254 254 254 254 253 253 254 253 253 253 253 254 256 256 257 257 256 256 255 256 257 258 260 261 260 260 261 263 262 262 262 263 264 264 263 264 265 265 266 267 266 263 262
250 251 252 252 252 252 252 252 251 251 253 254 256 256 256 257 257 256 255 254 256 257 258 259 260 261 261 261 261 260 260 261 261 262 262 263 263 263 264 261 262 261 260 260
248 248 250 250 250 250 250 249 250 252 254 256 257 257 257 256 256 256 256 255 256 258 258 258 260 261 260 260 259 259 259 259 260 260 260 261 261 260 260 260 259 259 259 259
246 246 249 248 248 249 249 249 252 254 256 256 257 257 256 256 255 254 253 256 257 258 257 258 260 260 259 258 258 258 258 258 258 259 259 259 259 259 258 258 258 258 258 258
243 245 245 247 246 245 246 252 254 256 257 257 257 257 256 255 255 257 257 257 257 257 257 258 259 261 257 256 256 256 257 257 257 258 258 258 258 258 258 257 257 257 257 257
245 244 241 245 247 250 253 256 256 256 257 257 257 257 257 257 256 256 256 256 257 256 256 257 259 258 255 254 254 255 255 256 256 256 256 256 256 256 256 256 256 256 255 255
243 248 250 251 254 255 256 257 256 256 256 256 257 257 257 257 257 257 257 257 256 256 255 255 255 255 255 255 254 254 254 254 254 255 255 255 255 255 255 255 254 254 254 254
250 254 254 254 255 255 256 256 256 256 257 256 256 257 257 257 257 257 256 256 255 255 255 255 255 255 254 254 254 254 254 254 254 254 253 253 253 254 254 253 253 254 254 253

GFSNGP_sfc_thetae_015.txt.gz
Theta_e
286 287 282 282 281 281 279 281 277 280 280 284 281 279 280 282 282 281 281 282 283 286 285 283 283 284 285 285 285 286 285 285 285 285 285 285 285 285 285 283 284 284 283 283
276 281 281 279 279 280 280 280 281 281 280 279 279 280 279 279 281 281 279 280 282 285 283 281 282 282 282 283 283 283 283 284 284 284 284 283 284 284 284 283 283 283 282 282
274 278 275 270 275 278 279 280 279 275 275 275 275 278 278 278 280 280 279 280 281 282 281 280 280 281 280 281 281 280 281 283 283 283 282 281 282 282 282 282 283 282 282 282
273 267 266 276 277 278 277 277 275 275 275 277 278 280 280 281 281 279 279 279 281 281 280 280 280 280 279 280 278 278 279 279 280 279 278 280 280 281 281 281 281 281 281 282
268 268 272 275 275 273 272 272 274 272 275 277 279 278 276 279 279 279 279 280 281 280 279 279 279 279 278 277 276 277 277 277 277 276 276 279 279 279 280 280 280 281 281 281
265 263 256 270 272 274 276 266 272 270 271 272 276 270 274 277 279 279 280 280 280 278 278 278 278 278 277 275 274 275 275 275 275 275 276 275 276 278 279 279 279 280 280 281
269 267 266 271 274 276 262 265 271 271 273 273 274 276 279 278 278 279 279 279 278 276 276 276 276 275 274 274 273 274 274 273 272 273 273 273 274 277 277 278 278 278 278 279
253 256 260 274 273 268 272 275 275 275 276 276 277 278 280 279 279 277 276 277 277 276 276 276 276 274 273 272 273 272 271 270 270 269 270 271 271 273 276 276 275 277 277 277
265 264 274 276 275 278 279 276 277 276 277 276 277 278 279 277 276 276 276 276 276 274 273 274 274 272 270 272 271 270 268 267 267 267 267 268 269 270 272 275 274 275 275 274
271 274 274 276 279 279 278 277 278 278 277 276 276 277 277 277 276 275 275 274 273 271 271 271 272 272 271 270 269 266 264 265 265 265 265 266 268 269 271 274 274 274 275 274
271 275 276 277 278 278 279 279 277 277 277 276 274 275 274 273 273 273 272 272 271 270 269 269 270 269 268 268 266 264 263 264 263 264 263 264 266 268 270 273 276 274 275 275
270 276 275 276 279 278 277 276 273 272 272 273 273 271 271 270 270 269 269 269 267 267 266 265 265 265 265 264 263 262 261 261 261 262 262 263 264 265 271 274 277 280 280 279
276 279 278 279 276 273 273 271 271 269 270 268 269 268 267 266 267 266 265 264 263 262 262 261 261 260 261 261 260 259 259 259 260 260 261 261 262 263 263 268 274 278 280 281
279 277 275 276 273 270 269 268 267 266 267 267 266 265 264 263 262 261 261 261 260 259 258 258 258 258 259 260 259 258 258 259 259 259 260 261 262 263 264 265 266 271 276 278
271 270 269 268 268 267 266 264 263 263 263 263 263 262 261 259 259 259 259 258 258 257 257 258 258 258 259 259 259 258 258 258 259 259 260 261 262 262 262 264 266 268 272 275
266 265 264 264 263 263 261 261 260 261 261 260 259 259 259 258 257 256 256 257 257 257 257 257 257 258 259 259 259 259 259 260 260 260 261 261 261 261 263 264 266 269 270 271
263 260 258 257 260 260 259 260 260 260 259 258 257 257 255 255 254 254 256 259 258 257 257 257 257 259 259 260 259 259 260 260 260 260 260 260 261 261 263 265 267 269 270 272
259 259 259 258 257 258 258 258 257 257 256 256 256 255 253 252 253 255 258 258 257 257 257 258 258 259 261 261 260 260 260 260 261 261 263 263 263 265 266 267 269 268 269 271
256 256 257 258 257 256 255 255 255 255 255 254 253 252 253 254 256 258 258 256 256 256 257 258 260 260 259 261 262 261 261 261 261 262 264 265 266 267 268 268 268 269 269 269
254 254 254 254 254 252 252 253 253 252 252 251 249 251 253 255 258 257 257 255 256 257 258 258 258 258 260 260 261 260 260 260 261 262 263 264 264 264 265 265 263 263 263 262
250 250 251 251 251 251 251 251 250 250 250 249 250 253 255 257 258 257 255 255 257 258 258 258 258 259 259 259 259 259 259 259 260 260 260 261 261 261 261 261 261 260 260 260
246 246 248 249 248 248 248 247 247 248 248 249 254 255 256 256 256 255 255 254 256 257 258 257 258 259 258 259 258 258 258 258 258 258 259 259 259 259 259 259 259 259 259 259
244 244 247 246 246 247 246 246 247 247 249 253 255 256 257 257 256 255 254 256 256 257 257 257 259 259 258 256 256 256 256 256 256 257 257 257 258 258 258 258 258 258 258 258
241 241 242 243 241 240 244 248 247 250 254 256 257 258 257 256 256 257 257 257 257 257 256 257 258 260 257 255 254 254 255 255 256 256 256 256 256 256 256 257 257 258 258 257
241 242 240 242 244 248 246 249 253 256 256 257 257 258 258 258 256 257 257 257 258 256 255 256 259 258 254 254 254 254 254 254 254 254 255 255 255 256 256 256 256 257 257 256
241 244 245 246 249 253 255 256 256 256 257 256 257 257 257 257 257 257 257 257 256 256 254 254 254 254 253 253 253 253 253 253 253 253 253 253 253 253 253 253 254 254 254 254
244 250 251 252 254 254 255 256 255 255 256 256 256 257 257 257 256 256 256 255 255 254 254 254 254 253 253 253 252 253 253 252 253 252 252 252 252 252 253 253 253 253 253 253

GFSNGP_sfc_thetae_021.txt.gz
Theta_e
286 287 286 285 284 285 284 285 280 283 284 287 289 289 286 286 286 285 284 284 284 284 285 286 285 285 285 285 285 285 284 282 282 283 283 283 282 282 283 284 284 284 284 285
279 283 283 281 284 284 285 285 284 284 283 290 287 285 284 284 283 283 283 285 284 284 284 285 285 285 284 284 285 284 283 282 282 282 281 281 281 280 281 282 282 282 282 283
274 279 279 274 279 281 282 284 283 279 282 281 281 281 282 282 282 282 283 284 284 284 284 285 285 286 284 284 285 283 282 281 281 281 280 280 279 278 279 279 280 280 281 282
274 275 267 279 284 283 281 282 283 282 279 279 279 281 282 283 283 283 283 283 284 285 285 286 286 285 285 284 283 282 281 281 280 280 279 279 277 277 277 278 278 278 279 280
271 271 275 278 280 279 278 277 282 282 279 279 280 281 280 284 284 283 283 284 285 287 286 286 285 284 283 282 281 281 280 280 280 279 278 277 275 275 276 276 276 276 277 277
274 269 266 276 281 281 280 272 281 280 278 279 279 273 278 283 284 284 284 285 285 286 286 284 284 282 280 279 279 278 278 278 279 278 277 275 275 274 275 274 275 275 275 276
272 270 273 281 279 281 270 274 281 281 280 280 277 279 283 284 283 284 285 285 286 285 282 282 281 279 277 277 276 277 277 276 276 276 275 275 274 274 273 272 272 271 272 273
271 268 266 280 278 274 280 282 282 281 282 281 282 282 282 282 283 283 283 283 283 280 279 279 278 276 274 273 275 274 272 271 271 271 271 272 270 270 270 269 269 269 269 271
274 273 281 281 280 283 284 282 283 282 283 282 281 281 282 281 282 282 281 279 278 276 274 274 274 273 270 271 270 269 267 265 265 266 267 267 267 267 267 267 267 267 268 269
275 277 279 281 283 283 284 283 284 284 283 283 281 281 281 280 279 278 277 275 274 272 270 269 270 270 268 268 266 264 262 262 263 263 263 263 264 265 264 264 264 265 266 266
276 278 280 281 282 282 283 284 283 283 282 281 280 279 278 277 275 274 273 272 271 268 267 267 267 266 265 265 263 261 261 261 261 262 262 262 263 263 263 264 264 263 264 265
274 280 279 280 283 284 282 282 282 282 279 277 275 275 274 272 272 271 269 268 267 266 265 264 264 263 263 263 262 260 260 260 261 261 261 262 261 261 266 267 268 269 270 269
279 283 282 283 283 284 282 282 280 277 275 274 273 271 270 269 269 267 266 265 264 263 263 262 261 261 261 261 261 260 259 260 260 260 261 260 261 260 259 263 267 268 269 270
284 283 280 282 280 282 278 276 274 272 271 270 269 267 266 265 265 264 263 263 263 261 260 260 259 259 262 262 261 260 259 259 260 260 261 261 261 261 261 260 260 261 265 267
283 283 281 279 277 273 273 271 269 269 269 267 266 264 263 262 262 262 262 260 260 259 258 259 260 260 262 262 260 259 259 259 260 261 262 262 262 262 262 262 261 262 263 266
279 272 271 272 273 271 269 267 267 267 266 265 263 262 262 261 260 259 259 259 257 258 257 259 260 261 262 261 260 259 260 260 261 261 262 262 262 262 262 262 262 262 263 263
271 270 267 267 268 268 266 266 265 264 263 262 261 260 258 257 256 256 256 257 258 258 260 260 260 261 260 261 259 259 260 261 261 261 261 262 262 263 264 265 265 264 265 266
265 265 264 264 265 264 263 263 262 261 260 260 259 258 256 254 254 255 256 257 258 259 260 261 261 260 260 259 260 261 260 260 261 261 262 262 263 264 264 264 264 265 266 268
261 261 261 261 260 259 259 259 259 258 258 257 256 255 255 255 255 255 256 256 257 259 261 260 262 260 259 260 261 259 260 260 260 261 262 262 262 263 263 263 263 263 263 263
257 258 257 257 257 256 256 257 256 256 255 254 252 251 252 253 253 254 256 257 259 260 260 259 258 258 259 259 259 259 259 259 259 260 260 260 261 261 261 261 261 261 261 261
255 255 255 255 255 255 254 255 254 253 254 253 252 252 252 253 254 254 256 258 261 260 259 259 259 259 260 258 259 259 258 258 258 258 258 259 259 260 260 260 260 260 260 260
253 253 253 254 254 253 253 252 252 251 251 251 251 251 250 252 255 257 259 258 260 260 259 259 259 259 258 258 259 259 258 258 258 258 258 258 258 258 259 259 259 259 260 260
253 252 253 251 251 252 250 250 251 251 251 251 252 253 255 258 259 258 258 261 260 260 259 259 258 260 258 258 258 258 257 257 257 257 257 257 257 257 258 259 259 260 260 260
250 250 250 251 248 249 250 255 253 255 252 253 253 254 256 258 259 261 261 260 260 259 259 258 259 261 257 257 257 257 257 256 256 256 257 257 257 257 257 257 257 258 258 258
249 249 248 248 252 255 253 255 255 256 256 258 259 259 259 260 259 260 260 259 260 258 258 259 260 259 257 257 256 256 256 256 255 255 255 255 255 255 256 256 256 256 256 257
252 254 254 252 253 254 256 256 256 258 258 258 259 259 259 259 259 259 259 259 258 258 257 257 256 256 256 256 255 255 255 255 255 255 255 255 255 255 255 255 255 255 256 256
253 253 255 255 256 256 256 256 256 256 257 257 257 258 258 258 258 258 257 257 257 256 256 255 255 255 254 254 255 255 255 254 254 253 253 253 253 253 253 254 255 255 255 255

GFSNGP_sfc_thetae_024.txt.gz
Theta_e
284 285 284 282 281 282 280 281 277 280 280 284 287 287 282 282 283 284 284 283 281 281 281 281 282 282 282 282 282 281 281 280 280 280 280 279 279 278 278 278 280 280 279 280
273 280 280 278 280 280 280 280 280 281 280 287 282 282 281 282 282 281 280 281 282 282 282 282 282 282 283 281 281 281 279 278 280 279 279 278 277 277 277 277 277 277 278 278
267 276 274 267 275 277 278 280 279 275 278 277 278 280 278 278 280 280 281 281 281 282 281 282 282 283 281 281 281 277 276 277 277 277 277 278 278 277 277 276 276 276 276 277
266 266 260 274 279 279 277 278 278 276 273 276 277 277 278 280 279 280 281 280 280 281 282 282 282 281 281 280 278 278 277 277 277 277 277 277 276 276 276 275 275 275 275 275
264 262 271 275 277 276 273 274 277 275 277 277 277 277 276 280 280 279 279 281 281 281 282 281 280 279 278 277 277 277 277 277 276 275 275 276 275 275 275 275 274 274 274 273
263 261 257 271 276 279 278 269 275 273 273 275 276 269 272 279 280 280 281 281 281 281 281 279 278 278 276 275 274 274 275 275 275 274 273 272 273 273 274 273 273 274 273 273
269 266 268 274 276 278 264 269 275 274 275 275 274 276 279 280 280 281 280 279 280 278 278 277 277 275 273 273 272 272 272 271 270 269 268 268 269 269 269 269 270 269 269 270
262 261 264 276 275 271 276 279 279 278 278 278 278 279 279 279 279 279 278 278 277 276 276 275 274 272 270 269 271 269 267 266 265 264 264 265 264 264 265 265 265 265 266 266
269 268 277 278 278 280 280 277 279 279 279 279 278 278 278 278 277 278 276 276 275 271 271 272 269 268 267 267 267 266 263 261 261 262 262 262 261 261 261 262 262 262 263 263
271 275 277 279 280 280 281 280 280 280 279 279 278 278 279 279 278 276 273 271 270 267 265 265 266 267 264 265 264 262 260 260 261 260 260 261 262 262 261 261 260 261 260 260
274 277 278 279 280 281 281 281 280 280 280 279 278 278 278 275 273 273 271 270 267 265 265 265 265 264 262 263 261 260 260 260 260 260 260 260 261 261 261 263 263 262 263 264
272 278 278 278 280 280 280 279 279 278 277 276 276 275 274 272 272 270 268 267 265 263 263 262 261 261 261 259 258 259 259 260 259 259 259 260 260 260 265 267 269 270 270 269
278 281 281 281 280 280 279 279 279 277 276 275 273 272 271 269 269 266 264 263 262 261 261 260 259 259 259 259 258 260 258 259 259 259 259 259 259 259 258 262 267 269 269 270
282 281 279 280 279 279 278 275 273 271 271 271 269 266 266 265 265 262 262 261 260 259 257 256 256 257 259 258 260 260 260 259 259 259 258 259 259 260 260 260 259 261 266 268
281 280 279 276 275 273 272 270 267 268 268 266 265 264 264 262 262 262 261 259 257 255 255 255 255 257 259 261 260 259 259 259 259 259 260 260 261 261 261 261 261 262 263 266
274 270 269 270 271 269 268 266 265 267 265 264 263 263 263 261 259 258 257 254 252 254 254 253 257 259 260 260 259 259 258 259 260 260 260 260 260 261 261 262 262 263 264 264
268 266 263 264 267 266 264 265 265 265 263 262 262 260 256 254 254 253 254 250 250 252 254 255 258 260 259 259 257 258 259 259 258 259 259 259 260 261 261 262 262 262 262 264
265 265 264 263 264 263 262 262 261 260 259 260 259 256 255 252 253 252 251 249 249 252 254 256 255 259 259 257 257 259 257 257 258 257 258 259 259 260 261 261 260 260 261 262
260 261 262 262 260 259 258 257 257 257 257 255 253 254 254 254 252 249 247 247 248 251 254 252 261 259 257 256 260 257 257 256 256 257 257 258 258 259 260 260 259 260 260 260
257 257 256 256 255 254 253 253 253 252 251 250 248 246 248 249 248 247 246 249 252 256 251 252 256 257 256 255 257 255 254 256 256 256 256 257 257 258 259 259 259 259 259 260
254 253 253 253 253 252 251 250 249 249 250 251 250 248 248 247 245 246 245 250 253 252 253 257 256 257 256 255 255 251 252 253 254 255 255 256 256 257 258 258 259 259 259 259
251 251 252 251 249 248 248 247 246 247 247 247 247 246 246 247 247 249 251 254 253 258 257 258 258 257 257 256 252 251 252 251 251 253 255 255 256 256 256 256 257 257 258 258
247 248 249 248 247 246 244 244 245 245 247 247 248 248 249 252 254 255 252 255 256 258 259 258 259 260 259 254 252 250 251 250 251 252 252 253 255 255 255 256 256 256 256 257
245 245 245 244 242 242 244 246 245 247 248 249 249 250 252 252 255 258 259 259 260 260 259 259 259 262 258 253 252 251 250 249 250 248 249 253 250 253 254 254 254 255 256 256
243 243 242 242 243 246 245 247 247 249 249 250 254 255 256 258 256 256 257 257 260 259 258 259 260 259 253 251 250 249 250 249 248 248 249 248 249 250 251 252 253 254 255 255
244 245 245 245 245 247 248 248 249 250 251 254 256 256 257 258 259 258 259 259 258 258 257 257 255 253 252 251 250 249 251 251 251 250 250 249 249 250 250 251 252 252 253 253
243 247 246 247 247 247 247 248 249 253 255 255 255 257 257 257 257 257 257 257 256 256 256 253 254 253 251 250 249 249 249 249 251 249 246 247 247 246 248 249 249 250 251 251

GFSNGP_sfc_thetae_027.txt.gz
Theta_e
283 283 281 280 280 281 279 280 275 279 279 282 284 282 282 281 283 284 283 281 280 280 280 280 280 281 281 280 281 280 280 279 279 279 279 278 278 278 278 278 278 278 278 278
272 280 280 277 279 279 279 279 278 279 278 284 280 279 280 280 280 280 279 280 280 280 280 280 281 281 281 281 280 280 279 278 279 278 279 279 279 279 278 278 277 277 276 276
265 276 273 267 275 277 278 279 277 273 277 275 277 279 277 277 278 279 280 280 279 280 280 279 280 281 280 280 279 276 275 276 277 278 278 278 278 278 277 277 277 276 276 275
262 264 261 274 277 277 276 277 275 274 272 275 277 277 278 279 277 278 279 280 279 279 279 280 281 280 279 278 277 277 275 274 274 276 275 275 275 275 275 275 275 275 275 275
264 261 268 274 275 274 273 272 275 273 275 278 276 275 274 278 278 278 279 280 279 280 281 279 278 277 277 276 276 275 275 274 274 272 271 271 270 270 271 271 271 272 273 272
257 261 259 270 274 278 277 268 272 270 272 274 276 269 271 278 280 280 280 280 280 280 279 277 276 276 274 274 272 272 273 272 271 270 267 266 267 266 267 267 268 269 268 269
270 266 265 273 275 278 264 268 272 273 274 275 274 275 277 279 279 280 280 279 278 277 277 275 274 273 271 271 269 270 269 268 267 266 265 264 264 264 264 263 264 263 264 265
259 257 263 277 275 271 275 278 278 277 277 277 278 278 278 279 278 278 278 277 277 275 275 274 272 270 269 268 269 267 265 264 263 262 262 263 261 261 261 261 260 261 261 262
269 268 276 277 277 279 279 277 278 277 278 278 278 277 278 277 278 277 277 277 274 270 270 271 268 267 265 266 265 264 259 258 259 261 261 261 260 260 260 260 260 260 261 261
270 274 276 277 278 279 279 279 280 279 278 278 277 278 278 278 278 277 273 271 269 267 265 264 265 266 263 263 263 255 254 258 260 260 260 260 261 261 260 259 259 260 260 260
272 276 277 278 278 279 279 279 279 279 279 278 277 278 278 277 275 273 271 269 267 265 264 264 264 262 259 262 257 257 258 260 260 260 259 259 260 260 260 262 263 262 264 265
272 278 277 278 280 280 279 279 279 278 277 278 278 277 275 273 272 270 269 268 266 264 263 261 258 258 257 256 254 255 258 260 259 260 259 260 259 259 265 267 268 270 271 270
278 281 280 281 281 280 278 278 279 278 278 277 274 272 271 270 269 267 266 265 264 263 262 259 256 257 256 255 252 253 257 259 259 259 259 258 258 258 258 262 267 268 269 270
280 280 278 279 278 279 279 278 274 272 271 272 269 266 266 266 264 264 263 263 262 260 258 255 254 254 256 253 252 254 257 259 259 259 259 258 259 259 259 259 259 260 266 268
280 281 281 280 276 274 272 270 267 269 268 265 265 264 263 262 261 263 262 260 258 256 254 254 252 254 254 253 254 255 258 258 258 258 259 259 259 259 260 260 260 261 262 265
277 271 271 273 274 270 268 266 267 267 265 264 262 262 262 261 259 258 259 258 253 253 255 252 253 254 254 252 253 256 257 258 259 258 258 258 258 259 259 259 260 260 260 260
268 267 263 264 268 268 268 265 265 265 264 262 260 258 256 254 253 255 255 252 253 253 252 251 253 253 251 252 252 257 257 257 256 257 256 256 257 258 258 259 259 259 259 261
267 265 265 265 266 264 263 262 262 261 258 258 257 255 254 251 251 250 249 247 248 249 251 252 252 251 250 250 253 256 254 254 255 254 256 256 256 257 258 258 259 259 259 260
261 262 262 263 261 260 259 258 257 256 256 254 253 252 251 250 249 248 246 245 246 246 252 248 257 253 250 252 258 255 254 253 253 253 254 255 255 255 256 257 258 258 259 259
257 257 257 256 255 254 253 254 252 251 249 249 246 246 246 247 246 246 245 248 251 253 249 249 248 248 250 253 258 253 250 251 251 251 252 254 253 254 255 256 257 257 257 258
253 254 253 253 252 251 251 250 249 248 248 246 246 246 247 247 244 243 243 246 251 250 251 253 250 251 253 257 257 254 247 248 248 248 248 251 252 252 254 254 255 256 256 256
250 251 252 252 251 248 245 244 245 245 245 244 244 243 242 246 244 244 247 250 252 254 255 254 255 256 258 259 256 253 249 248 247 247 248 248 249 251 252 252 252 254 254 254
248 248 249 248 247 246 242 242 243 243 244 244 246 246 247 250 250 250 252 251 254 257 258 256 258 260 261 257 255 251 250 249 248 248 247 247 248 248 249 250 252 252 253 253
243 243 244 242 240 243 248 245 242 243 244 246 246 248 250 250 249 254 257 258 259 259 256 257 259 262 258 256 253 251 250 248 248 245 246 250 247 248 248 248 250 251 252 253
245 243 241 243 244 245 243 243 244 245 246 245 246 251 252 255 255 256 256 257 260 258 257 259 260 259 255 253 251 251 251 248 245 244 244 244 244 245 246 247 247 249 250 250
247 250 246 243 244 244 245 245 246 245 246 247 249 252 252 255 258 258 258 258 258 258 257 257 256 256 254 253 251 251 251 249 249 247 246 244 244 245 245 246 247 248 248 248
247 247 244 245 245 244 244 245 245 246 247 248 249 251 255 256 256 257 257 256 256 256 256 255 255 255 253 252 252 251 250 249 250 248 245 244 245 244 245 246 246 246 248 248

GFSNGP_sfc_thetae_030.txt.gz
Theta_e
282 283 283 281 281 281 280 279 275 278 277 282 282 281 281 282 283 285 282 280 279 279 279 279 279 279 279 279 279 279 279 279 278 279 278 278 277 277 277 277 278 278 277 277
274 281 281 278 280 279 280 280 279 280 278 284 282 279 279 280 281 282 281 281 280 280 279 279 279 279 280 279 280 279 278 276 278 277 277 277 277 277 277 276 276 276 276 276
269 275 273 267 273 277 278 278 277 274 277 275 277 279 279 279 278 278 279 279 279 279 279 279 279 280 279 279 278 275 274 273 274 274 274 274 274 274 273 272 273 272 273 273
266 264 259 275 276 276 276 277 275 274 272 275 278 278 278 278 277 278 278 279 279 278 278 279 279 279 278 278 276 275 273 271 271 272 271 271 270 269 269 270 269 269 270 270
267 262 269 274 275 274 273 273 275 274 274 278 277 275 274 278 278 278 278 279 279 279 278 278 277 277 276 275 275 273 273 272 271 269 267 268 266 266 267 266 266 266 267 267
260 258 259 271 273 276 276 267 271 271 273 273 275 269 272 277 279 279 279 279 279 279 279 276 275 275 273 272 271 270 271 270 269 268 263 264 265 264 264 264 265 265 265 265
269 259 264 273 275 277 264 269 270 272 275 274 273 276 277 278 278 279 280 279 279 278 277 275 274 272 271 270 268 269 268 267 265 265 263 263 262 263 262 262 263 261 262 262
264 264 262 276 275 271 275 277 277 276 277 277 278 278 278 278 278 278 278 278 277 276 274 273 271 270 268 267 268 265 264 263 262 260 261 262 260 260 260 260 259 259 260 261
269 268 276 277 278 279 279 277 278 277 278 278 278 277 277 277 278 278 277 278 276 273 271 271 268 267 266 266 265 263 258 256 256 258 260 261 259 259 259 259 259 259 260 260
269 273 275 277 280 279 279 279 280 280 279 278 277 278 279 278 278 277 275 273 269 268 266 266 266 267 265 263 262 254 251 256 258 258 259 259 260 261 259 258 259 259 259 260
271 275 276 277 277 279 280 279 279 279 279 279 278 278 278 278 276 275 273 270 268 266 266 265 265 264 261 261 257 255 255 258 258 258 257 259 260 260 260 262 263 263 265 265
271 278 277 278 279 279 278 279 279 279 278 277 277 277 277 276 275 273 270 267 265 264 264 264 262 262 260 259 254 253 256 258 259 259 259 260 259 259 264 266 268 270 271 270
278 281 279 280 280 280 278 279 279 278 278 277 277 276 273 272 270 268 266 265 264 263 263 261 260 260 258 254 251 250 252 257 258 259 258 258 258 258 257 261 267 267 268 270
280 279 278 279 278 279 279 279 276 273 273 273 273 267 267 267 265 264 263 262 261 259 260 257 257 257 256 254 250 249 251 256 256 257 257 258 258 258 258 257 257 259 264 267
279 280 281 281 276 277 274 271 269 270 268 266 265 265 265 264 262 263 261 259 258 255 258 256 256 256 253 251 251 250 253 254 254 256 258 258 257 257 258 258 258 258 260 262
276 272 272 274 277 272 269 267 268 269 267 266 265 263 263 262 260 258 257 254 253 253 254 253 253 254 252 250 250 249 250 255 257 253 256 256 256 256 257 257 257 258 258 259
272 272 264 265 269 268 267 267 267 267 265 263 261 259 257 255 253 252 252 249 249 250 253 251 253 252 250 249 249 250 250 252 254 253 254 254 255 255 255 256 256 257 258 260
271 268 267 267 267 267 264 263 262 261 258 258 257 256 254 252 252 250 249 245 245 248 250 251 252 253 250 249 249 249 249 248 249 251 253 253 252 254 254 255 255 256 257 258
263 264 263 264 263 262 260 258 256 256 256 255 255 254 252 251 248 246 243 243 244 245 251 248 257 255 252 252 253 250 249 249 251 253 252 252 251 250 250 252 254 254 255 256
258 258 257 256 255 255 254 253 253 252 248 249 246 246 246 245 243 243 241 244 248 252 248 247 247 248 248 249 255 249 248 250 253 254 250 249 249 250 250 252 252 252 251 253
255 255 254 254 252 252 251 249 250 249 247 245 246 245 245 246 242 240 242 244 249 247 248 250 250 251 249 250 252 249 250 253 253 253 246 248 248 247 249 247 248 250 251 251
251 252 252 252 251 247 244 244 245 245 245 244 243 245 244 246 243 241 245 248 251 251 250 253 254 253 254 259 254 253 254 254 253 250 249 247 245 245 246 248 248 250 251 251
250 250 250 249 249 247 242 242 243 243 244 245 245 244 245 249 248 248 249 249 252 253 255 256 257 260 260 256 255 254 254 254 253 252 250 248 246 244 246 247 247 248 249 250
249 248 247 245 241 244 247 245 242 242 242 243 244 245 247 247 248 249 253 255 257 259 256 256 258 263 257 255 255 255 254 253 251 250 249 249 243 244 244 245 246 247 248 249
249 246 246 246 246 246 244 243 242 243 243 244 244 248 247 252 251 251 252 254 259 258 257 258 261 260 255 255 254 254 253 251 249 248 247 243 243 243 243 243 244 245 246 247
247 249 246 246 246 245 244 244 245 244 243 245 244 246 249 249 250 252 254 257 257 257 257 257 256 256 256 255 254 253 253 252 252 250 248 246 244 244 245 246 246 246 246 246
247 248 245 245 244 243 242 243 244 245 244 243 246 249 248 248 250 255 256 256 256 256 256 256 255 255 255 254 253 253 252 252 251 250 247 245 245 245 246 246 246 245 247 247

GFSNGP_sfc_thetae_033.txt.gz
Theta_e
280 281 281 280 280 281 279 280 278 281 281 282 284 284 283 283 282 283 282 279 279 280 280 279 279 278 278 278 278 278 278 278 278 278 278 277 276 275 276 276 276 275 275 274
274 281 282 280 281 281 282 282 280 280 280 285 282 281 279 280 281 283 283 281 280 280 279 280 280 279 279 278 278 278 278 276 277 275 275 274 273 273 273 272 272 272 272 272
277 276 275 272 275 280 281 280 280 276 281 275 278 279 279 279 279 280 281 282 280 279 279 279 279 280 278 278 278 275 274 271 271 272 272 271 271 270 270 269 270 269 269 269
271 271 268 277 275 276 277 279 276 274 272 275 277 278 279 279 279 279 279 279 279 278 278 279 278 278 278 277 275 274 272 270 270 270 268 269 268 267 267 267 267 267 267 267
272 265 271 276 275 273 273 273 276 276 277 278 277 275 275 277 277 277 277 278 279 279 278 278 278 277 276 274 274 273 272 271 270 268 265 266 263 265 265 265 265 264 266 265
265 265 264 273 273 276 276 268 272 274 274 275 275 269 275 276 278 278 278 279 279 279 278 277 276 276 274 272 270 270 271 270 268 267 262 262 264 263 264 262 264 264 264 263
268 270 267 272 274 277 265 270 271 273 275 273 273 276 278 278 277 279 279 279 278 278 278 277 275 273 271 270 269 269 268 267 265 265 261 261 261 262 261 261 262 260 261 261
265 265 264 276 275 272 276 276 276 275 276 276 277 278 278 278 278 278 278 278 279 277 276 274 272 271 269 268 268 266 265 263 261 258 259 261 255 258 257 258 258 258 259 260
271 269 276 277 277 279 279 277 277 277 278 278 278 277 278 277 277 278 278 279 278 275 273 271 269 268 267 267 266 264 261 258 254 257 259 259 255 258 258 257 257 258 259 259
271 273 275 277 278 279 279 279 279 279 279 278 277 278 278 278 278 277 276 275 272 271 270 267 266 267 264 264 263 256 258 257 258 256 257 257 260 260 257 257 258 259 259 260
271 275 275 277 277 279 279 279 279 279 279 278 277 278 278 278 276 277 275 272 271 271 270 266 265 264 261 262 260 259 257 259 259 257 255 257 258 259 260 261 262 263 265 265
269 277 277 277 278 279 278 278 279 278 277 277 277 278 278 277 277 275 273 269 268 267 266 264 262 261 259 257 257 256 258 259 258 258 257 259 258 258 264 267 268 270 271 269
277 280 279 279 279 279 278 278 278 277 278 278 278 277 276 276 271 269 267 267 266 264 263 261 259 259 258 258 255 254 254 257 256 258 257 257 257 257 256 260 266 266 268 269
279 278 277 278 278 280 279 278 277 274 274 274 274 269 269 268 265 265 265 264 263 261 259 257 255 257 259 253 252 254 254 255 254 255 254 254 255 256 256 255 255 257 263 265
278 279 281 280 276 277 275 272 271 273 271 267 265 266 266 265 265 264 262 260 260 257 254 254 253 258 256 253 254 255 253 253 254 253 254 255 255 256 256 256 256 256 258 261
278 275 275 275 277 274 271 268 270 271 266 264 263 263 263 262 262 259 257 255 255 254 255 256 256 257 253 251 252 250 250 254 254 252 251 251 254 253 254 255 255 255 256 256
270 269 263 267 272 272 270 268 269 266 265 264 262 260 258 256 254 251 249 248 250 252 254 255 255 253 249 251 251 252 250 250 254 254 252 248 250 251 254 253 254 254 255 258
276 277 272 271 272 270 265 264 263 262 259 259 257 256 254 252 252 251 249 246 248 249 251 252 251 250 248 248 249 251 252 252 248 247 249 250 249 252 253 252 252 253 254 256
266 269 265 266 264 265 262 259 257 257 256 256 255 252 251 249 248 246 242 243 244 245 251 246 254 254 248 250 251 251 251 249 247 247 248 250 250 252 252 249 250 250 252 253
259 260 259 258 257 256 255 255 254 252 248 250 249 247 246 245 242 242 240 244 247 251 247 248 245 247 249 250 255 249 247 248 249 248 248 249 252 252 251 251 250 250 248 248
256 256 255 255 253 252 252 251 251 250 246 247 249 246 245 243 241 240 242 244 250 246 246 249 246 249 251 251 250 246 245 247 248 249 248 251 252 251 250 246 247 248 248 247
252 253 253 253 251 248 245 247 249 248 247 244 243 243 242 244 242 242 245 247 250 250 249 249 252 254 255 257 255 253 251 251 250 249 251 252 251 250 249 247 247 248 247 247
252 251 253 253 252 249 246 245 244 246 247 244 245 244 246 248 247 246 249 247 247 250 252 253 257 259 260 259 255 254 253 253 253 254 254 253 252 249 248 247 247 246 246 247
251 250 251 248 249 250 249 245 243 243 242 242 242 244 246 246 246 247 250 252 253 254 253 255 258 263 259 255 254 254 253 253 254 254 253 253 249 248 246 246 246 246 245 246
251 250 250 251 252 250 249 244 245 245 244 243 243 245 245 249 249 248 250 252 254 255 253 258 261 261 256 255 254 254 254 254 254 253 252 249 249 247 245 244 244 244 245 246
251 251 249 248 250 250 248 246 246 243 243 245 244 243 244 245 248 252 250 252 252 254 255 256 257 256 256 256 255 255 255 254 254 253 252 250 249 248 247 247 246 247 246 246
250 251 251 250 247 246 244 244 245 245 242 241 244 245 245 246 250 252 252 252 253 255 256 255 256 256 255 255 255 255 254 254 254 252 251 250 249 248 247 247 246 246 246 247

GFSNGP_sfc_thetae_036.txt.gz
Theta_e
281 281 282 282 282 281 280 283 280 283 281 282 286 285 285 285 284 283 283 282 280 280 280 279 278 278 278 277 278 278 278 277 277 278 277 276 274 274 273 273 272 272 272 271
277 282 281 280 281 280 282 281 279 279 280 284 284 283 283 283 282 281 282 283 281 281 281 280 280 279 279 277 277 278 277 277 277 275 274 273 272 272 271 271 270 270 270 269
278 275 277 277 279 280 280 281 282 279 284 279 279 281 281 280 280 281 282 283 283 280 280 280 280 281 278 278 277 275 274 272 271 271 271 270 270 269 269 268 268 268 268 268
271 274 271 279 275 278 282 282 280 277 275 278 279 279 280 279 280 280 280 281 281 280 279 279 279 278 278 278 276 275 273 270 270 270 268 268 267 267 267 267 266 266 266 266
272 271 276 277 274 273 274 275 278 280 281 278 278 276 276 278 279 279 278 279 279 280 278 277 278 277 277 275 275 273 272 271 269 268 265 266 263 264 264 264 264 263 265 264
270 271 269 272 273 276 278 272 275 278 277 275 276 270 273 277 278 278 278 278 278 279 278 277 277 277 275 273 272 271 272 271 269 267 262 262 264 262 263 261 264 264 264 263
271 272 272 274 275 277 268 273 271 274 274 274 273 275 277 278 277 278 278 278 278 277 278 278 276 274 273 271 271 270 269 267 266 265 262 261 260 261 259 258 262 259 260 261
271 270 270 276 275 273 277 276 276 275 276 276 277 278 277 278 278 277 277 278 279 277 276 277 274 274 272 271 269 267 266 265 264 261 261 262 255 256 255 255 255 256 257 259
274 273 276 278 277 279 279 277 276 276 277 277 277 277 277 277 277 277 277 278 277 276 276 274 271 272 271 269 266 264 262 260 259 261 261 261 255 257 257 255 254 257 259 259
273 274 275 277 279 279 279 278 279 279 278 277 276 277 278 278 277 277 276 276 273 271 271 271 268 269 267 266 264 260 256 260 260 258 260 259 260 260 256 255 256 258 258 259
271 275 276 277 278 279 279 279 278 278 278 278 277 278 277 277 276 276 276 273 271 272 273 271 267 265 263 263 261 258 257 260 260 260 259 259 260 259 259 260 260 259 261 265
270 277 277 277 279 280 278 278 278 277 276 276 277 277 276 275 276 275 275 270 270 270 268 266 265 263 260 260 259 258 259 260 260 260 260 259 259 258 264 267 269 271 271 270
277 278 278 280 279 278 278 278 278 277 277 277 276 276 274 275 272 271 268 268 268 266 264 262 261 261 259 258 256 256 258 260 260 260 259 258 258 256 255 259 265 267 268 269
279 278 276 277 278 278 278 278 276 274 274 275 274 269 269 268 265 265 264 263 263 262 262 261 261 261 259 257 255 254 256 258 257 258 257 256 254 254 255 254 254 256 261 264
278 279 281 278 277 277 275 273 271 273 271 268 266 266 265 265 264 265 262 262 262 261 261 258 255 256 256 254 254 256 257 257 256 256 255 255 255 256 254 254 254 254 255 259
276 275 274 275 277 274 272 268 271 273 268 265 264 263 263 263 261 258 256 255 255 254 253 252 253 255 253 253 256 255 255 257 256 254 254 254 254 253 254 253 252 252 253 255
271 270 264 267 272 273 271 272 273 269 267 265 263 260 258 256 254 252 248 247 248 249 250 251 253 253 250 251 251 253 253 252 254 251 250 250 250 251 252 251 251 251 253 256
278 278 273 273 273 272 269 267 265 264 260 260 258 257 255 254 253 249 246 244 245 247 249 250 250 249 247 247 249 251 250 250 247 249 250 250 250 251 251 250 251 252 254 255
268 272 266 267 264 265 263 261 258 258 258 257 256 254 253 251 249 245 242 243 244 245 250 245 255 250 248 249 250 251 251 251 250 247 248 249 248 248 248 249 251 252 253 253
260 260 260 258 258 257 256 255 255 253 251 252 251 250 248 244 242 242 240 245 246 249 246 247 245 245 247 248 254 251 249 249 250 248 246 247 248 249 250 252 253 253 249 248
256 256 256 256 254 253 253 253 253 252 249 249 251 250 249 243 240 241 243 246 248 244 244 247 244 248 248 249 251 250 247 247 247 248 247 249 250 251 252 252 252 251 250 247
251 252 253 253 252 249 249 250 251 250 249 248 246 245 247 245 243 243 245 248 248 249 247 248 248 249 251 256 255 254 252 251 250 251 250 250 251 252 253 253 252 250 248 248
251 253 253 252 251 248 247 247 249 250 249 247 249 248 248 250 249 249 249 246 245 247 250 251 253 256 259 258 257 255 255 254 253 254 254 254 254 254 253 253 251 249 248 247
248 248 247 248 248 250 250 248 250 248 249 249 247 245 247 249 247 245 248 249 251 251 251 252 255 262 259 253 255 255 255 255 255 255 255 255 254 253 252 250 248 248 248 247
246 246 248 251 253 253 252 251 251 250 248 246 245 246 246 248 247 247 245 249 252 252 251 254 260 260 251 254 255 255 255 255 255 254 254 253 253 252 250 248 247 248 246 246
250 252 252 253 252 251 251 252 252 250 247 246 245 244 243 243 246 248 248 250 250 253 250 250 250 251 255 255 256 256 255 255 255 255 255 254 253 251 250 249 249 249 248 246
250 251 251 252 251 251 250 250 249 247 243 241 245 245 244 244 245 249 250 250 251 251 250 249 252 254 254 255 255 255 255 254 255 254 254 252 252 250 250 250 249 248 247 247

GFSNGP_sfc_thetae_042.txt.gz
Theta_e
292 291 290 289 289 288 287 289 287 291 288 290 292 291 292 293 292 291 290 290 291 291 291 290 288 287 286 285 285 285 284 284 285 285 285 283 281 279 278 277 276 276 275 275
287 289 287 286 289 289 288 289 290 291 289 295 294 294 291 291 290 289 290 291 291 291 291 289 288 287 286 285 284 285 284 284 285 284 282 280 278 277 276 275 275 274 273 273
284 289 284 280 285 288 289 291 291 287 291 290 289 290 291 292 291 291 291 291 290 290 290 289 288 288 286 285 285 284 283 283 283 282 280 279 277 275 275 274 274 273 272 272
282 281 276 285 284 290 288 288 288 286 287 289 290 290 291 293 292 291 290 289 289 289 289 289 288 287 287 286 284 282 283 282 281 280 279 277 275 274 274 273 272 272 272 271
278 279 284 278 280 284 285 286 287 288 286 284 283 285 286 287 288 291 289 290 290 291 290 288 287 287 285 282 282 282 281 281 280 279 277 275 273 273 273 272 271 271 271 270
277 278 278 285 281 281 286 281 286 288 285 282 282 283 288 284 286 285 286 287 286 287 286 286 285 283 282 282 281 281 282 281 280 278 275 273 273 272 272 271 271 270 270 269
279 279 281 285 280 281 279 284 284 287 286 282 282 287 285 284 283 285 285 285 284 284 283 283 281 281 281 281 280 282 282 279 277 275 273 273 272 271 270 269 269 267 267 268
279 278 277 281 278 280 285 281 283 282 282 282 282 281 282 282 282 282 282 282 283 282 281 282 281 280 280 279 282 279 278 276 274 272 272 270 268 268 267 267 266 266 266 267
283 282 279 282 282 283 284 285 282 282 282 283 281 280 281 281 281 281 282 281 281 281 280 280 280 280 280 281 277 275 274 272 270 269 269 268 267 267 267 267 267 268 268 268
281 278 278 280 281 282 282 282 282 283 282 282 281 281 280 281 281 280 281 280 280 278 278 279 279 278 280 276 274 272 272 270 268 267 267 266 268 268 268 268 268 268 268 268
275 276 278 280 281 282 282 282 281 281 281 282 281 280 280 280 280 281 281 279 278 278 278 279 279 278 277 274 272 272 271 269 269 268 267 268 268 269 268 269 269 268 267 267
277 280 281 281 283 283 282 281 282 281 279 280 281 281 280 280 280 280 279 278 277 277 277 278 276 275 271 270 270 271 270 269 269 269 268 268 268 268 270 271 271 272 273 273
280 282 281 282 283 283 282 282 282 281 281 280 280 280 279 279 279 278 277 276 276 276 275 274 272 271 267 267 268 268 271 270 269 267 268 267 267 266 266 268 269 270 271 272
282 280 279 280 281 281 281 282 280 278 279 279 279 277 278 276 274 275 274 273 271 270 268 268 267 266 265 265 266 265 267 265 268 268 267 267 266 266 265 264 264 265 266 267
280 281 282 281 280 279 278 277 276 277 277 275 274 275 274 273 273 272 267 266 266 264 263 264 263 261 262 262 262 263 264 265 265 265 265 264 264 263 263 263 262 262 262 263
280 278 276 277 279 277 276 274 276 277 276 275 273 272 272 271 267 262 261 262 267 266 260 260 261 259 259 259 260 261 261 260 261 263 263 262 262 262 261 261 261 261 261 261
275 274 271 274 276 276 276 278 278 278 275 273 273 268 264 261 259 258 256 256 259 258 258 260 258 255 255 257 259 262 262 261 259 261 261 261 261 261 261 261 260 260 260 261
275 278 278 279 278 277 275 275 275 273 271 270 266 263 261 261 263 257 255 254 255 255 256 255 254 254 254 255 256 258 259 259 259 258 259 259 259 259 259 259 259 259 259 260
265 268 270 271 268 270 269 268 266 264 263 263 262 261 260 259 258 254 253 255 257 258 255 253 258 255 256 254 255 257 258 257 257 257 257 256 256 257 257 257 258 258 258 258
261 262 262 261 260 261 260 259 259 258 258 258 256 256 254 252 252 252 254 256 256 256 253 254 254 255 254 254 254 258 258 257 257 257 257 257 256 257 257 256 255 257 257 257
256 257 257 257 255 255 255 256 257 256 255 256 257 254 253 250 252 253 256 258 255 253 254 254 255 257 257 256 256 257 257 257 257 257 257 256 256 256 256 256 256 256 257 257
254 254 254 254 253 252 252 254 254 254 254 254 253 252 252 252 251 253 252 257 256 254 255 257 258 256 257 256 258 258 258 257 257 257 256 256 256 256 256 257 257 258 258 258
252 253 253 252 252 251 251 252 252 253 253 253 254 255 257 257 257 258 257 255 256 255 257 258 257 258 260 260 259 258 258 257 257 257 257 257 257 257 257 257 258 258 257 257
251 251 251 251 250 253 252 252 252 252 252 253 253 254 257 257 256 256 256 255 254 255 257 257 258 261 258 258 258 257 257 257 257 257 257 256 257 257 257 257 257 257 257 256
250 251 251 252 253 252 252 252 253 254 254 255 255 255 255 256 257 256 255 255 255 256 257 256 259 259 257 257 256 256 257 257 257 257 257 257 257 257 257 257 256 256 255 255
252 252 253 252 254 255 255 256 255 255 256 255 255 255 254 254 255 255 255 255 255 255 256 256 256 256 256 256 256 256 256 257 257 257 256 256 256 256 256 256 255 255 255 254
254 254 255 254 254 255 255 255 256 255 254 254 255 255 254 254 254 254 254 255 255 255 255 256 256 256 256 256 256 256 256 256 256 256 256 256 256 256 255 255 255 255 254 253

GFSNGP_sfc_thetae_045.txt.gz
Theta_e
293 295 295 291 290 289 287 289 287 291 292 296 293 294 295 295 295 293 292 292 292 292 292 291 290 288 288 288 287 287 286 286 286 287 287 286 285 283 282 281 280 279 278 277
288 293 293 290 292 291 290 290 291 292 293 300 300 297 296 295 294 292 292 293 293 292 292 291 291 290 288 288 287 287 285 285 286 286 285 284 282 280 279 278 278 277 276 276
284 290 289 282 287 290 292 292 292 288 293 294 294 293 293 293 294 293 293 293 293 292 292 292 292 291 289 288 287 285 284 284 284 285 283 282 281 279 278 277 277 276 275 275
285 285 279 290 296 292 292 293 294 293 290 291 291 293 295 297 294 293 293 293 293 293 294 293 293 291 291 288 286 284 284 284 283 283 281 281 279 277 277 277 276 275 274 274
282 283 287 290 283 288 290 290 295 292 289 288 287 289 290 294 295 294 294 294 294 294 294 292 290 289 287 285 285 283 283 283 282 282 280 279 277 276 277 276 275 274 274 273
282 281 280 285 288 290 293 284 292 291 288 285 287 287 291 288 288 290 291 290 289 290 289 287 288 287 284 283 282 282 282 283 283 282 280 278 277 276 277 276 275 274 273 273
283 282 285 286 283 287 282 285 287 290 288 285 287 290 288 287 287 288 287 286 286 286 285 286 284 283 282 282 281 283 283 282 281 281 279 278 277 276 274 273 273 272 271 271
283 280 279 284 281 284 287 285 287 291 289 287 288 284 285 286 285 284 283 283 284 283 282 283 282 282 282 281 283 282 281 279 278 277 277 276 274 273 272 271 270 269 269 269
286 284 281 283 283 286 287 288 285 287 288 288 284 283 283 282 282 282 282 281 282 282 281 281 281 281 281 282 280 278 277 276 275 274 274 273 271 271 270 269 270 270 270 270
283 280 281 282 285 283 284 285 285 285 285 285 283 282 281 281 281 281 281 281 280 280 279 279 280 279 281 279 277 275 275 273 272 271 271 270 271 272 271 271 270 270 271 271
277 278 280 282 283 285 285 283 282 282 283 284 283 280 281 281 281 281 281 280 280 279 279 279 279 279 279 276 274 275 275 273 273 272 270 270 270 271 271 272 273 271 272 271
279 280 284 283 285 286 283 282 282 282 280 281 282 281 281 281 281 281 281 280 278 278 277 277 277 276 275 273 273 274 274 273 273 272 271 271 271 270 274 274 274 274 274 271
281 284 284 285 287 286 283 283 283 282 282 281 281 281 280 280 280 280 278 278 277 276 275 275 274 273 269 269 269 270 275 274 273 271 272 270 270 270 269 272 274 275 275 276
282 282 280 281 281 283 283 283 282 280 281 281 281 278 278 278 276 276 276 275 275 273 270 270 268 265 266 267 267 266 270 267 271 270 271 270 270 269 269 267 267 268 271 271
281 281 282 282 281 280 280 279 277 278 278 276 276 277 276 275 275 275 270 268 267 266 265 265 263 261 263 263 265 266 268 268 268 268 268 267 267 267 266 265 265 265 265 266
281 279 278 279 280 278 277 276 276 278 276 276 274 273 274 273 270 265 264 265 268 268 262 262 261 259 260 261 263 263 264 262 262 265 265 264 264 264 264 264 263 263 263 263
277 276 275 275 277 277 277 278 278 278 276 274 274 272 269 265 262 260 259 260 261 260 261 261 257 256 256 258 262 264 264 263 260 262 263 263 263 262 263 262 262 262 262 264
269 272 275 276 278 278 276 276 275 273 272 271 269 267 264 263 266 259 257 257 257 256 257 256 256 255 255 256 259 261 261 261 260 260 260 260 260 261 261 260 260 260 260 262
264 266 267 267 266 269 269 269 266 265 265 265 265 264 263 261 259 257 257 257 257 258 256 256 263 258 257 257 259 260 260 259 259 259 259 258 258 258 258 258 258 259 259 259
261 262 262 261 260 260 262 261 262 260 260 260 259 258 256 255 255 255 258 258 256 257 257 256 257 258 256 256 259 260 259 259 259 259 259 258 258 258 258 257 257 257 257 258
257 258 258 258 257 256 257 258 259 258 257 258 259 256 254 254 254 256 258 259 255 256 256 256 258 259 259 258 258 259 259 259 258 258 257 257 257 257 257 257 257 257 257 257
255 256 255 256 255 254 254 256 256 256 256 254 253 254 253 254 255 255 254 259 257 256 258 259 259 258 259 259 260 260 259 259 258 258 258 257 257 257 257 257 257 258 258 258
254 255 254 253 253 253 254 254 255 255 255 255 255 257 259 259 260 259 258 256 258 257 259 259 259 260 261 261 260 259 259 258 258 258 258 258 258 258 257 257 257 258 258 258
253 253 253 254 255 256 254 254 255 254 253 254 254 254 258 258 257 258 258 257 257 257 258 259 259 262 260 259 258 258 258 258 258 258 258 257 257 257 257 257 257 257 257 258
253 253 254 255 255 254 254 255 255 255 255 256 256 256 257 257 258 258 258 258 257 258 258 258 260 260 258 257 257 257 257 257 257 257 257 257 256 256 256 257 256 256 256 256
255 255 255 254 256 257 257 258 257 257 258 257 257 257 257 257 257 257 257 256 257 257 257 258 257 257 257 257 257 257 257 257 257 257 257 256 256 256 256 256 256 255 255 255
256 257 257 256 256 257 257 257 258 256 256 257 257 257 257 257 257 256 256 257 257 257 257 257 257 257 257 257 257 257 257 257 257 257 256 256 256 256 256 256 256 256 255 255

GFSNGP_sfc_thetae_048.txt.gz
Theta_e
292 293 292 287 286 287 286 288 285 288 289 293 294 290 291 293 291 291 290 290 289 288 287 286 285 285 284 284 284 284 283 282 282 281 281 281 280 279 279 278 277 277 276 275
288 290 291 289 290 287 288 289 289 290 289 295 297 293 290 291 291 290 290 290 290 289 288 286 285 285 284 284 283 283 283 282 282 282 281 281 279 278 278 277 276 276 275 275
284 287 288 284 289 291 291 290 289 285 291 292 292 290 290 290 291 291 291 291 290 290 289 289 287 286 284 284 283 282 281 281 281 281 282 280 279 277 276 275 275 274 274 274
284 286 279 287 291 293 292 293 293 291 289 289 292 293 292 293 292 291 292 291 291 291 291 289 288 287 286 283 282 282 282 282 281 282 280 278 277 276 275 275 274 273 273 273
283 284 286 288 283 286 287 289 294 294 293 287 287 288 287 291 292 292 291 292 292 292 291 290 288 288 285 283 282 282 282 282 282 281 279 278 277 275 275 274 272 272 272 270
282 281 280 279 281 286 290 283 289 293 291 285 286 285 287 288 289 291 291 290 290 290 289 288 286 286 285 283 282 281 282 282 282 281 280 278 277 275 274 271 273 273 272 270
283 282 283 281 280 284 280 281 281 284 285 285 286 289 289 286 286 288 287 287 287 287 286 285 284 283 281 281 281 282 281 280 279 279 279 278 276 272 273 271 272 270 270 269
282 280 279 280 280 283 283 281 284 284 284 283 282 282 282 283 282 282 282 283 283 283 282 282 282 282 280 280 281 279 278 278 278 278 277 276 274 269 270 270 267 266 266 267
284 283 280 280 281 284 284 283 282 284 284 284 281 280 281 280 280 280 280 281 280 280 279 280 279 280 279 278 278 276 276 276 273 272 273 273 271 269 267 267 268 267 267 267
282 281 280 281 285 283 283 282 281 282 283 282 280 279 279 279 279 279 278 278 277 278 277 276 274 277 276 276 276 275 273 272 271 271 269 268 270 269 269 267 267 267 268 268
276 278 280 282 283 285 284 282 281 281 281 281 279 279 279 278 278 278 279 278 277 278 276 275 274 273 272 273 273 272 271 270 268 268 268 266 267 268 269 267 269 264 265 264
279 281 283 283 286 286 285 282 280 280 279 280 280 279 279 278 278 278 277 275 275 274 273 272 272 270 268 268 270 270 269 269 268 267 266 266 266 264 274 274 275 277 277 270
281 283 284 284 285 284 282 281 281 280 280 280 280 279 278 278 277 277 274 274 273 272 271 271 269 266 264 264 266 265 267 268 267 267 266 265 263 264 262 268 276 277 277 277
282 281 278 279 279 282 282 281 280 278 279 279 278 276 275 274 274 274 273 271 272 269 266 266 263 260 260 260 263 264 263 265 265 262 263 262 262 263 262 261 262 263 269 272
279 280 279 279 278 278 277 276 274 276 275 274 273 274 274 273 271 271 268 266 266 264 263 262 260 258 257 258 261 260 263 261 262 262 261 261 262 262 262 262 259 256 257 264
277 276 275 276 276 275 274 272 273 274 273 272 271 270 271 270 267 264 262 262 264 262 257 259 257 254 254 257 258 258 258 261 260 258 258 259 260 258 258 257 256 256 257 258
274 274 272 272 274 274 273 274 274 274 272 271 270 269 267 264 261 259 257 258 259 258 257 256 253 251 252 254 258 258 258 256 257 255 255 255 254 255 256 255 255 255 257 260
266 268 269 269 270 271 271 269 268 268 266 265 265 265 263 261 261 256 254 255 255 253 252 250 250 250 250 252 258 258 257 255 253 251 254 254 253 255 254 254 254 253 255 256
261 262 263 263 262 263 262 261 261 261 261 261 262 260 258 257 256 253 252 254 253 252 250 250 262 253 253 256 257 258 257 254 252 252 254 255 253 252 251 251 252 251 252 253
258 258 259 258 257 256 257 257 257 256 256 256 256 255 253 251 251 253 251 248 247 250 249 251 254 255 255 256 259 256 255 253 253 254 254 253 251 250 251 252 250 250 248 250
254 255 255 255 254 254 254 255 254 254 253 254 254 252 251 248 250 251 252 252 250 253 253 255 254 255 255 254 255 254 254 254 255 254 252 250 249 249 250 248 248 250 251 251
252 252 253 253 252 252 252 252 252 253 253 252 251 251 251 250 251 252 252 255 255 257 254 254 255 256 255 259 256 256 255 256 255 253 253 249 248 249 249 249 250 251 252 252
249 250 251 251 250 249 249 251 251 252 253 252 253 253 255 255 255 255 254 253 254 256 256 256 257 260 260 258 257 255 254 254 252 251 250 249 250 249 249 251 251 252 251 252
247 248 248 249 249 251 251 251 252 252 253 252 252 253 255 253 253 253 254 256 256 255 256 256 256 263 260 253 252 252 251 251 251 249 249 252 248 249 249 251 252 251 252 253
248 248 249 250 252 251 250 250 251 250 251 251 250 250 251 253 251 251 252 253 257 255 255 257 261 260 251 249 250 250 250 249 248 247 248 248 249 249 250 251 251 251 250 251
248 249 249 249 250 252 252 252 251 251 251 251 251 251 251 251 253 253 253 254 254 255 254 255 254 252 250 250 250 251 251 250 252 251 251 251 250 251 254 254 253 253 253 252
252 253 253 252 254 254 254 254 253 251 251 250 250 252 253 253 254 255 256 255 254 254 255 252 253 254 252 252 251 252 251 251 253 252 250 250 251 254 255 255 255 255 255 255

GFSNGP_sfc_thetae_051.txt.gz
Theta_e
291 290 289 286 286 288 287 289 286 290 289 293 292 290 291 289 288 288 288 288 288 287 286 285 284 283 283 284 284 284 283 282 282 282 281 280 280 279 278 278 277 277 276 275
288 289 289 288 287 287 288 289 290 290 290 294 296 294 289 290 290 289 289 289 289 288 287 285 285 284 283 284 284 284 283 282 282 281 281 280 280 279 278 277 277 276 275 274
285 287 287 284 289 290 291 290 289 285 291 291 292 292 289 289 290 290 290 290 290 288 287 286 286 286 284 284 284 283 283 282 281 282 281 281 281 279 278 277 275 275 274 274
285 286 279 288 293 295 293 294 293 291 291 289 292 293 291 291 291 291 291 291 290 290 289 287 286 286 285 283 283 283 282 282 282 281 281 280 279 279 277 275 275 274 274 274
283 284 286 288 284 287 289 290 296 294 295 295 290 288 288 290 291 293 292 292 292 291 290 288 286 286 284 282 283 282 282 282 282 282 281 280 279 278 277 276 274 274 273 272
283 281 280 283 282 285 291 286 291 294 295 295 287 286 293 288 289 290 290 290 289 289 289 288 287 285 284 283 282 282 282 282 283 283 282 280 280 278 277 276 276 274 274 272
284 283 283 282 281 283 282 283 279 282 286 285 288 291 289 288 288 288 288 288 289 289 288 288 287 285 284 282 281 283 282 281 281 281 281 281 279 276 273 274 273 272 271 271
282 281 279 285 282 284 285 282 283 283 284 284 284 283 284 284 284 285 286 285 285 284 283 283 284 284 281 281 282 279 279 279 280 280 280 278 277 273 273 272 271 270 269 268
284 284 281 282 283 284 284 282 282 284 283 283 282 281 281 281 282 282 283 283 282 283 281 281 280 282 280 278 278 277 277 277 276 275 276 276 275 271 269 270 271 270 269 270
284 284 281 281 285 283 282 281 281 283 284 281 280 280 280 280 280 280 278 278 277 278 277 275 274 276 274 275 275 274 273 271 270 272 268 267 270 271 271 269 269 269 268 268
280 279 281 283 283 285 284 281 281 281 282 282 280 279 280 278 277 278 277 276 276 276 274 273 272 271 269 271 272 271 269 269 269 267 267 267 267 267 268 266 270 265 263 264
281 283 285 284 285 285 285 282 281 280 280 280 280 280 279 278 277 277 276 273 273 271 273 269 270 267 264 265 269 271 269 269 268 267 266 266 266 265 274 274 275 277 276 270
284 283 284 281 285 285 283 281 280 280 281 280 279 278 278 278 277 276 275 274 274 274 273 271 269 266 262 263 267 266 267 267 266 267 266 265 263 264 263 266 277 278 278 278
282 282 281 279 279 283 282 281 280 278 278 278 277 275 275 275 273 273 272 271 271 270 267 265 263 259 260 259 262 262 265 267 266 265 264 263 262 261 260 260 260 261 270 272
279 279 279 279 278 277 277 276 275 276 274 274 272 273 273 273 273 271 267 267 266 265 262 262 260 257 257 259 263 262 264 262 262 261 260 261 261 261 259 259 259 260 262 265
275 276 276 276 276 275 274 274 273 273 272 271 271 271 270 270 267 264 262 261 264 262 258 260 258 256 256 259 259 259 259 261 260 259 258 258 259 258 259 260 257 255 255 257
270 270 269 269 272 272 271 271 272 272 271 270 268 267 266 263 260 259 257 258 259 257 257 257 254 252 252 256 257 256 256 257 258 257 256 258 258 259 256 253 254 253 255 257
264 266 266 266 267 268 266 264 265 264 263 263 263 264 262 261 260 256 254 254 254 252 251 249 249 250 252 253 255 255 255 254 255 256 257 257 256 254 253 253 252 252 253 255
259 260 261 261 260 261 259 259 258 259 259 258 260 257 256 255 255 251 250 252 252 253 251 248 261 251 251 255 255 256 258 257 256 254 254 254 253 250 250 250 249 249 250 251
256 257 257 256 256 255 255 255 255 255 254 255 254 254 252 250 250 251 249 248 246 249 247 248 250 251 253 259 260 257 256 256 256 253 253 254 253 251 251 253 252 250 247 248
253 254 254 254 253 253 252 252 252 252 252 252 253 251 250 247 249 248 250 252 249 249 250 255 255 255 255 256 255 253 253 254 254 252 252 251 250 248 250 247 247 249 250 248
250 251 252 252 252 251 250 250 251 252 252 252 251 251 251 249 249 251 250 252 252 256 255 254 253 255 254 258 254 254 254 254 254 252 250 248 247 248 248 248 249 250 250 250
249 249 252 252 251 248 250 250 251 251 252 251 251 251 252 252 252 253 252 252 252 256 254 255 256 258 259 255 256 255 254 253 252 251 248 247 249 248 249 250 250 250 249 250
248 250 249 247 248 252 251 247 248 248 249 249 250 251 252 252 252 253 254 255 256 255 253 254 257 263 260 252 252 251 250 249 249 247 248 251 247 248 248 249 250 251 250 250
248 247 248 249 252 250 247 246 248 247 248 248 248 249 249 250 250 250 250 253 257 254 253 256 261 260 251 249 249 250 250 248 248 247 248 247 248 248 249 249 249 250 250 251
248 249 248 248 248 249 249 249 249 248 248 248 248 249 249 250 252 251 251 253 252 254 252 252 251 251 252 253 253 253 252 252 253 252 251 250 249 249 249 250 250 251 251 253
252 251 249 249 251 250 248 249 248 248 248 247 249 249 250 249 250 252 252 251 252 252 251 250 252 254 252 253 254 254 254 253 253 252 250 250 250 250 250 251 250 251 254 254

GFSNGP_sfc_thetae_054.txt.gz
Theta_e
291 291 288 287 286 288 287 289 287 290 290 295 293 291 292 291 288 287 286 286 286 285 285 285 285 284 284 284 284 284 283 282 282 282 282 281 280 280 279 278 278 278 277 276
288 290 288 286 286 288 289 290 290 291 291 295 295 292 290 291 289 288 288 288 287 287 286 285 284 284 284 284 283 283 283 282 282 281 281 281 280 279 279 278 277 277 277 276
285 289 286 283 289 287 288 290 290 287 292 294 294 293 292 291 289 290 290 289 288 287 287 286 285 285 283 284 283 283 283 283 282 282 281 281 280 280 279 278 278 277 276 275
286 286 279 289 295 295 292 292 292 291 293 292 294 296 295 292 290 290 291 290 290 289 288 287 286 285 284 283 283 283 283 283 282 282 281 281 280 279 279 278 277 277 276 276
283 284 286 287 284 288 289 290 296 294 295 297 296 287 293 291 292 293 292 292 292 291 289 288 286 285 284 282 283 283 282 283 282 282 282 280 280 279 279 278 277 276 277 275
283 282 280 285 284 287 291 286 292 294 295 295 290 287 294 295 289 289 291 289 288 288 286 285 285 284 283 282 282 282 283 283 283 283 283 281 281 280 280 279 278 277 276 275
284 284 284 283 281 285 285 285 278 281 284 286 289 292 287 286 286 286 287 287 287 287 286 285 284 284 283 282 282 283 284 283 282 283 283 283 282 281 280 278 277 275 274 273
284 282 280 285 282 285 286 281 282 282 283 285 284 283 283 284 284 285 285 285 285 285 284 284 284 284 283 282 283 284 283 282 282 282 282 282 281 280 277 276 274 272 270 269
284 285 284 284 284 284 284 282 283 284 283 283 282 282 282 282 283 283 283 283 282 282 281 281 281 282 280 278 278 278 279 279 279 279 279 279 278 274 270 272 273 272 271 272
285 285 284 282 283 284 284 282 282 284 282 282 281 281 281 281 281 281 278 278 277 279 278 276 275 277 277 277 277 277 277 274 273 275 271 271 273 273 273 272 272 272 269 270
283 283 283 285 284 286 282 282 281 281 282 281 281 281 280 279 277 278 277 276 277 278 277 274 274 273 270 273 274 273 271 270 270 270 270 268 269 270 272 267 272 267 267 266
282 285 287 286 286 285 283 282 281 281 280 280 281 280 279 278 277 276 276 273 274 272 274 270 272 270 269 268 272 272 270 269 269 269 268 268 267 264 275 274 276 277 276 268
285 285 284 283 284 286 286 283 281 281 281 279 278 278 278 277 276 276 275 274 274 273 272 271 270 267 265 265 267 268 269 268 266 267 266 265 263 266 265 267 277 277 278 279
282 283 281 279 281 284 283 282 280 278 277 278 277 275 275 275 273 273 272 270 271 270 267 266 264 261 260 259 263 263 262 265 264 263 263 263 262 261 261 261 261 260 269 272
277 279 280 279 279 278 278 277 277 276 275 274 273 274 274 274 272 270 267 266 266 264 262 262 261 258 258 258 263 262 264 262 261 260 260 261 261 260 259 259 257 256 258 265
275 276 276 276 275 275 275 274 274 273 272 271 272 272 271 269 266 263 262 261 265 262 257 259 258 255 255 258 259 259 259 261 260 259 259 259 260 259 258 258 257 259 258 257
270 270 269 269 271 270 268 269 270 270 269 268 267 266 264 263 261 259 257 257 258 256 255 256 253 252 252 254 257 256 257 257 258 257 256 256 255 257 257 255 254 251 253 256
264 265 265 265 267 267 265 263 264 263 262 262 263 263 262 260 259 255 252 252 253 252 251 248 248 249 252 252 254 254 255 254 254 254 255 256 257 255 254 254 252 252 253 255
259 260 260 261 261 261 259 259 258 259 259 259 259 256 255 255 254 250 249 252 252 252 251 248 261 252 252 255 254 255 255 255 255 255 256 256 254 251 252 251 250 249 250 251
256 257 256 256 255 255 255 255 255 255 254 254 254 254 252 250 249 250 248 247 246 249 247 247 249 250 251 255 257 254 255 255 255 253 253 252 252 250 250 251 250 249 246 245
253 254 254 254 253 252 252 252 252 252 252 252 253 252 250 246 247 247 250 252 249 247 248 252 251 252 253 254 255 252 253 254 254 254 252 251 250 249 250 248 247 248 247 247
250 251 252 251 251 250 249 250 251 252 252 252 251 251 251 249 249 250 247 250 249 254 251 251 253 255 255 258 254 253 252 252 252 251 250 249 248 249 248 248 247 248 248 247
248 249 251 251 250 248 249 250 250 250 251 251 251 250 251 251 250 252 251 250 249 253 252 252 254 258 259 253 252 252 252 252 252 253 251 250 251 249 248 248 248 249 247 248
249 249 248 246 248 251 250 247 247 247 248 248 248 247 250 250 251 250 252 254 255 254 253 253 255 264 261 252 251 251 251 251 251 250 251 253 251 251 250 249 250 249 248 249
248 248 249 250 251 249 247 245 248 249 249 248 248 247 247 249 249 249 248 251 255 253 252 255 261 261 251 249 249 249 249 248 248 247 249 250 250 249 249 248 248 249 248 248
250 249 250 249 249 250 249 250 249 247 246 247 246 247 248 247 249 250 250 252 251 253 251 250 250 249 249 249 249 250 251 251 251 251 250 251 251 250 249 249 249 250 249 249
251 251 250 251 250 249 247 247 247 246 245 244 246 245 247 248 249 250 250 250 250 250 249 249 250 252 250 251 251 252 252 253 254 254 252 251 252 251 251 250 250 249 250 250

GFSNGP_sfc_thetae_057.txt.gz
Theta_e
290 288 286 285 285 287 287 288 285 289 288 293 295 291 294 292 290 287 286 285 285 285 284 285 285 285 285 285 284 284 284 283 283 283 283 282 281 280 280 279 279 279 278 277
286 289 288 286 286 287 288 290 290 290 290 295 294 292 290 293 291 288 288 288 287 286 285 285 285 285 285 284 284 284 284 283 283 282 282 281 280 280 279 279 278 278 278 277
284 288 287 283 287 289 289 291 291 287 292 293 295 293 294 294 291 290 290 290 288 287 286 286 286 286 284 284 284 283 283 282 282 282 281 281 280 280 279 278 278 278 277 277
285 286 279 289 295 294 291 292 292 293 294 294 294 296 295 293 292 291 292 291 289 289 288 287 286 285 285 284 283 283 283 282 282 282 281 281 280 279 279 279 278 277 277 277
284 284 287 288 288 288 289 290 295 292 294 295 295 288 294 292 293 295 292 293 292 291 289 287 286 285 283 282 282 283 282 282 282 282 282 280 280 279 279 279 278 278 279 278
283 281 280 287 287 290 293 287 296 295 295 295 292 288 295 293 290 291 291 290 289 287 286 285 284 283 282 281 281 282 283 283 283 283 282 281 281 280 280 280 279 279 278 278
284 283 285 284 281 287 285 286 280 288 294 292 290 293 287 287 287 286 286 285 286 285 284 283 283 282 281 281 281 283 283 283 282 282 283 282 282 281 281 280 279 278 278 278
285 283 281 284 284 286 287 283 282 282 284 285 286 285 284 285 284 284 284 284 283 282 281 281 282 282 280 281 282 282 282 282 282 283 283 283 283 282 281 280 279 278 277 276
285 285 291 286 288 287 285 284 284 284 285 285 284 283 282 283 283 283 282 283 282 281 280 280 279 281 280 281 283 284 283 283 284 284 284 284 283 282 280 279 279 277 275 275
285 286 285 284 283 284 283 283 282 284 283 282 283 283 282 282 282 281 277 277 276 279 277 276 276 278 278 278 280 282 281 280 279 280 279 280 281 279 277 276 276 275 274 274
282 284 284 284 283 285 283 282 282 283 283 282 282 282 282 279 277 277 276 275 276 279 277 274 274 273 273 274 277 276 275 273 273 274 274 272 272 274 275 273 277 274 272 270
281 283 285 285 285 285 282 282 282 282 281 280 281 281 280 279 278 277 276 274 276 275 275 271 271 269 268 268 272 273 271 270 271 272 271 272 271 269 276 275 278 278 276 270
286 284 282 283 284 286 283 283 282 281 281 280 279 278 278 277 276 276 275 275 275 273 271 270 268 266 265 266 269 271 272 270 269 269 268 268 266 268 267 271 278 278 279 279
283 284 283 281 282 285 286 283 281 279 279 278 277 277 276 275 274 273 271 269 271 269 267 267 266 262 261 263 266 266 265 266 265 264 265 264 264 264 264 266 266 262 273 274
277 279 281 281 280 279 279 278 278 276 275 275 275 276 276 274 272 270 267 266 266 265 263 264 263 260 259 261 264 263 264 262 262 261 260 262 261 261 260 260 259 256 257 264
272 275 276 276 275 275 275 276 275 274 273 272 272 271 270 269 266 264 263 263 265 262 258 260 258 255 256 257 260 260 260 261 260 260 259 260 260 260 259 259 257 257 256 256
269 270 269 270 271 270 269 270 271 270 270 269 267 266 265 263 261 259 256 257 257 255 255 256 253 253 253 254 258 257 257 257 259 257 257 256 256 257 257 256 256 252 253 258
264 265 266 266 268 268 266 264 264 264 263 263 263 264 263 262 257 253 251 251 253 253 251 250 248 250 253 253 254 254 255 254 254 254 255 256 254 255 255 255 254 255 253 255
259 260 260 260 260 260 259 259 258 259 259 259 259 256 256 254 253 250 249 254 254 254 252 251 262 254 254 256 254 255 255 255 254 252 253 253 252 250 251 251 251 250 251 252
257 257 257 257 255 255 255 255 255 255 254 255 254 254 252 250 248 250 249 247 245 247 246 247 251 252 253 254 256 253 253 253 253 251 251 250 250 249 250 252 250 249 249 249
255 256 255 255 253 252 252 252 253 252 252 253 253 251 249 245 246 246 251 253 250 246 248 251 251 251 252 253 253 250 250 251 250 250 249 249 250 249 250 248 248 249 248 247
252 253 253 252 252 251 250 250 252 252 252 252 250 250 251 249 249 250 246 250 249 253 250 250 251 254 253 255 251 250 250 250 249 249 248 248 248 249 248 248 247 248 249 248
250 250 251 250 250 247 249 249 250 251 251 251 251 250 251 250 250 252 251 250 248 252 250 251 254 257 258 252 250 250 250 250 250 250 250 249 251 250 249 249 248 249 248 248
250 250 249 247 249 252 250 248 249 248 249 249 249 248 249 250 251 249 250 251 252 252 251 251 254 263 260 251 249 249 249 248 249 247 248 251 246 247 246 247 248 248 248 249
250 251 251 252 251 250 249 247 250 250 249 248 248 248 247 248 249 248 247 249 254 251 250 253 260 258 249 247 247 248 248 247 246 246 247 247 248 248 249 249 249 249 248 250
251 250 250 250 250 251 250 250 249 247 246 247 246 246 247 247 248 248 248 251 249 251 249 249 248 248 248 248 247 248 250 250 251 250 250 250 250 250 251 252 251 252 251 251
251 252 252 251 250 249 247 248 248 246 244 242 245 245 246 247 248 250 250 250 250 249 249 247 249 250 249 249 249 251 251 251 252 252 251 250 250 250 251 251 250 252 252 252

GFSNGP_sfc_thetae_060.txt.gz
Theta_e
288 288 285 285 284 286 286 288 283 288 287 292 293 292 293 293 290 290 288 286 285 285 285 285 285 286 287 287 286 285 286 285 285 284 284 283 281 280 280 279 279 279 279 278
285 288 288 286 286 287 287 289 289 289 289 295 294 292 290 293 295 292 289 289 288 286 285 285 286 286 286 286 285 285 285 284 285 283 283 282 281 280 280 279 279 279 278 278
284 287 285 282 286 288 287 289 289 286 291 295 294 292 295 294 292 291 292 292 290 288 287 287 286 287 286 286 285 284 283 282 282 283 282 281 280 280 279 279 279 278 278 278
285 284 278 288 293 293 291 291 292 292 293 295 296 296 295 297 294 292 293 292 291 290 289 288 287 286 286 285 283 283 283 282 282 282 282 281 280 280 279 279 278 278 278 278
283 284 286 286 287 287 288 289 295 293 294 296 297 288 293 294 294 296 294 293 294 292 290 287 286 286 284 282 282 283 282 282 282 283 282 281 280 279 279 279 278 278 279 278
283 281 278 285 284 289 292 286 293 294 295 294 292 287 293 291 289 291 290 289 289 289 286 284 283 283 282 281 281 281 282 282 282 283 282 281 281 280 280 279 279 278 278 279
284 283 285 284 282 287 284 285 281 284 291 290 288 294 289 286 286 286 286 286 285 284 284 283 282 282 281 280 280 281 281 281 282 282 282 282 281 280 279 279 279 278 278 278
284 282 281 284 283 285 287 283 283 283 285 286 287 287 286 284 284 284 283 282 282 281 280 280 280 281 279 279 279 279 280 280 281 282 282 282 281 280 280 280 279 278 278 278
286 285 289 286 285 287 286 287 285 285 286 285 284 284 283 283 282 281 281 282 280 279 278 278 277 279 278 277 279 279 280 281 282 282 282 282 282 281 280 281 280 279 278 278
282 285 287 286 285 283 283 284 283 284 284 283 283 283 282 282 282 281 277 277 277 278 277 275 276 278 279 280 283 283 282 282 282 282 282 283 283 282 283 281 280 280 278 278
282 284 285 285 283 283 284 282 282 282 283 283 282 282 282 280 278 277 276 275 276 278 276 274 274 274 275 277 280 280 279 278 280 280 281 279 277 279 279 275 281 279 278 277
281 285 285 285 283 284 283 282 282 281 281 281 282 282 281 278 278 277 277 276 277 276 274 272 272 271 271 273 276 276 274 274 274 274 273 273 273 271 278 278 280 280 279 274
283 283 282 283 283 283 282 281 281 281 281 280 279 279 279 277 277 277 276 276 275 273 271 270 268 266 265 269 273 272 272 270 270 271 271 270 270 271 271 276 280 280 279 277
281 283 284 282 284 284 285 284 282 280 280 280 279 278 277 275 274 273 272 272 272 270 268 266 265 263 262 266 269 268 268 268 268 267 267 266 268 268 269 271 271 267 277 278
275 278 280 280 279 279 279 280 280 277 276 275 276 276 276 273 271 269 269 268 267 266 265 265 263 260 261 264 266 265 266 265 264 264 263 264 264 264 264 264 264 260 262 266
271 273 275 277 276 275 276 276 275 274 273 272 272 271 269 267 265 264 263 266 268 263 262 262 260 258 258 262 261 261 262 263 261 261 260 260 261 260 259 259 259 259 258 256
268 270 274 275 274 272 271 272 273 272 271 269 268 268 266 264 263 260 259 258 258 256 256 256 254 253 255 257 258 256 257 257 258 258 257 256 256 258 258 257 257 254 253 256
265 267 267 269 269 268 265 265 266 266 265 266 266 266 264 262 259 257 256 257 257 256 254 255 254 254 255 255 255 255 255 254 255 253 255 255 254 255 254 255 253 254 255 256
259 261 261 262 262 262 260 260 259 260 260 261 260 257 257 256 255 253 253 255 255 255 251 250 263 256 256 258 254 255 255 255 254 252 253 253 252 250 251 252 251 250 251 253
257 258 258 259 257 258 257 257 256 255 254 255 255 254 251 249 248 250 251 249 246 248 245 247 251 252 252 253 255 252 253 253 253 250 250 250 250 248 250 250 250 249 248 248
256 257 257 256 255 255 255 255 255 254 252 253 254 252 250 245 246 247 252 253 250 248 249 251 252 252 251 252 252 250 250 251 251 249 248 248 248 248 249 247 248 249 248 249
256 256 255 255 254 253 253 253 253 253 253 252 251 251 252 251 252 251 247 251 249 252 250 250 250 253 252 254 250 249 249 249 248 247 247 246 247 248 248 248 249 249 249 248
253 254 254 253 252 252 252 252 251 252 252 252 252 252 252 251 251 254 252 251 248 251 249 250 255 257 255 250 248 248 248 249 249 249 248 247 248 247 247 248 248 248 247 248
253 253 252 254 254 253 251 251 252 252 252 251 251 250 252 253 253 251 252 253 253 252 251 253 258 261 254 250 249 248 248 247 248 246 247 250 246 246 246 247 248 248 248 248
252 252 253 253 252 251 251 251 252 252 252 251 250 250 250 251 253 249 249 250 254 251 251 253 258 257 247 245 246 247 247 246 246 244 246 246 247 247 247 247 248 249 248 249
252 251 251 250 251 252 252 253 251 251 253 252 250 249 249 249 251 251 250 250 249 251 249 249 247 247 247 247 246 247 249 249 250 250 249 249 248 248 248 249 250 251 251 250
253 253 253 252 251 252 252 253 252 250 249 249 248 247 247 246 247 249 249 249 249 249 247 246 248 249 247 247 248 250 250 250 251 251 250 250 250 250 251 251 251 250 250 250

GFSNGP_sfc_thetae_063.txt.gz
Theta_e
289 288 286 286 284 286 286 287 284 287 287 291 292 292 294 295 292 291 291 289 288 288 287 287 287 288 289 290 289 288 288 289 289 287 287 286 284 282 282 281 281 281 281 280
286 289 290 287 286 285 287 288 288 289 288 296 296 293 291 293 296 295 293 292 292 291 288 286 287 287 288 288 288 288 288 287 288 286 285 284 283 282 281 281 280 280 280 279
283 288 287 282 287 288 289 289 289 285 290 295 294 292 294 293 293 293 293 295 293 292 290 289 288 288 287 288 288 286 287 286 285 285 284 283 282 281 280 280 279 279 279 279
284 285 277 288 294 292 291 291 292 292 294 295 295 294 294 296 295 294 293 294 295 294 292 290 289 287 288 287 286 285 286 285 285 284 283 283 282 281 281 280 279 279 279 279
282 282 286 287 287 286 287 288 294 292 294 295 296 289 294 298 295 297 297 295 294 294 293 290 287 286 285 284 284 284 284 284 283 283 282 281 281 280 280 280 279 280 280 279
283 279 277 285 288 288 291 285 293 294 294 294 292 287 294 291 290 291 290 289 289 289 289 287 285 284 284 283 282 282 283 283 283 282 281 280 282 281 281 280 280 279 279 279
283 281 284 289 285 288 284 284 281 284 291 288 289 294 291 287 289 287 286 286 286 285 285 285 283 282 281 281 281 281 281 281 281 282 281 281 281 281 280 279 279 279 278 279
283 280 278 289 286 287 290 286 286 285 286 288 289 289 289 286 286 286 284 284 283 282 281 280 280 280 279 279 280 280 280 279 279 279 281 281 279 280 280 280 279 278 278 277
285 284 290 287 290 289 286 285 285 284 286 285 284 285 285 284 283 283 282 282 279 278 278 278 277 278 278 277 278 278 278 278 279 280 281 281 281 280 279 280 279 278 278 278
281 282 284 287 289 286 286 286 285 284 284 284 283 283 283 283 282 281 277 277 276 275 275 275 275 277 276 277 277 279 279 280 281 281 281 282 282 281 281 280 280 279 279 279
281 286 287 289 286 286 286 285 283 282 283 282 282 283 282 280 278 278 278 277 278 278 275 274 275 275 276 278 284 283 282 281 282 282 282 281 281 282 281 282 283 282 282 282
282 284 286 287 284 285 285 284 283 281 280 280 280 281 280 278 278 278 278 277 276 275 273 272 272 271 273 277 280 280 278 279 279 279 279 278 277 275 281 282 284 283 282 280
283 283 284 284 284 284 284 282 280 280 280 279 279 280 279 277 276 277 275 275 273 272 271 270 269 268 269 273 277 277 276 274 274 274 275 274 274 274 274 278 282 280 279 280
283 283 283 284 284 282 284 283 282 281 280 281 280 277 277 275 274 273 271 271 270 269 268 267 266 264 265 270 272 271 270 270 271 270 271 271 271 271 273 275 275 274 279 278
279 280 281 280 279 279 280 281 280 278 277 276 277 276 273 272 270 269 269 269 268 266 266 265 264 262 264 268 270 270 270 268 267 267 267 268 268 268 268 269 268 265 267 270
272 271 272 274 275 274 277 277 277 274 274 273 272 269 268 267 266 264 264 266 266 262 262 262 260 260 262 266 265 264 264 265 264 263 263 263 263 264 263 264 263 263 262 261
268 268 267 268 270 271 271 273 275 273 271 269 268 267 265 264 263 261 259 259 259 258 258 259 259 260 260 262 262 261 261 261 260 260 259 259 260 261 261 261 261 260 260 260
263 265 265 267 270 270 268 267 268 268 266 268 268 267 266 264 261 259 259 260 259 257 256 257 259 259 259 259 260 260 260 259 258 258 258 258 257 258 258 258 257 258 257 258
261 261 261 262 262 263 262 262 261 262 261 263 262 259 259 259 259 258 259 258 258 258 254 254 263 257 259 261 258 258 257 257 255 254 254 254 254 253 254 255 254 254 255 256
258 259 258 257 257 258 258 258 258 256 255 258 257 256 253 252 252 253 253 250 249 252 250 251 252 253 253 254 257 255 255 254 254 251 252 252 252 252 252 252 252 252 251 252
257 257 257 257 256 256 256 258 257 254 254 255 255 253 251 249 249 247 252 253 251 247 248 251 251 252 253 253 253 251 251 252 251 250 249 249 249 249 251 248 249 251 250 251
256 256 256 256 255 254 255 256 256 256 255 253 253 253 253 252 252 251 250 251 250 252 251 251 251 252 252 254 252 251 250 250 248 248 247 246 247 248 248 249 249 250 250 250
254 254 254 254 253 253 254 254 254 254 253 253 253 253 252 252 252 255 254 253 252 253 252 251 257 258 254 252 249 248 248 248 249 249 248 247 248 248 248 250 249 249 249 249
253 254 254 255 256 254 252 253 253 253 253 253 252 253 255 254 253 252 254 255 255 254 253 256 259 260 253 248 248 248 247 246 247 246 247 249 245 246 246 248 248 250 249 249
253 254 255 254 253 252 253 254 254 254 253 252 252 252 253 254 254 252 252 252 255 252 251 253 257 255 246 244 245 246 246 245 245 244 245 245 247 246 247 247 248 249 248 249
252 252 252 252 253 254 254 254 253 253 254 252 250 251 251 251 252 252 251 251 250 251 248 248 247 246 246 246 246 246 248 248 249 249 248 248 248 248 248 249 249 250 251 250
253 254 253 252 252 252 253 253 252 251 252 252 249 248 249 249 249 249 249 249 248 248 246 244 247 248 246 246 247 248 248 248 250 250 247 248 249 249 250 251 251 251 252 251

GFSNGP_sfc_thetae_069.txt.gz
Theta_e
291 293 293 293 292 292 289 290 286 290 291 295 298 300 301 303 303 303 303 304 305 304 306 306 304 302 302 302 303 303 302 301 301 302 302 301 299 296 292 290 287 286 284 284
286 290 291 288 292 293 293 293 292 293 292 300 301 302 301 302 302 302 303 303 305 305 305 303 304 302 302 301 301 301 301 299 299 299 297 295 293 290 288 286 285 284 283 282
282 288 286 282 288 291 293 295 294 289 295 299 299 300 301 303 304 303 303 304 304 305 305 305 304 302 302 301 300 298 297 295 294 293 292 291 289 287 286 285 284 283 282 282
281 283 276 288 295 295 293 295 297 296 297 299 300 302 303 305 304 304 304 304 305 305 306 306 304 303 302 299 297 295 294 292 291 291 290 289 287 286 286 285 283 282 282 282
278 278 283 286 290 290 289 289 297 297 299 300 302 302 302 305 306 305 305 304 301 300 299 298 298 298 294 292 292 292 291 291 290 290 288 287 286 285 285 284 283 283 283 282
282 277 275 285 291 295 295 284 292 294 294 294 297 293 298 300 299 299 299 297 296 295 295 293 293 290 289 289 289 289 289 289 290 288 287 286 286 285 285 284 283 282 282 282
280 278 282 291 292 294 282 284 289 290 292 293 292 295 297 297 297 298 295 293 293 292 289 288 287 286 286 287 286 287 287 287 286 287 286 286 286 285 284 282 281 280 280 281
282 278 276 292 290 286 288 291 290 290 292 290 292 291 292 294 293 292 291 289 288 286 286 285 285 285 285 285 285 285 284 284 284 285 285 285 284 283 283 281 280 279 278 279
284 284 291 292 292 294 294 292 292 291 292 291 290 288 289 289 289 289 287 285 284 283 283 282 282 283 284 282 283 282 282 281 283 283 284 284 283 282 281 281 280 279 278 278
282 285 287 289 292 294 293 292 293 292 292 290 288 288 286 286 286 285 284 282 282 282 280 279 281 281 281 281 282 281 281 281 282 282 282 283 283 283 282 281 281 279 279 279
284 286 288 291 293 294 293 293 291 292 291 288 287 286 286 286 284 283 282 281 281 279 278 277 279 279 281 283 282 282 281 282 283 283 283 282 283 283 283 283 283 282 282 282
280 286 287 288 291 294 291 291 292 290 289 286 285 285 285 284 283 282 281 280 278 277 276 276 277 276 278 281 282 282 281 282 282 283 283 283 282 282 285 285 285 285 285 284
286 289 289 291 292 293 290 291 290 288 286 285 284 283 283 282 281 280 279 277 276 275 275 276 275 274 274 278 284 284 283 282 282 281 281 281 281 281 278 281 284 284 286 286
290 289 286 288 287 290 290 289 286 284 284 284 283 281 281 279 278 277 276 275 274 273 272 273 272 270 272 278 281 280 281 282 282 281 281 281 281 281 280 279 278 278 280 280
287 287 287 288 285 284 284 284 283 283 283 282 281 281 279 277 274 273 271 271 270 270 269 270 269 268 270 274 276 278 278 277 278 278 279 279 279 279 280 279 277 276 277 277
276 279 280 280 281 281 281 281 282 283 282 281 278 275 274 272 270 268 268 269 272 267 266 266 266 266 268 272 274 274 272 273 275 275 275 275 276 275 276 276 276 276 277 273
270 275 270 273 273 275 277 277 277 278 279 276 275 271 269 267 266 265 264 264 264 264 265 264 264 265 267 269 272 271 271 271 272 272 272 272 273 273 273 274 273 273 268 270
265 266 268 268 268 269 272 272 271 271 272 273 270 269 267 268 266 263 263 263 262 261 260 263 265 266 266 267 269 269 269 268 268 268 268 268 268 269 269 269 269 268 267 268
262 263 264 264 264 264 266 267 266 266 267 269 269 265 264 264 264 264 265 264 263 261 258 261 265 263 263 267 268 268 268 267 266 266 266 267 266 266 266 266 266 265 265 265
260 261 262 261 261 260 261 262 263 262 263 264 263 261 259 259 259 258 257 255 255 256 259 261 262 262 262 262 266 265 265 265 264 263 263 263 263 263 262 261 262 262 262 262
258 259 259 259 258 258 258 260 261 260 259 261 261 259 257 258 259 261 260 257 257 258 261 261 260 261 261 262 263 263 263 262 261 261 261 261 262 262 261 261 260 261 260 260
257 257 257 257 257 256 257 259 259 259 258 258 258 258 258 257 257 257 258 258 259 261 262 261 261 259 260 261 262 261 261 261 261 261 261 260 260 260 260 260 259 259 259 259
256 257 256 256 256 256 256 256 257 257 257 258 258 258 258 258 261 259 257 260 261 262 262 262 262 261 260 260 260 260 260 260 260 260 260 259 259 258 258 258 258 258 257 257
256 257 257 257 258 257 255 255 256 256 256 256 255 257 258 256 256 259 259 259 259 259 260 260 261 261 259 259 259 259 259 258 258 258 258 256 257 257 256 256 256 256 256 255
256 257 257 257 256 256 256 256 256 255 255 254 254 255 256 257 256 256 257 257 258 258 257 257 259 258 257 257 257 256 257 257 256 255 255 255 255 254 255 255 254 255 255 255
255 255 255 256 257 257 257 257 256 256 255 253 253 254 254 255 255 256 256 255 256 256 255 255 255 255 255 255 254 255 255 255 255 255 254 254 254 254 254 254 254 255 255 255
256 256 256 255 255 255 256 256 255 254 254 254 252 253 253 253 254 254 254 254 254 254 254 254 254 254 253 253 253 253 253 254 254 253 253 253 253 253 253 253 253 253 254 254

GFSNGP_sfc_thetae_072.txt.gz
Theta_e
289 289 290 289 289 291 289 289 285 287 287 291 294 294 297 299 297 297 298 298 298 298 299 299 298 297 297 297 298 298 298 298 299 298 298 297 294 292 288 287 285 285 284 284
281 287 288 285 288 289 290 291 291 291 289 296 297 298 298 298 298 298 299 300 300 299 299 299 299 298 298 297 296 297 298 298 297 293 292 291 290 289 287 285 284 283 283 283
277 283 282 280 284 287 289 291 291 287 292 296 296 297 297 297 299 299 301 301 300 300 300 299 299 299 297 296 295 293 292 290 288 289 289 288 288 286 285 284 282 282 282 282
275 276 271 283 290 291 290 292 293 294 295 296 296 297 299 300 299 299 300 299 298 296 296 296 295 295 294 291 290 289 289 287 285 287 287 285 284 284 283 282 282 281 281 281
269 267 276 281 284 283 284 284 291 291 292 292 293 293 295 296 296 295 295 295 294 293 293 292 292 289 286 286 287 287 288 287 285 285 284 284 283 282 281 281 280 283 283 281
270 269 264 280 286 291 290 281 287 288 289 289 290 285 290 292 293 293 293 292 290 290 289 287 285 284 284 284 284 285 286 286 286 283 282 282 282 281 280 280 283 282 282 282
276 275 277 284 285 289 277 279 283 285 288 289 287 291 293 293 292 291 290 289 288 286 285 283 283 283 283 282 281 283 282 282 281 281 280 280 279 279 280 282 281 281 280 281
279 276 272 288 284 283 284 285 286 286 289 288 291 292 291 291 290 289 287 286 284 282 282 281 282 281 281 280 281 279 279 279 278 277 279 280 282 282 281 281 280 279 279 279
276 275 287 288 285 288 290 288 287 289 289 291 289 289 289 289 287 285 285 284 282 279 279 280 279 278 279 280 280 279 279 276 275 276 277 278 278 280 280 280 279 278 278 277
277 281 283 285 286 286 290 290 290 289 288 289 288 288 286 286 285 284 280 279 278 277 276 275 276 279 277 278 278 279 279 279 277 277 277 278 279 278 278 279 279 278 278 278
277 282 282 284 285 287 289 288 287 288 288 289 288 286 284 284 282 281 279 278 276 275 276 276 276 277 279 278 278 278 279 280 281 281 281 280 280 278 277 277 279 279 280 280
276 282 283 283 286 286 287 287 287 286 285 285 285 284 282 281 281 279 278 276 275 274 273 273 273 272 273 278 276 275 278 280 281 281 279 276 277 281 285 284 285 285 285 283
282 285 285 286 286 285 286 286 286 286 285 284 282 282 279 279 279 278 276 274 273 272 272 274 273 273 273 276 282 282 281 280 280 278 277 278 278 279 277 281 285 286 286 286
284 284 283 284 284 284 285 285 283 280 279 280 279 277 276 274 272 272 274 273 273 272 269 270 271 270 270 273 279 281 281 281 280 279 278 278 277 276 276 276 275 275 281 282
278 276 278 280 281 280 280 279 277 278 279 281 276 277 279 278 275 271 271 271 271 269 268 267 267 266 268 272 273 274 275 276 277 277 278 278 278 279 278 276 274 274 274 276
270 272 273 273 275 274 275 275 275 276 277 281 280 276 274 272 270 268 267 267 269 264 264 265 265 265 267 269 271 272 272 274 275 275 275 275 275 274 274 273 273 273 270 269
266 269 266 265 268 269 269 271 271 271 271 271 273 272 270 268 266 265 264 264 263 262 262 264 264 265 266 269 271 271 271 271 271 271 270 270 271 271 272 271 268 266 266 269
263 264 265 265 265 265 265 265 265 265 265 268 266 266 263 266 266 263 262 262 261 260 260 261 264 264 267 268 269 269 268 268 267 267 267 267 267 267 267 267 266 264 264 267
259 260 262 262 262 261 260 261 261 261 261 263 262 260 260 261 262 262 262 261 260 259 258 261 266 263 263 268 267 267 267 266 265 265 265 265 263 263 263 263 262 261 260 260
256 257 258 258 258 256 256 257 258 258 259 260 257 259 257 258 259 258 257 255 256 257 260 261 262 261 262 263 265 264 264 263 262 262 262 261 261 261 260 260 258 256 254 254
253 255 255 255 255 254 255 256 257 255 257 259 259 258 258 259 259 260 258 257 258 260 261 260 260 261 262 262 262 261 261 260 260 259 259 258 258 257 256 254 253 255 253 254
251 251 253 252 253 252 254 255 257 258 258 258 258 258 257 257 257 258 259 258 260 263 261 261 260 261 261 262 261 260 260 259 259 259 258 257 257 257 255 254 253 253 252 251
250 251 252 251 251 251 253 255 255 256 256 256 257 257 256 256 259 258 256 259 261 261 261 262 262 261 260 260 259 259 258 258 258 258 257 256 256 254 253 252 251 251 250 250
249 250 251 253 255 255 254 254 255 255 255 255 255 255 257 256 256 258 259 259 259 259 260 260 261 261 258 257 257 257 257 256 257 256 254 256 252 251 250 249 249 249 249 249
250 251 252 253 255 255 256 256 255 255 254 254 254 255 255 256 256 256 257 256 258 257 257 258 259 258 255 255 255 255 254 254 252 250 250 249 248 248 247 247 247 247 246 246
249 249 250 252 253 256 256 256 255 255 255 253 253 254 254 255 255 255 256 256 256 256 255 255 254 254 254 254 254 253 253 253 252 250 249 247 246 247 247 248 248 249 248 247
249 253 250 252 254 254 254 255 254 253 254 254 252 253 253 254 254 254 254 254 254 254 254 254 254 254 252 250 249 250 249 249 251 249 246 246 246 247 248 248 248 247 248 249

GFSNGP_sfc_thetae_075.txt.gz
Theta_e
287 288 289 289 288 288 288 288 285 286 286 290 293 293 294 295 295 296 296 297 297 297 297 297 296 296 296 296 296 296 297 296 298 297 296 296 294 292 291 289 288 287 285 285
282 287 287 284 285 286 289 289 289 289 289 296 297 298 294 296 296 296 298 298 298 298 297 296 297 296 296 295 295 294 295 295 296 293 292 291 291 290 289 287 286 285 284 284
270 281 282 275 282 285 286 289 289 286 290 294 293 293 293 294 295 294 294 294 295 294 295 295 294 294 294 293 292 290 289 288 288 288 288 289 288 288 287 285 284 283 283 282
267 270 263 279 285 286 287 288 290 290 291 290 290 291 292 293 292 292 293 293 293 293 292 292 291 290 288 286 286 286 286 285 285 285 286 285 284 285 283 283 282 281 281 281
267 260 273 278 280 281 281 281 287 286 288 288 290 289 290 292 291 292 293 292 291 290 289 289 288 285 283 284 284 285 286 285 285 284 284 283 283 282 280 279 278 278 279 279
262 265 264 277 282 288 288 277 286 287 287 287 288 282 286 292 291 292 291 290 290 287 287 285 283 282 282 283 282 283 284 284 285 283 281 280 281 279 278 279 280 282 283 283
275 273 272 281 282 287 272 276 280 284 286 285 284 287 291 291 292 291 290 289 289 287 285 284 283 281 281 281 281 282 281 281 280 280 279 279 278 282 283 283 282 281 281 281
269 272 270 284 283 281 283 283 284 284 285 285 287 288 289 290 289 288 288 287 285 282 282 283 281 280 279 280 281 279 278 278 277 274 278 280 284 282 282 281 280 280 279 279
276 276 283 285 284 287 287 285 284 284 286 288 287 287 288 288 286 285 284 284 282 279 279 280 278 279 277 278 278 277 273 272 272 274 275 276 282 281 280 280 279 278 278 278
275 279 279 281 284 285 287 286 286 286 286 286 287 287 286 285 285 284 281 279 278 277 275 275 276 276 278 277 277 272 273 275 274 273 273 275 276 277 278 279 278 278 278 277
273 280 280 282 283 285 285 286 287 286 286 287 286 286 285 284 281 280 279 277 275 277 275 273 273 273 276 279 273 273 273 277 279 276 274 275 276 273 274 274 277 276 274 275
273 280 280 281 284 284 283 284 285 284 284 284 285 285 282 280 279 278 277 275 273 274 271 270 270 272 271 276 278 272 279 279 279 279 278 278 279 280 284 284 284 284 284 281
279 282 282 283 284 283 284 284 285 284 284 283 282 282 278 278 277 276 272 271 270 270 269 273 272 271 271 272 275 281 280 279 278 278 278 278 278 279 278 281 285 286 286 285
281 279 279 280 281 281 283 282 280 278 278 279 278 275 275 276 277 276 275 273 273 271 265 266 270 270 269 270 275 279 279 279 277 278 279 278 277 277 276 274 275 277 283 283
276 275 276 277 277 275 276 276 274 275 275 275 274 278 280 279 277 273 270 270 270 268 268 262 267 266 266 269 274 275 276 276 276 277 277 278 278 277 275 274 273 272 273 275
269 270 271 271 272 270 270 270 269 271 271 271 271 272 274 273 265 265 266 263 263 262 264 264 264 265 267 269 272 273 273 274 275 275 275 275 275 274 274 273 271 270 269 268
263 266 261 262 265 266 266 267 267 266 266 266 267 268 266 264 265 264 259 257 259 257 257 260 262 265 267 269 270 271 271 270 271 270 270 271 271 271 270 269 268 268 268 273
260 261 262 262 262 262 261 261 261 261 260 262 263 265 261 261 262 258 257 256 257 257 258 260 263 264 266 268 269 269 268 268 268 267 267 267 267 267 267 266 266 265 264 267
256 258 259 260 260 259 258 257 257 258 258 258 260 259 258 258 257 257 258 256 255 255 257 260 266 263 264 268 267 267 267 266 266 265 265 264 264 264 263 263 262 262 261 260
254 255 256 256 256 254 254 254 255 255 255 255 257 256 255 256 256 257 256 253 253 255 257 260 261 262 263 263 265 264 264 264 263 263 262 262 261 260 260 260 259 256 254 254
251 252 253 253 253 252 251 252 253 253 254 256 256 255 255 256 257 259 258 257 259 260 260 261 261 261 262 262 263 262 262 262 261 260 260 259 259 258 257 257 255 257 254 255
248 248 250 250 249 249 249 249 251 253 255 256 256 257 256 257 258 258 259 259 261 262 261 261 261 262 261 262 261 261 260 260 259 258 258 257 256 256 255 256 254 253 253 251
247 248 249 248 248 249 247 248 250 253 254 255 256 256 257 258 259 258 257 259 261 261 260 261 262 261 261 260 260 259 259 258 258 257 256 256 255 254 255 255 255 253 250 249
246 246 247 247 247 247 247 249 250 252 253 254 255 256 257 256 256 258 259 259 259 258 260 260 261 262 259 258 258 257 257 257 256 255 255 257 254 254 253 252 250 248 247 247
246 247 247 248 248 248 248 250 251 254 254 254 254 255 255 256 256 256 256 256 259 257 257 258 259 258 256 256 256 256 255 255 254 253 252 251 250 249 249 247 246 246 245 245
245 246 246 246 247 249 250 252 252 254 254 253 253 254 254 255 255 256 256 256 256 256 255 255 255 255 255 254 254 254 254 253 253 252 250 247 245 246 245 246 246 247 247 246
245 248 245 246 248 250 251 252 252 252 254 253 252 253 253 254 254 254 254 254 254 254 254 254 254 254 254 253 252 252 252 251 251 249 246 246 245 245 246 247 246 247 248 247

GFSNGP_sfc_thetae_078.txt.gz
Theta_e
285 287 288 288 287 287 285 285 282 283 285 289 292 293 293 293 293 294 294 294 294 294 294 294 295 295 295 295 294 294 294 295 296 296 295 295 293 292 291 291 291 290 289 289
281 286 287 284 286 287 287 287 288 287 287 293 294 293 292 293 293 292 292 293 294 293 293 293 293 292 293 292 291 290 291 290 291 290 290 290 289 289 289 289 288 287 286 287
274 281 282 276 282 284 285 288 288 284 289 290 289 290 290 290 291 291 292 293 292 292 291 291 290 290 289 287 287 286 285 286 286 286 287 288 288 288 287 287 286 285 285 284
269 272 270 279 282 284 286 287 290 289 288 288 288 289 290 292 290 291 291 291 291 290 290 289 289 287 285 284 284 284 285 284 284 285 285 285 284 284 285 285 283 283 283 282
270 263 273 277 279 279 279 280 287 286 286 286 287 285 286 292 291 290 291 291 290 289 288 287 286 284 282 283 283 283 284 284 284 284 283 283 282 282 280 279 278 278 280 281
261 261 261 274 280 283 285 275 285 285 285 283 284 278 280 289 288 290 291 289 288 287 286 284 284 282 281 282 282 284 283 283 283 283 281 281 282 280 277 278 283 282 283 283
265 262 269 278 282 285 271 275 279 283 284 283 282 284 286 287 288 288 288 288 286 284 283 283 282 281 280 280 281 282 281 281 280 280 280 280 280 282 283 283 282 282 281 281
275 273 269 282 282 278 281 281 283 282 283 283 285 286 286 288 285 285 286 285 284 282 282 281 280 279 279 279 280 279 280 279 279 277 279 279 280 283 282 282 281 280 280 279
275 275 282 283 284 286 285 283 283 282 284 285 284 285 286 287 286 284 284 284 282 278 278 279 275 275 276 278 278 278 276 276 274 275 276 275 282 281 280 280 279 279 278 278
276 280 280 282 282 283 287 284 285 284 285 284 285 286 285 285 285 283 279 277 276 274 275 274 272 274 273 278 279 277 274 278 278 273 274 273 275 279 280 279 278 278 278 278
273 279 280 281 282 284 284 284 284 284 286 286 285 285 284 283 280 279 277 276 274 273 274 273 272 272 270 274 277 278 277 278 280 280 276 274 275 273 275 276 277 277 278 278
273 280 280 280 282 282 281 281 282 281 282 283 284 284 283 280 278 277 276 274 272 272 271 271 269 270 269 268 274 276 278 279 279 279 278 278 278 278 283 283 284 284 283 280
278 280 280 281 282 281 281 282 282 283 282 281 281 282 278 278 276 276 278 277 276 275 273 271 268 267 264 266 271 274 277 280 279 278 277 277 277 277 276 280 286 286 286 284
279 279 277 279 278 279 278 278 277 276 275 276 276 274 277 280 279 279 278 277 274 267 265 264 265 265 264 263 266 271 278 279 277 275 276 277 277 276 275 275 274 274 279 283
279 277 277 275 276 273 273 272 270 271 272 271 270 270 271 272 275 277 272 270 269 267 262 260 260 262 262 263 267 271 273 272 273 274 277 278 277 275 274 273 272 271 272 275
270 269 269 270 270 269 268 267 267 268 268 267 266 267 267 267 268 270 267 267 267 268 262 256 259 260 261 264 267 270 271 275 275 274 275 275 275 274 273 271 270 270 270 269
266 266 260 261 263 265 264 265 264 264 264 262 262 262 262 263 263 262 263 262 261 257 255 255 258 260 261 265 266 270 269 270 272 272 272 272 272 271 270 270 269 268 270 273
261 262 262 261 261 261 260 258 258 258 258 259 259 259 259 260 262 262 258 256 256 257 257 257 259 260 261 264 266 268 269 269 269 269 269 269 268 268 268 267 266 266 264 266
256 257 259 260 259 258 257 256 255 255 255 255 255 256 257 257 256 255 256 255 255 255 258 259 265 262 261 266 266 267 267 267 266 266 266 266 265 265 265 265 263 263 262 262
254 254 255 255 254 253 253 252 252 252 253 251 252 254 254 255 254 255 254 254 254 256 258 260 261 261 261 263 265 265 264 264 264 263 263 263 263 262 262 261 260 260 259 258
250 251 252 252 252 251 250 249 250 251 252 250 251 255 254 254 255 255 255 255 257 259 260 261 261 261 263 263 263 263 262 262 262 261 261 261 261 260 260 259 257 258 255 255
247 248 250 249 248 247 246 246 247 249 249 250 251 252 253 255 257 257 258 258 261 262 261 261 261 262 261 262 261 261 261 261 260 260 260 259 259 257 256 255 254 256 256 255
245 246 248 247 247 247 244 245 246 247 248 249 250 252 254 256 257 258 257 259 261 261 260 261 262 262 261 260 260 260 259 259 259 258 258 257 256 255 255 256 256 256 255 253
244 244 245 245 244 244 246 246 245 246 248 249 252 253 254 255 255 257 258 259 259 258 259 260 261 262 259 258 258 258 258 257 257 256 256 257 255 255 255 255 254 254 252 249
244 243 244 245 245 246 244 246 246 246 248 249 251 253 254 256 256 256 256 257 259 257 256 258 260 258 256 256 256 256 256 255 255 255 254 254 253 253 252 249 247 246 245 245
243 244 244 243 245 246 247 248 248 248 249 249 250 252 254 255 256 256 256 256 256 256 256 256 255 255 255 255 255 254 254 254 254 253 253 251 248 246 246 246 246 246 246 245
243 246 244 245 246 246 246 247 247 248 249 250 251 252 253 254 254 254 254 254 254 254 255 254 254 254 254 254 254 253 253 252 252 251 247 246 246 245 246 247 246 246 246 246

GFSNGP_sfc_thetae_081.txt.gz
Theta_e
287 288 288 286 286 287 285 284 281 283 284 287 291 291 290 291 292 292 292 292 292 291 291 291 291 291 291 291 290 289 289 289 290 291 291 291 290 289 289 289 290 290 289 289
283 286 286 284 286 286 286 286 286 286 286 293 291 291 290 291 291 290 291 292 292 291 291 290 289 289 289 288 287 286 286 285 286 286 286 286 286 286 287 287 287 287 287 287
279 281 283 278 281 284 284 286 286 282 287 290 288 289 289 290 289 289 290 291 291 290 290 289 288 288 287 285 285 284 283 284 284 284 284 285 285 285 286 286 286 285 285 285
274 272 272 280 280 281 284 287 289 288 287 288 288 288 289 290 289 289 290 290 290 289 288 288 287 286 284 283 283 283 283 282 282 283 283 283 283 283 284 283 283 283 283 283
272 262 274 278 279 278 279 280 286 286 286 285 285 283 284 290 290 288 288 290 289 288 287 286 285 284 282 282 282 282 283 282 282 282 281 281 282 282 282 279 279 279 280 278
262 265 265 274 280 281 283 274 282 286 285 284 282 279 280 290 286 287 288 288 287 286 285 283 283 281 281 281 280 280 281 281 281 281 280 280 283 282 283 280 283 282 284 284
268 264 269 277 281 283 271 275 279 284 284 283 280 282 283 284 286 288 287 286 285 283 283 283 282 280 279 279 279 280 279 279 279 279 278 280 280 282 283 283 283 283 282 282
273 272 269 280 280 278 280 281 283 282 283 282 283 284 284 284 286 287 285 284 283 282 282 282 280 277 277 277 279 278 277 276 277 276 277 279 276 281 283 282 282 282 280 280
277 277 281 282 282 284 284 283 282 283 282 282 283 283 284 285 285 285 285 284 283 278 278 279 275 274 275 276 277 279 278 276 277 280 275 274 274 280 281 281 280 280 279 279
276 279 280 283 283 283 285 284 284 283 283 283 283 284 285 285 284 284 279 277 275 274 275 276 272 273 272 273 273 276 278 278 278 280 281 279 274 274 277 279 279 279 279 278
274 279 280 281 282 283 282 282 282 283 283 283 283 284 284 283 281 280 277 275 273 272 273 274 273 271 268 271 268 272 276 278 280 281 280 280 279 274 272 273 278 276 278 278
274 280 280 281 282 282 281 281 281 281 281 282 283 283 282 280 278 277 276 273 272 274 274 274 269 268 267 264 264 268 273 276 279 280 280 279 278 278 284 285 285 285 284 279
280 281 281 281 282 281 281 281 280 280 280 279 279 278 277 277 275 275 277 279 279 278 276 270 267 265 263 261 261 264 267 271 276 278 276 272 272 273 274 278 282 282 286 285
280 280 278 279 279 279 279 277 275 273 274 274 272 270 270 271 271 272 275 273 275 274 272 268 262 263 262 260 261 263 266 271 276 276 274 272 270 272 272 275 274 274 277 279
279 279 278 277 276 274 273 271 269 270 270 268 267 267 267 266 266 267 269 268 270 269 265 266 264 262 259 260 262 264 267 271 273 271 274 274 273 272 273 273 272 272 273 275
273 270 269 271 272 269 268 266 266 268 266 265 264 264 264 263 263 263 265 261 261 264 260 259 259 259 259 259 262 265 268 270 273 271 272 275 274 272 272 271 271 270 269 267
268 266 261 262 267 266 265 264 264 264 263 261 260 259 258 258 259 259 260 256 256 257 256 254 257 258 258 260 262 266 267 268 271 270 271 272 273 272 271 270 269 267 269 272
266 265 265 265 265 262 260 258 258 257 256 257 257 255 254 253 256 258 258 253 252 253 254 256 257 260 259 261 263 265 266 268 267 267 270 270 269 269 269 268 267 266 265 267
259 261 261 261 260 259 258 256 254 253 253 253 252 253 253 254 255 254 252 251 252 252 256 256 263 261 260 262 266 265 267 267 265 266 267 267 267 267 266 266 265 264 263 262
255 256 256 256 255 253 253 252 251 250 250 249 248 249 252 253 250 251 250 251 252 254 257 258 260 260 261 262 265 265 265 265 265 264 264 264 264 263 263 263 262 261 260 259
253 253 253 253 252 250 249 248 248 248 249 247 247 250 251 251 249 250 250 251 253 255 258 260 260 261 262 263 263 263 263 263 263 262 262 262 262 261 261 260 259 259 258 257
249 250 251 250 248 247 245 244 244 246 246 247 248 248 250 251 252 252 253 254 255 261 259 259 260 262 261 262 261 261 261 261 261 261 260 260 260 260 259 258 257 257 256 255
247 247 249 248 247 246 243 243 243 244 246 246 247 249 251 252 253 254 253 256 258 260 259 260 263 262 261 260 260 260 259 259 259 259 259 259 258 258 258 257 256 256 255 255
244 245 245 243 243 244 246 245 243 244 245 246 246 247 250 250 250 252 254 257 258 258 258 260 261 262 259 258 258 258 257 257 257 257 257 258 256 256 256 256 255 255 254 253
244 243 243 245 246 245 243 243 244 244 244 245 245 247 249 251 250 251 253 255 258 257 257 258 260 259 256 256 256 256 256 256 256 256 255 255 255 255 254 253 253 252 250 249
243 244 243 243 245 245 245 245 246 244 244 245 245 245 246 248 250 252 254 256 256 256 256 256 255 255 255 255 255 255 255 255 255 254 254 254 253 252 251 251 250 249 248 246
243 245 243 245 244 244 244 244 245 245 244 243 245 245 248 250 251 253 254 255 254 255 255 255 254 254 254 254 254 254 253 253 253 252 252 251 250 250 249 249 248 246 246 246

GFSNGP_sfc_thetae_084.txt.gz
Theta_e
285 286 286 285 285 285 284 285 282 283 283 287 288 290 290 291 291 290 291 291 290 290 289 289 288 288 288 287 286 286 286 286 286 286 286 286 286 286 286 286 287 287 287 287
283 287 285 284 286 286 285 285 285 285 285 292 292 292 290 291 290 289 290 290 290 290 289 288 288 287 287 286 285 284 284 284 284 283 284 284 284 284 284 284 285 285 285 285
280 282 284 281 284 284 284 285 286 284 287 289 289 290 290 290 289 289 289 290 290 289 288 287 286 286 285 284 283 282 282 282 282 282 282 283 283 283 284 284 284 283 283 283
274 279 275 281 280 283 285 286 288 287 287 288 289 289 289 290 288 288 288 289 289 288 288 287 285 284 283 282 282 282 281 281 281 281 281 281 281 281 282 282 282 282 282 282
276 274 276 278 280 278 280 281 287 286 287 286 286 284 283 288 288 287 288 289 288 287 287 285 284 283 282 282 282 281 282 281 281 280 280 279 279 282 283 283 279 281 281 281
269 271 267 277 277 280 282 275 280 286 285 282 282 279 281 287 288 286 287 288 287 285 285 283 283 282 281 281 279 280 280 280 280 279 277 278 279 281 281 279 282 282 281 280
267 268 270 278 280 281 272 274 277 284 283 281 280 282 282 285 284 285 286 286 284 283 283 283 282 280 279 279 278 279 278 278 277 277 276 276 277 277 278 278 280 277 280 280
272 270 272 280 279 278 280 281 282 282 282 283 283 283 283 283 285 286 286 285 285 283 282 282 280 277 276 276 278 275 277 279 279 274 279 277 272 275 278 282 281 282 281 280
279 278 281 280 282 283 283 281 282 282 282 282 282 281 282 283 284 285 285 285 284 279 278 278 274 273 274 275 274 274 272 275 279 279 280 282 280 278 276 275 280 279 279 279
279 280 281 282 283 283 283 282 283 283 283 282 280 281 282 283 283 283 279 278 275 273 274 273 271 273 271 272 271 265 268 272 277 279 280 281 282 280 278 272 273 275 274 275
274 278 280 281 282 283 282 282 282 283 283 281 281 282 282 281 278 278 276 275 273 272 273 274 272 270 268 269 265 266 267 271 274 277 280 281 281 280 279 275 277 275 276 273
274 280 281 282 282 282 281 281 281 281 280 281 281 281 280 278 276 275 274 273 273 274 274 273 268 266 265 262 261 261 266 269 271 272 276 279 279 278 282 284 284 285 285 281
279 281 282 282 283 281 281 281 282 281 281 280 277 275 274 274 274 273 272 272 272 274 273 272 270 268 264 259 258 259 262 266 268 271 276 277 276 270 272 274 282 281 282 285
281 280 278 279 279 281 281 280 276 274 274 274 272 268 268 267 266 265 266 266 267 267 267 268 266 264 260 257 256 259 261 264 266 270 275 277 273 269 270 268 269 273 277 279
279 279 280 278 278 276 274 273 270 271 270 268 266 265 265 264 263 263 264 264 264 264 263 260 260 261 257 257 259 259 262 265 267 270 273 274 272 270 270 271 268 272 273 275
273 271 271 273 274 271 270 267 268 268 266 264 262 262 262 260 258 258 258 259 257 262 260 257 256 257 257 257 258 260 262 265 268 270 271 272 270 271 270 268 269 270 271 270
269 267 263 265 270 269 267 266 266 265 263 260 259 257 254 254 253 253 255 255 253 254 255 253 256 256 256 257 258 262 263 265 266 269 268 269 271 272 271 269 269 268 269 272
276 276 274 272 270 267 262 260 260 258 257 256 254 252 250 249 252 254 254 253 253 254 254 252 254 256 256 256 258 262 263 264 265 266 267 270 270 271 269 268 268 266 265 266
263 266 264 264 263 263 261 258 256 254 252 251 249 250 249 249 250 251 250 249 251 251 255 253 261 259 256 257 264 262 263 264 264 264 267 268 267 268 267 266 265 264 263 262
258 259 259 257 257 256 255 253 252 250 248 247 245 245 246 249 247 246 247 249 250 253 253 254 255 255 256 258 263 262 262 263 263 263 265 265 265 264 263 263 262 261 261 260
257 256 256 255 254 252 252 250 250 248 248 245 246 246 247 247 246 246 249 249 252 252 253 256 254 256 257 260 261 261 261 262 262 262 263 262 262 262 261 261 260 260 260 259
253 254 253 252 252 248 244 244 245 245 246 245 245 245 246 247 247 248 249 252 254 256 255 256 257 259 260 261 260 260 260 261 261 261 261 261 261 260 260 260 259 259 258 257
251 251 251 250 250 249 242 242 243 244 245 245 245 245 248 250 250 250 250 251 252 257 255 257 262 262 260 259 259 259 259 259 259 259 259 259 259 259 259 258 258 258 257 257
247 248 246 245 246 245 247 244 242 242 243 243 243 244 247 248 247 248 250 253 256 255 255 258 260 263 259 257 257 258 258 257 257 257 257 258 257 257 257 257 257 257 256 256
249 245 245 246 248 247 245 242 242 242 243 243 243 244 246 248 249 248 248 250 255 255 254 257 260 259 256 256 256 256 256 256 256 256 256 256 256 256 255 255 255 255 254 253
246 248 245 244 246 246 246 245 246 243 243 244 243 243 244 245 247 249 249 252 253 256 255 256 256 256 256 255 255 255 255 255 255 255 255 255 254 254 253 253 253 252 252 251
244 245 245 244 243 242 242 243 245 245 243 242 244 243 245 246 247 250 252 252 253 254 255 255 255 255 255 255 254 254 254 254 254 254 253 252 252 252 252 252 251 251 249 248

GFSNGP_sfc_thetae_087.txt.gz
Theta_e
283 284 284 284 284 283 283 285 282 284 283 287 287 289 290 291 291 290 291 291 291 290 290 289 289 288 288 288 287 286 286 286 286 286 286 286 286 286 286 286 287 287 287 288
282 286 284 283 285 285 286 284 283 282 283 289 290 290 290 291 290 289 290 291 291 290 289 288 288 287 287 286 285 285 284 284 284 284 284 284 284 284 284 285 285 285 286 286
279 283 283 281 284 285 285 286 287 283 287 289 289 291 291 290 290 289 289 290 290 289 288 288 287 286 285 284 284 284 284 283 282 282 282 283 282 282 283 283 284 284 284 284
277 282 277 283 279 283 286 287 288 287 288 291 291 292 292 291 289 288 289 290 290 289 288 287 286 285 284 284 283 283 282 281 281 281 281 281 280 280 282 283 282 283 283 283
277 272 277 279 280 282 285 285 288 287 288 288 287 287 286 290 288 288 289 290 289 288 287 286 285 284 283 283 282 282 282 281 281 280 279 279 278 279 280 281 282 282 283 282
274 273 270 279 277 280 282 277 282 288 288 285 284 282 283 287 288 288 289 289 288 287 286 285 284 283 282 281 279 280 280 280 279 279 277 277 278 278 279 279 280 282 282 282
275 275 275 279 280 280 274 278 278 285 285 283 282 284 284 287 285 287 288 288 287 285 285 284 283 281 280 279 278 278 277 278 279 280 278 278 279 279 278 277 280 280 280 282
272 273 273 280 280 278 281 282 282 282 282 282 282 283 284 285 285 286 287 287 285 284 283 281 280 277 276 277 278 275 274 274 275 278 281 281 281 281 281 279 279 279 278 279
278 279 281 280 281 283 284 283 282 282 282 282 282 281 282 283 283 284 283 285 282 279 277 278 274 274 274 276 274 273 269 269 271 274 277 279 282 282 282 282 280 277 277 277
281 279 279 281 282 283 284 284 283 282 282 282 281 282 282 282 283 283 278 277 274 273 273 273 272 273 272 272 270 263 266 268 271 272 274 277 280 281 281 281 279 278 279 279
275 279 281 282 283 283 282 283 283 283 283 281 282 282 282 280 278 277 275 274 272 272 272 273 271 270 268 269 265 265 266 268 270 272 272 274 277 280 281 281 281 280 281 281
276 280 281 283 284 283 282 281 282 281 280 281 282 282 279 277 277 275 273 272 271 270 270 270 268 268 266 262 260 260 265 268 268 269 270 272 276 279 282 282 284 283 284 283
280 283 282 283 284 282 281 281 281 280 281 280 277 277 274 274 273 271 270 270 268 268 268 267 266 265 263 258 257 257 260 264 266 267 268 270 274 277 274 276 282 282 281 282
281 281 278 280 281 281 281 280 277 275 274 275 273 268 268 268 266 264 264 263 263 262 262 262 261 261 259 255 255 256 258 261 263 266 267 269 273 275 274 272 272 272 276 279
280 279 281 280 278 278 275 274 271 272 270 268 266 266 265 264 262 262 261 260 260 258 258 256 257 259 255 254 257 257 260 262 264 265 267 269 272 273 273 272 271 269 270 274
275 273 273 277 277 274 272 270 271 271 269 266 265 263 262 260 257 254 254 254 254 255 255 253 255 256 255 255 256 258 260 261 264 265 267 268 271 272 271 271 270 270 270 270
271 269 266 268 273 271 272 271 272 269 266 264 262 258 255 252 250 250 250 250 250 251 252 251 254 254 255 255 255 258 260 262 263 264 265 268 270 272 271 271 270 269 268 272
280 281 278 278 275 271 265 266 265 263 261 259 256 253 250 248 251 249 249 247 248 251 251 251 251 254 253 254 255 258 260 262 263 263 265 267 269 271 270 270 268 267 265 267
274 275 273 271 271 271 266 263 260 257 255 254 252 252 249 247 247 247 245 246 247 248 252 249 259 255 254 255 262 262 261 261 263 263 265 266 267 268 268 267 266 265 264 263
262 262 263 260 260 261 259 257 255 254 251 250 248 246 247 246 245 244 244 248 248 252 250 251 250 251 253 255 259 258 259 260 261 262 264 264 265 265 264 264 264 263 262 262
265 261 260 259 256 255 256 255 254 252 249 248 250 248 248 246 243 244 247 249 250 248 250 252 250 253 254 258 258 257 258 259 260 261 261 263 263 263 262 262 262 262 261 260
258 258 256 255 254 250 249 250 251 250 249 247 244 244 244 246 245 246 246 250 250 253 251 251 254 255 255 258 256 257 258 259 259 260 260 261 261 261 261 261 260 260 260 259
255 255 254 253 253 249 245 246 247 249 248 247 248 247 249 250 249 249 249 249 248 251 250 251 256 261 258 255 255 256 258 258 258 259 259 259 259 259 259 259 259 259 259 258
253 253 251 249 250 250 250 243 244 242 244 244 244 245 247 248 246 246 248 250 252 252 251 251 256 263 257 254 255 257 257 257 258 257 258 258 258 258 258 258 257 258 258 257
252 249 248 250 251 250 248 245 244 241 241 242 242 243 244 246 248 247 246 247 253 252 250 254 260 259 251 252 255 256 256 257 256 257 256 256 256 256 256 256 256 256 256 256
251 251 250 248 247 248 248 247 248 243 243 243 242 242 242 243 246 247 247 250 249 251 249 250 250 250 251 252 254 255 256 256 256 256 256 256 255 255 255 255 255 254 254 254
248 248 247 247 245 244 245 245 247 245 243 243 245 242 243 244 245 249 250 249 249 249 249 248 250 252 250 252 254 255 255 255 255 255 255 254 254 253 253 253 254 253 253 252

GFSNGP_sfc_thetae_093.txt.gz
Theta_e
290 292 291 291 289 290 288 289 286 289 289 293 294 297 298 300 299 299 298 298 298 298 297 297 296 295 295 294 293 294 293 293 292 292 291 291 291 290 290 290 290 290 289 290
287 290 289 288 290 290 289 290 290 290 290 297 298 299 298 298 298 298 298 298 298 298 296 295 295 294 293 292 292 293 291 290 290 289 289 289 288 288 288 288 288 288 288 288
285 287 288 284 287 290 290 292 292 288 292 296 295 297 298 297 298 298 298 298 297 296 295 294 294 293 292 292 291 290 290 288 287 287 287 287 286 286 286 286 287 286 287 287
284 285 278 288 290 293 292 292 294 294 295 296 297 298 300 301 300 299 299 298 296 296 295 294 293 292 291 291 290 289 288 287 286 286 285 285 284 284 285 285 285 285 285 285
283 282 286 290 286 289 289 289 294 294 295 296 298 298 298 301 301 300 299 297 296 296 295 293 291 290 289 288 288 287 286 286 285 284 283 283 281 283 284 284 284 284 284 284
284 282 279 288 289 293 294 284 295 295 294 293 294 289 294 298 298 296 296 296 295 294 292 290 289 289 287 286 286 285 284 283 283 283 282 282 283 283 284 284 284 284 284 285
283 283 286 287 286 290 284 288 288 295 295 293 291 295 298 295 294 295 295 294 293 292 290 289 286 286 285 285 284 282 282 282 281 281 280 281 282 283 283 283 284 284 284 285
284 282 281 286 285 287 290 288 289 293 295 293 292 292 293 293 292 292 292 291 290 288 286 285 285 285 284 284 282 281 279 279 278 278 279 280 279 281 282 283 283 283 284 284
286 288 288 288 289 290 291 290 289 292 292 292 290 290 290 290 291 291 291 288 288 286 284 283 282 283 283 281 279 278 275 274 276 277 278 279 279 279 280 282 282 282 282 283
287 289 288 287 288 288 290 290 290 291 290 291 290 288 288 288 288 287 286 284 283 283 282 280 280 280 279 278 276 271 273 274 275 276 277 278 279 279 280 280 281 281 281 282
285 283 286 287 288 289 288 288 288 288 288 290 288 287 287 286 285 284 283 282 282 282 281 279 279 278 276 274 271 272 272 273 275 276 276 276 277 278 278 279 280 279 280 282
286 288 289 288 289 289 288 287 287 286 285 286 287 286 286 284 284 283 281 280 279 278 277 276 274 273 272 269 268 267 270 273 274 272 274 274 275 275 279 280 281 282 284 283
288 289 288 287 291 290 289 288 287 286 286 285 285 285 285 282 281 279 279 278 277 275 274 273 271 270 268 266 264 264 266 268 270 271 272 272 273 273 272 276 279 281 282 283
287 286 284 285 287 287 287 287 284 282 282 283 282 282 280 279 276 276 275 274 271 270 268 267 266 265 266 265 263 261 263 265 267 269 270 271 271 272 272 272 272 274 279 281
284 284 283 284 285 283 282 281 280 280 279 277 277 278 278 275 274 273 270 267 267 265 265 264 262 263 264 261 262 263 265 267 268 269 269 269 270 270 271 272 272 274 276 279
283 280 279 280 282 280 280 280 280 279 278 276 275 274 274 274 271 268 265 264 265 267 264 261 261 263 260 259 261 263 265 265 265 266 267 268 269 270 270 271 272 274 276 277
277 276 275 277 279 279 280 281 282 280 278 275 274 272 269 267 265 263 262 261 261 261 261 260 261 258 257 258 260 263 265 266 265 266 267 268 269 269 269 270 271 273 275 274
285 286 284 285 283 281 280 280 280 279 277 276 272 268 266 265 268 264 261 259 257 256 259 261 258 257 256 258 259 263 264 266 266 266 267 267 268 269 268 270 272 273 273 271
283 284 283 283 284 282 281 281 279 278 274 271 268 267 267 266 265 262 259 257 258 260 261 258 262 261 260 259 262 265 265 265 265 266 267 267 268 269 269 270 270 271 270 269
282 282 283 282 279 281 280 277 277 272 269 268 267 263 263 260 259 258 257 259 263 263 260 260 259 260 259 258 262 263 264 264 265 265 265 265 266 266 267 267 267 267 267 266
276 279 278 273 272 267 271 272 271 267 264 264 266 264 262 258 257 257 257 261 261 257 259 258 260 262 263 261 261 263 263 263 263 263 263 263 264 265 265 265 265 265 265 265
268 268 266 265 266 266 261 265 267 262 261 261 260 259 257 256 255 256 256 262 261 257 260 262 262 260 261 258 262 262 262 262 262 262 262 262 262 262 263 263 263 264 263 263
263 264 265 262 263 265 259 259 259 261 260 259 258 259 261 260 260 260 260 258 260 258 261 261 260 260 261 260 261 261 261 260 260 261 261 261 261 261 261 262 262 262 262 262
258 258 257 256 256 257 257 256 258 257 257 258 257 259 260 260 259 259 258 257 257 260 260 260 260 263 260 259 259 259 259 260 260 260 260 259 260 260 261 261 261 261 261 261
255 255 255 255 258 259 256 255 255 255 256 256 255 256 257 257 261 258 258 258 259 258 259 258 260 261 258 258 258 258 258 259 259 259 258 259 259 259 259 260 260 260 260 260
256 258 258 257 260 258 256 257 257 257 257 256 256 256 256 256 256 257 256 257 257 257 258 258 258 257 258 258 258 258 258 258 258 258 258 258 258 258 258 258 258 258 259 259
255 255 256 256 256 256 257 258 257 256 258 258 256 255 256 256 256 257 256 257 257 257 257 257 257 257 257 257 257 257 257 257 257 257 257 257 257 257 257 257 258 258 258 258

GFSNGP_sfc_thetae_096.txt.gz
Theta_e
287 288 288 287 287 287 285 287 283 286 286 288 290 293 295 297 296 296 296 296 296 295 294 292 291 290 290 290 290 291 290 289 288 288 288 287 286 286 285 284 286 285 284 284
281 287 287 284 287 288 288 288 288 288 286 291 294 296 294 296 296 296 296 296 296 295 293 292 291 290 290 289 289 289 287 286 286 285 285 284 284 284 283 283 283 283 283 283
280 284 284 280 284 287 288 289 288 285 290 291 291 294 294 295 296 296 296 296 295 294 293 292 291 290 289 288 288 286 284 284 284 284 283 283 283 282 282 282 282 282 282 282
279 281 274 285 289 291 289 290 291 291 291 292 292 295 297 299 297 297 297 296 295 293 292 291 290 289 288 287 286 285 284 283 282 282 281 282 281 280 281 281 280 280 281 281
279 275 281 285 284 285 285 286 292 291 293 292 292 292 292 298 298 298 297 297 294 293 292 290 289 288 285 285 285 284 283 282 282 281 279 279 276 278 279 278 278 277 280 278
283 279 277 283 289 291 291 283 290 292 292 291 292 288 291 295 298 297 297 295 293 291 290 288 287 286 285 284 283 282 282 282 281 280 276 276 278 277 277 276 281 281 283 284
283 281 280 284 285 289 280 284 284 289 292 292 291 294 294 295 294 295 294 292 291 290 288 287 285 285 283 283 282 281 280 279 278 278 275 275 275 276 274 275 278 275 279 280
284 281 278 284 284 285 287 283 284 288 291 290 289 291 293 293 292 291 290 290 288 286 284 284 284 284 282 282 280 278 276 276 273 271 274 275 269 269 270 271 272 274 274 278
285 283 285 285 284 286 287 286 284 286 288 290 288 288 289 289 289 289 288 287 286 284 283 282 282 283 281 278 277 274 271 267 267 268 270 270 267 268 270 269 270 274 275 277
284 284 283 284 285 285 286 285 286 286 286 288 286 287 287 287 286 285 285 284 283 282 281 279 279 279 277 275 272 267 265 267 268 267 267 268 272 273 267 267 271 273 275 276
281 283 284 285 286 287 286 284 285 285 286 287 285 285 286 285 284 284 283 283 284 282 281 279 277 274 272 271 269 268 266 268 267 268 266 268 269 269 271 271 272 272 277 278
281 286 287 286 287 287 285 284 284 284 284 284 284 285 285 284 283 283 281 281 280 279 277 274 272 270 267 265 265 263 265 267 266 266 266 268 268 270 276 278 279 280 281 280
284 285 285 284 286 286 285 285 284 283 283 283 283 284 283 281 278 278 278 277 277 276 272 269 268 265 262 262 262 262 262 263 263 265 264 264 264 266 268 271 276 277 279 280
282 282 281 283 284 285 285 284 282 279 278 280 279 278 280 279 275 277 277 274 273 271 269 267 266 264 262 260 259 256 256 261 259 260 260 261 262 262 264 267 267 269 275 277
283 283 283 282 282 281 280 280 278 278 277 275 275 278 279 276 276 275 270 268 267 265 263 263 261 259 258 256 257 255 258 259 259 259 259 261 261 264 266 267 268 269 271 274
280 278 276 277 278 277 276 275 276 277 276 275 276 275 275 274 273 269 265 265 267 265 263 260 258 257 256 254 254 254 255 259 259 257 257 258 261 264 265 266 267 267 268 270
275 275 272 274 277 277 277 278 280 280 278 275 276 272 270 268 266 264 262 259 260 259 259 259 258 254 253 254 254 254 255 256 259 257 257 258 259 261 265 265 266 266 268 272
283 283 281 280 280 278 277 277 277 275 277 277 271 270 267 268 271 266 261 257 255 253 253 255 255 253 252 252 253 254 255 255 256 256 257 258 260 261 263 264 266 267 268 267
277 280 279 279 280 279 279 278 277 278 273 273 271 270 271 269 265 262 259 257 256 256 257 255 263 256 255 255 255 255 256 256 255 255 256 258 258 257 260 260 262 260 265 263
271 270 271 271 270 271 273 271 274 275 274 272 272 268 266 264 262 260 260 259 258 259 258 256 256 256 255 254 260 254 254 255 255 255 254 255 254 256 258 259 258 258 258 259
263 264 265 265 267 264 264 265 271 271 266 270 270 270 268 261 259 258 258 259 255 254 256 256 255 255 254 254 254 252 253 254 254 254 253 253 253 253 255 254 254 257 256 256
257 258 260 260 259 261 257 260 261 261 263 261 259 260 259 256 255 253 252 258 256 256 255 255 254 255 255 257 253 253 253 253 252 252 252 252 252 253 252 254 255 255 255 255
257 256 258 256 255 254 252 253 254 255 257 259 259 260 262 259 259 258 257 254 257 257 256 257 258 259 259 255 254 253 252 252 252 252 252 251 252 252 253 255 255 255 255 255
252 252 251 251 251 251 252 251 251 251 253 255 257 259 260 259 258 258 259 260 259 261 259 259 262 264 261 258 257 255 252 251 251 251 251 255 251 253 253 254 255 255 255 256
249 249 249 249 251 251 249 248 250 252 253 253 255 257 257 260 261 258 258 258 261 259 259 261 262 262 258 257 254 254 252 251 250 249 250 250 252 252 252 253 254 255 255 255
248 249 251 251 253 252 250 251 252 253 255 253 253 255 256 257 258 258 258 258 258 259 258 259 257 256 256 255 254 254 253 253 254 253 253 253 252 252 253 254 255 256 256 256
249 253 251 252 253 254 254 255 254 253 254 254 254 256 256 257 257 257 257 257 257 257 257 257 257 257 255 255 253 253 254 254 255 253 252 252 252 252 253 254 255 255 256 256

GFSNGP_sfc_thetae_102.txt.gz
Theta_e
283 285 286 285 286 286 284 287 282 285 282 287 287 288 290 292 293 294 294 293 293 293 292 292 291 290 290 290 288 288 287 287 286 285 285 284 283 283 283 283 283 283 283 282
281 285 285 283 285 287 287 286 285 286 284 288 289 290 291 292 294 294 295 295 294 294 293 291 291 290 290 289 288 288 286 285 285 284 283 282 282 283 283 283 282 282 282 282
281 283 284 280 284 285 286 288 287 284 289 288 288 290 292 292 294 295 296 296 295 294 294 292 291 291 289 289 287 285 284 283 283 282 282 283 283 283 282 282 282 281 281 281
278 280 276 286 288 288 287 288 290 289 287 289 290 292 293 296 295 296 297 297 296 296 295 293 292 290 289 286 285 284 283 283 282 283 282 282 281 281 281 281 281 281 281 280
274 265 279 283 284 285 284 286 289 289 291 288 289 289 290 295 296 297 298 299 298 298 296 292 290 288 287 285 284 283 283 283 282 282 281 280 279 279 280 279 278 277 279 276
265 270 271 282 285 287 289 283 292 291 291 288 288 286 292 292 295 297 298 298 297 296 294 290 289 287 286 284 283 283 283 283 282 281 280 279 279 279 278 277 278 278 278 276
268 268 275 282 284 287 280 283 284 289 290 288 288 293 291 292 292 296 295 294 294 294 291 289 287 287 285 284 283 284 282 281 280 279 278 278 278 278 276 274 275 270 273 272
274 272 276 284 284 285 287 282 284 286 288 288 288 289 289 291 290 291 292 291 292 290 288 286 287 287 285 284 283 282 281 279 278 277 279 277 276 274 273 272 269 268 267 268
284 282 284 283 284 284 286 284 283 284 285 289 288 288 287 288 286 287 288 288 289 288 285 285 286 287 284 284 281 280 279 277 276 276 276 275 273 273 272 268 268 267 268 266
286 284 284 283 283 285 285 285 285 285 285 286 287 287 286 286 285 285 282 284 285 285 284 283 285 285 286 281 280 279 277 276 275 274 273 273 274 273 269 267 264 266 264 264
283 284 284 286 286 286 285 284 284 285 285 287 286 286 286 284 282 281 281 281 284 285 284 283 283 281 281 279 278 277 276 274 274 274 273 271 271 270 270 267 268 263 263 264
283 287 288 287 286 286 285 285 285 284 285 285 284 285 283 281 281 281 280 280 281 281 282 279 279 276 276 277 278 276 274 273 273 271 270 270 269 269 273 275 277 277 278 274
285 287 288 288 287 286 286 285 285 284 284 284 283 284 281 280 278 278 278 279 280 280 280 278 277 276 275 275 276 275 275 272 270 270 269 267 267 266 263 265 273 274 275 276
284 284 282 283 284 285 285 283 280 278 278 279 279 276 276 276 274 278 279 280 279 279 278 278 277 275 272 272 273 272 270 270 269 267 267 264 264 263 263 262 259 259 268 272
283 283 282 282 281 280 278 278 277 277 276 275 273 274 275 275 275 276 273 273 275 278 279 278 275 270 268 268 268 266 266 264 264 263 263 263 262 262 260 258 257 257 257 266
279 275 274 277 276 275 275 274 275 277 274 273 273 275 274 272 271 269 268 272 275 275 274 274 273 265 263 264 263 263 263 264 263 261 259 259 259 259 259 259 258 257 258 259
277 276 273 273 274 274 274 274 275 275 273 272 276 270 269 268 266 268 268 263 263 269 270 271 268 263 262 263 263 262 261 261 260 258 257 257 258 258 258 256 257 256 258 261
276 277 275 275 275 274 274 270 269 270 271 271 268 266 266 269 275 273 270 263 260 259 263 263 262 261 259 259 260 260 260 260 258 258 257 258 256 257 257 256 255 255 256 257
269 270 270 272 270 269 269 270 268 269 269 267 265 270 271 270 270 268 264 264 263 263 265 260 266 260 259 258 259 260 260 258 258 254 256 255 253 252 253 252 252 252 253 254
262 263 264 264 265 263 263 262 263 265 268 267 266 266 268 269 264 263 264 267 269 268 263 262 265 261 261 261 263 260 259 259 259 256 255 254 254 252 251 252 252 251 250 250
256 257 258 259 259 259 259 258 259 260 261 263 265 270 272 269 266 264 261 266 268 261 263 263 263 262 261 262 260 259 257 258 258 257 255 255 253 251 252 251 251 252 250 250
252 253 254 254 254 255 254 254 253 255 257 259 261 262 263 262 259 259 261 263 257 261 261 261 261 261 261 262 260 258 256 256 255 253 252 252 254 255 256 256 256 255 255 252
249 250 251 252 251 251 251 248 250 250 252 253 254 256 257 259 258 258 264 257 255 258 257 259 260 260 260 260 258 257 257 257 256 257 257 258 259 259 259 257 256 256 255 253
247 248 249 249 247 248 251 251 248 247 247 248 250 250 252 256 256 253 255 256 257 260 257 258 262 264 261 259 259 259 259 259 259 259 259 259 259 258 257 255 256 255 254 253
245 245 244 246 247 249 246 246 248 247 248 248 249 251 252 254 256 253 252 254 260 258 258 262 266 265 260 260 260 260 260 260 259 259 259 258 258 257 256 254 254 253 252 251
245 247 247 245 248 248 249 248 248 248 246 248 247 249 250 252 256 257 258 260 260 260 261 263 264 261 261 260 260 260 259 259 259 259 258 257 256 255 255 254 253 253 252 250
246 248 246 249 246 248 248 248 248 249 247 246 248 249 250 251 253 256 258 259 259 259 260 260 260 260 259 259 259 258 258 258 258 258 258 257 256 255 254 254 253 252 251 251

GFSNGP_sfc_thetae_105.txt.gz
Theta_e
282 284 286 285 285 285 284 286 282 286 283 287 288 288 289 291 292 292 293 293 293 292 291 291 290 289 290 289 288 288 288 287 286 285 285 284 284 284 283 283 283 283 282 282
281 284 284 283 286 286 286 287 286 286 284 288 288 289 290 291 292 293 294 294 294 294 293 292 292 291 290 289 287 287 286 285 284 284 284 283 283 282 282 282 282 282 282 282
275 282 282 279 283 285 286 288 288 283 288 287 286 288 290 291 293 294 295 295 295 294 293 293 292 292 290 289 287 285 285 284 284 283 283 283 282 282 282 281 282 281 281 281
275 279 274 284 287 287 286 287 289 290 287 287 289 290 291 293 294 294 296 296 296 296 295 294 293 292 291 288 286 285 284 284 283 282 282 281 281 281 281 281 281 280 281 281
278 271 279 283 284 285 284 287 289 289 289 288 288 287 289 292 295 296 297 298 298 298 297 295 293 292 289 286 285 284 284 283 283 282 281 281 280 280 280 280 278 278 280 279
267 276 275 285 285 287 289 282 293 291 290 288 288 286 292 293 294 295 296 297 297 297 296 294 291 289 287 285 285 284 284 284 283 282 282 281 280 279 279 278 279 280 280 279
267 271 274 281 283 287 280 284 284 287 290 287 288 293 290 291 290 292 293 293 294 295 294 293 289 287 287 286 285 285 284 282 281 281 281 280 279 278 277 277 278 277 277 276
271 269 276 283 282 284 286 282 283 286 286 286 287 288 288 290 291 290 291 291 293 292 290 289 287 288 287 285 286 283 283 282 280 279 280 279 278 277 277 277 276 275 275 275
282 281 285 284 283 284 285 284 283 284 284 285 286 286 288 289 288 288 289 288 288 290 287 286 287 288 286 286 283 282 281 280 278 278 278 277 277 275 275 275 275 274 274 273
285 283 283 283 283 284 284 284 285 285 284 284 284 287 287 286 286 285 281 281 280 282 282 283 285 287 288 283 283 282 281 278 277 277 276 276 277 276 275 274 274 274 273 272
281 283 283 283 284 285 284 284 284 284 285 285 285 286 286 284 281 280 279 279 280 282 282 281 283 283 282 283 283 282 280 277 277 276 276 275 274 274 274 274 274 272 271 270
280 286 286 286 285 285 284 285 284 284 284 284 284 285 285 282 281 279 278 277 279 278 280 280 280 280 281 282 283 279 277 276 276 275 274 273 273 271 275 276 278 279 279 274
288 291 291 291 288 286 284 283 284 284 283 283 283 283 280 280 278 278 278 278 278 279 278 279 277 277 278 281 280 280 279 276 274 273 273 272 272 271 269 270 275 276 276 276
285 285 283 284 284 285 285 284 281 279 279 279 278 276 276 276 274 275 276 278 277 278 277 278 277 276 277 279 280 279 277 275 274 273 272 271 270 270 269 269 268 266 270 272
283 282 283 283 282 280 278 277 277 276 275 275 273 274 274 275 274 276 274 274 275 276 276 277 277 275 275 279 279 277 275 274 273 272 270 269 267 266 266 266 265 263 260 266
278 275 275 277 276 276 274 273 274 277 275 275 275 274 272 273 272 273 271 271 275 276 276 277 278 274 272 275 275 272 272 270 269 268 266 265 265 265 264 263 262 262 260 260
276 276 273 274 274 274 274 273 274 274 274 273 275 272 267 265 264 264 266 265 265 268 271 275 275 267 268 270 271 269 267 266 266 265 264 264 264 264 264 262 262 260 260 261
274 274 273 272 272 272 271 269 267 267 267 269 268 265 264 264 271 270 267 261 261 263 262 264 265 265 263 262 263 264 264 263 263 263 262 261 261 261 261 261 260 260 259 258
266 266 267 267 266 267 265 264 263 263 264 264 265 267 264 265 265 265 260 261 260 263 269 261 268 263 262 262 263 263 264 263 261 256 259 258 259 258 258 258 256 256 255 256
261 261 262 262 261 260 259 257 258 259 260 260 261 265 267 266 264 260 258 265 267 268 262 263 266 263 264 265 267 264 263 263 262 261 260 259 259 256 255 255 255 255 253 252
256 257 258 258 258 257 256 255 255 256 257 257 258 259 260 262 262 259 260 264 264 259 259 263 265 265 265 265 265 263 263 263 263 261 262 261 260 256 256 255 254 254 253 253
252 252 253 253 254 255 255 253 252 253 255 255 255 255 256 258 259 259 260 264 257 261 260 262 264 264 263 265 263 263 263 263 263 262 261 259 257 256 255 255 255 255 256 256
248 248 250 250 250 250 250 250 250 251 252 253 253 254 255 257 257 259 264 257 255 256 257 257 259 261 262 262 261 261 260 261 258 260 260 259 258 258 258 257 256 257 257 256
247 248 246 246 244 247 248 248 246 247 245 248 249 249 250 254 257 253 254 256 256 257 255 255 261 265 262 259 258 259 258 258 260 259 259 259 258 258 257 257 257 258 257 258
247 245 243 247 247 248 245 246 247 247 246 247 248 248 248 250 252 254 253 253 256 257 254 260 264 265 257 256 257 258 259 260 260 261 260 260 259 258 258 259 258 258 257 257
244 247 245 243 246 246 247 248 248 250 248 250 249 247 249 250 251 253 253 255 254 256 255 257 261 259 259 259 261 261 261 261 261 260 260 260 259 259 258 258 257 257 256 256
245 247 246 248 246 247 247 247 248 250 249 246 248 249 248 250 251 253 254 254 254 255 257 256 258 260 260 260 260 260 260 259 260 259 259 259 258 258 258 258 257 257 256 255

GFSNGP_sfc_thetae_108.txt.gz
Theta_e
281 283 285 285 285 285 284 286 282 286 285 287 289 288 288 289 291 292 292 291 291 291 291 291 290 290 291 291 289 290 290 290 288 287 286 286 285 285 284 284 283 283 283 282
279 282 283 283 285 286 286 287 286 287 285 287 288 288 288 290 291 292 293 293 294 293 293 292 292 292 291 290 288 288 289 288 286 285 285 284 284 284 283 283 283 282 282 282
274 280 281 278 283 284 285 287 288 283 289 287 286 287 289 289 291 292 293 294 294 294 294 294 293 293 291 290 288 287 286 284 284 284 284 284 283 283 282 281 281 281 281 281
278 279 273 283 286 287 286 287 289 290 286 288 289 289 290 291 291 292 293 294 295 296 296 295 294 293 292 289 287 285 285 285 283 283 283 282 282 281 281 281 280 280 280 281
278 276 280 283 283 282 282 285 287 287 288 288 287 286 288 291 292 294 295 296 297 297 297 295 293 292 289 286 286 285 284 284 284 283 282 281 281 281 280 280 279 279 280 279
271 276 274 284 286 287 290 283 290 289 288 287 286 284 292 291 292 293 293 294 295 295 294 293 292 290 288 286 286 285 285 285 284 283 283 282 281 280 279 280 280 280 280 278
271 277 276 281 283 288 281 283 283 286 289 287 287 290 288 289 290 289 290 291 293 293 294 294 290 289 288 287 286 287 286 284 283 282 282 282 281 279 279 279 279 277 277 277
270 268 276 282 283 286 287 283 285 286 286 285 286 287 287 289 289 288 289 289 291 290 289 288 289 289 288 287 288 286 284 283 282 282 282 281 280 278 278 278 276 275 276 276
283 282 285 283 285 285 285 284 284 284 284 285 286 285 284 287 287 287 286 285 286 286 286 286 285 288 287 287 285 283 284 283 282 281 280 280 279 277 277 277 277 275 276 276
284 283 282 283 283 284 283 283 284 285 284 284 284 284 285 286 286 285 281 281 279 280 279 279 280 282 283 283 283 284 283 281 280 279 278 278 278 278 277 276 276 276 276 276
280 283 283 283 283 284 284 284 285 284 284 284 284 284 285 283 281 280 279 278 277 278 278 278 278 278 280 282 283 283 281 279 279 279 278 277 277 277 277 277 278 277 277 276
279 284 284 284 284 284 284 284 283 284 283 283 284 284 283 280 279 278 278 276 277 277 277 277 276 276 278 282 284 282 279 279 279 278 277 276 275 274 278 278 279 279 279 276
288 291 290 288 285 284 284 284 284 283 283 282 282 282 278 279 277 277 276 276 277 279 278 277 277 277 278 283 284 282 281 279 278 278 276 275 274 273 272 274 279 281 280 280
285 286 284 284 287 285 285 283 281 279 278 278 277 275 275 276 275 277 278 277 276 276 276 277 277 278 279 282 282 282 281 280 278 277 276 275 275 274 274 272 271 270 277 277
282 282 282 282 282 280 278 278 277 276 276 278 275 274 276 277 278 279 276 273 272 271 272 273 273 276 276 278 280 280 279 278 279 277 276 275 274 274 273 272 271 269 266 272
277 276 277 278 277 275 274 275 275 275 274 273 273 273 272 272 273 273 272 267 271 273 271 271 274 272 274 277 278 278 278 278 276 275 273 273 272 271 270 269 269 268 267 268
275 276 274 274 275 273 272 271 272 271 271 270 270 269 267 267 268 268 270 266 263 265 266 271 275 268 269 272 276 277 276 274 274 272 272 271 270 270 269 268 268 267 267 266
270 271 270 270 271 271 269 266 265 265 265 265 266 266 267 267 267 269 268 262 263 266 267 267 263 262 262 264 272 272 272 270 270 271 270 269 269 267 266 266 266 265 262 261
263 264 265 264 264 265 263 261 259 260 260 260 261 263 261 260 261 263 261 263 263 263 269 259 266 262 262 264 268 269 269 268 267 266 266 265 262 262 263 264 263 262 260 261
258 259 260 260 260 259 258 257 257 258 255 255 256 258 259 260 259 261 257 259 261 264 262 259 258 259 260 262 269 268 267 267 267 265 264 263 263 263 262 262 261 260 259 259
254 255 256 256 257 256 254 253 253 254 254 254 253 253 254 255 255 255 259 261 260 259 260 259 257 258 259 261 265 267 267 267 266 265 264 264 262 262 261 260 261 261 259 258
251 251 252 252 252 252 250 249 249 250 251 252 253 252 253 256 256 255 255 256 258 257 257 258 258 259 259 265 264 264 265 266 266 265 265 264 264 263 263 261 261 260 259 258
248 248 250 250 249 249 250 249 249 247 249 248 249 250 251 253 254 254 258 255 258 258 259 257 258 261 263 261 261 263 263 264 265 265 265 264 263 263 262 261 260 260 258 258
248 248 247 246 245 247 249 250 249 249 246 249 248 248 248 252 254 251 252 255 256 256 256 257 258 264 264 257 256 258 259 260 260 260 260 261 261 261 260 260 260 260 260 259
247 246 246 245 245 247 244 246 247 248 248 249 249 249 246 248 251 253 254 255 256 256 255 257 262 264 256 254 255 256 257 259 260 260 261 261 260 260 261 261 261 260 260 259
247 246 244 242 244 244 245 245 245 248 245 248 249 248 248 249 250 252 253 254 254 256 255 255 256 253 254 254 256 257 259 259 261 261 261 261 261 261 260 260 260 259 259 259
244 247 246 246 244 244 243 244 244 247 246 244 247 250 248 249 250 252 252 253 253 253 254 256 257 257 256 256 256 257 258 258 259 259 260 260 260 260 259 259 259 259 258 258

GFSNGP_sfc_thetae_111.txt.gz
Theta_e
280 282 284 283 283 283 283 285 282 285 285 287 288 289 290 289 290 292 293 292 293 293 293 293 292 292 292 293 292 292 292 293 292 291 291 289 288 287 287 287 286 286 285 285
279 281 282 281 284 285 286 286 285 287 285 286 289 288 288 290 291 291 292 293 293 293 293 293 293 293 292 292 291 291 291 292 289 288 287 287 286 285 286 285 285 285 284 284
279 280 280 276 282 284 285 287 287 283 288 287 287 287 288 289 289 290 291 293 293 294 295 295 294 294 293 292 289 289 290 287 287 286 286 286 285 285 284 284 284 283 283 283
269 273 274 283 284 287 286 287 288 289 286 288 290 289 289 290 290 291 291 292 294 295 295 295 294 293 292 290 288 287 286 286 285 286 285 284 284 284 283 283 283 282 282 283
275 269 279 283 284 282 282 284 287 286 288 287 286 286 288 289 290 292 292 293 294 295 295 294 293 293 290 287 287 286 286 286 286 286 284 283 283 282 282 282 282 282 282 282
269 274 273 284 285 285 288 282 291 287 287 287 286 283 290 290 291 291 291 291 293 294 294 293 292 291 289 287 287 286 287 286 285 285 285 284 284 282 282 283 282 282 282 282
274 278 276 283 283 287 279 283 283 286 287 286 287 290 289 289 290 289 289 289 290 291 292 292 289 289 288 287 287 288 287 285 284 284 285 284 283 282 282 282 281 281 281 280
268 277 276 282 283 285 288 284 286 286 287 287 287 287 287 288 287 287 287 287 287 287 288 289 287 287 286 286 287 285 285 284 284 284 284 283 283 281 281 281 280 279 278 277
282 281 284 282 284 285 285 286 285 287 287 287 287 286 286 286 285 285 285 285 284 282 284 286 283 286 285 284 284 284 284 284 283 283 283 283 282 280 280 280 279 278 278 277
282 282 282 283 283 284 284 283 284 285 284 285 285 285 285 285 285 284 281 280 279 280 280 279 279 281 282 283 283 283 283 283 282 282 281 281 282 281 280 279 278 278 278 278
278 282 282 282 284 284 284 284 284 285 285 284 284 284 284 282 281 279 279 279 278 278 278 279 277 278 277 280 282 282 282 280 280 281 280 280 280 280 280 281 281 279 280 280
278 284 284 283 284 285 284 283 283 283 283 282 283 283 282 280 279 277 278 276 277 276 275 277 274 274 274 277 281 281 279 279 280 280 280 279 278 277 280 281 283 283 282 281
288 288 286 285 284 284 284 283 282 282 282 281 280 280 277 278 276 276 275 275 275 275 274 273 274 275 275 276 278 279 279 279 280 279 279 278 277 277 275 278 281 282 282 282
289 288 286 287 286 283 283 282 280 278 277 277 277 275 275 275 275 275 275 273 272 272 272 272 273 276 276 276 279 278 277 278 279 280 279 278 278 278 278 275 275 276 282 282
283 282 285 283 282 280 279 279 280 277 276 276 275 273 274 274 273 273 272 272 271 269 270 270 270 274 271 273 275 278 280 279 280 280 279 279 278 277 277 276 277 276 272 280
277 277 278 278 276 275 276 276 275 274 273 272 271 271 270 269 267 267 268 267 270 271 269 268 270 271 269 270 272 273 276 276 278 278 277 277 277 276 276 276 276 274 272 274
275 275 274 273 273 272 271 270 270 270 269 267 267 267 265 265 264 266 267 266 262 264 263 263 268 267 266 268 271 273 273 275 276 278 277 277 276 276 275 276 275 274 273 272
269 269 269 269 270 270 267 264 263 262 261 262 263 262 262 263 261 263 264 263 265 267 267 267 265 263 264 263 266 268 270 272 275 276 276 276 276 276 276 275 274 273 271 269
262 262 263 263 262 263 261 260 259 260 259 258 259 259 256 255 255 256 258 259 263 263 265 263 267 264 261 260 264 266 268 267 270 271 271 270 268 269 270 271 271 271 269 267
257 258 258 259 259 257 257 256 256 256 255 254 253 255 256 257 256 257 257 257 259 260 259 260 260 260 260 260 267 262 264 264 269 267 268 268 268 268 268 268 266 265 264 265
253 254 255 255 256 255 253 253 253 253 252 251 250 249 249 252 253 253 254 256 257 257 258 259 259 260 260 261 262 262 262 263 267 269 268 268 268 267 265 265 264 264 262 264
251 251 252 252 252 252 250 249 249 251 250 250 249 249 251 253 251 253 251 255 256 257 257 258 258 258 260 261 259 260 262 264 265 265 266 267 266 266 265 265 264 264 264 264
250 250 251 250 249 248 248 248 249 247 250 249 249 249 248 251 252 250 254 254 256 255 257 255 257 261 263 258 256 257 258 261 263 264 265 266 266 267 266 265 265 264 263 263
248 249 249 248 248 248 249 248 246 246 245 246 246 246 246 250 252 249 250 254 255 256 256 256 259 265 262 255 254 255 256 257 258 259 260 262 262 263 264 264 263 263 263 262
245 245 244 245 246 248 246 248 248 247 247 248 248 249 246 247 249 251 251 252 254 255 255 257 261 261 254 251 252 252 254 255 256 256 257 260 260 261 261 262 262 262 262 262
243 244 243 243 245 245 246 245 246 247 244 246 247 247 248 248 248 250 251 252 251 253 252 253 254 253 252 252 251 252 254 255 256 256 258 257 257 259 260 261 261 261 261 261
244 246 244 245 243 243 242 243 243 246 245 242 245 248 246 248 248 250 251 251 251 251 251 250 252 254 252 252 252 253 253 253 256 255 255 256 257 257 258 259 260 260 260 260

GFSNGP_sfc_thetae_114.txt.gz
Theta_e
287 288 289 288 287 288 288 290 286 289 289 292 295 296 299 298 297 297 298 298 299 300 300 300 300 300 300 302 301 301 301 302 303 300 300 297 295 293 290 292 290 292 289 290
283 286 288 286 288 289 289 290 290 290 290 296 297 298 298 298 297 297 298 298 299 299 299 299 299 299 298 300 299 298 299 299 297 294 291 291 289 288 288 288 288 288 287 288
283 285 286 283 286 288 289 291 291 287 292 296 295 295 296 297 297 296 297 298 298 300 300 300 300 299 298 298 298 296 296 293 291 291 290 289 287 286 286 286 287 286 287 288
280 282 277 288 293 292 290 291 293 293 294 295 296 298 299 297 297 297 297 297 298 300 301 301 301 299 300 298 295 294 293 290 289 289 288 287 286 286 286 286 285 285 286 287
282 282 286 288 287 288 287 288 293 292 294 295 294 294 296 296 297 298 298 297 298 300 300 301 300 299 297 294 293 293 292 291 289 289 288 287 286 286 286 285 285 285 286 286
279 280 277 287 290 292 293 284 295 294 293 294 292 289 294 295 294 295 296 296 296 297 298 299 299 297 293 292 291 291 292 291 290 289 288 287 287 286 285 286 285 285 285 286
283 283 286 289 289 294 284 287 292 293 295 294 291 295 295 294 293 293 294 293 295 296 296 297 295 293 292 291 290 292 291 290 288 288 288 288 287 286 285 285 285 285 284 285
284 282 280 289 288 288 293 292 292 291 291 292 293 292 292 292 291 291 291 292 291 292 292 293 292 291 291 290 292 289 288 287 287 286 287 287 286 285 285 285 284 284 284 283
287 287 290 290 292 290 290 292 292 293 291 292 291 291 291 289 289 289 288 287 287 287 288 289 287 289 289 290 288 287 286 286 286 286 286 286 285 284 284 284 284 283 282 282
288 288 288 288 288 288 289 289 289 290 290 291 289 289 288 288 287 287 285 284 284 285 285 286 285 285 287 287 286 285 285 285 285 285 285 285 286 285 285 284 284 283 283 283
285 285 286 287 289 288 288 288 287 287 287 288 289 287 287 285 285 284 284 283 283 283 284 284 284 284 285 285 285 285 285 285 285 285 284 285 285 285 285 286 286 284 284 283
287 289 289 287 288 289 288 287 287 286 285 284 287 286 285 283 282 282 282 282 283 282 282 282 282 282 282 281 284 285 284 283 284 285 284 284 284 283 285 285 285 286 286 285
289 290 288 287 288 287 286 285 285 285 285 283 281 282 282 282 280 280 280 280 279 279 280 281 280 281 281 281 281 282 285 284 284 283 283 283 283 283 280 281 284 284 284 285
290 289 286 288 285 286 284 282 281 279 279 279 279 278 279 279 278 278 277 276 277 278 277 277 277 279 279 281 282 281 283 282 284 284 283 283 283 283 282 281 279 280 283 283
282 285 289 284 283 281 282 282 281 279 278 277 276 276 276 277 276 275 274 273 276 275 274 273 274 276 276 276 279 282 283 284 283 284 283 283 283 282 282 281 281 281 281 282
280 280 281 280 278 278 279 278 278 276 275 274 273 272 273 273 272 272 272 270 274 272 270 270 272 271 271 273 276 280 281 279 281 283 282 282 281 281 281 280 281 281 279 281
279 277 276 275 275 273 271 271 272 272 270 269 268 269 269 270 270 269 269 268 269 269 269 268 267 269 268 270 272 278 280 281 280 281 281 281 281 281 281 281 280 281 280 281
269 269 269 272 273 270 267 265 265 265 264 264 265 266 265 264 264 264 264 265 268 268 265 264 264 266 267 267 269 274 277 279 280 279 280 280 280 280 280 280 280 280 281 279
263 263 264 263 265 264 263 262 261 261 260 260 262 262 261 260 260 261 262 264 264 267 264 262 266 265 266 266 270 272 273 275 276 277 277 277 277 278 278 279 279 279 278 274
259 260 261 260 259 259 259 257 258 258 256 256 257 259 260 258 257 258 261 262 260 261 260 261 261 264 263 264 265 270 270 271 271 273 273 273 273 274 274 273 274 274 273 271
255 257 257 257 257 255 254 254 255 255 255 254 256 255 254 256 257 256 264 268 261 259 259 260 261 262 263 263 265 267 268 268 269 270 271 272 272 272 272 272 272 271 270 269
253 253 254 254 254 254 253 252 253 254 255 254 253 253 254 258 257 258 256 259 259 258 259 261 261 261 263 263 265 265 265 266 266 267 268 269 269 270 270 270 270 269 269 269
252 252 253 252 251 252 252 252 251 252 252 253 253 254 255 256 257 258 262 259 258 258 260 261 260 262 264 264 263 263 263 263 263 264 265 266 267 268 268 269 269 269 268 268
251 252 252 251 251 253 254 253 251 252 250 251 252 251 253 256 258 257 258 256 255 256 258 259 261 265 261 262 262 262 262 262 262 262 263 262 263 264 265 266 266 267 267 267
249 249 249 251 252 254 251 252 250 253 252 254 254 254 253 254 254 257 255 256 256 257 258 259 261 261 260 260 260 260 261 261 261 261 261 261 262 262 263 263 263 264 265 264
249 250 250 248 250 251 251 250 251 252 252 253 254 255 255 255 254 254 255 255 256 256 257 258 258 258 259 259 259 260 260 260 261 261 260 261 261 261 262 262 262 263 263 263
248 249 250 251 251 250 250 249 250 252 252 250 251 253 254 254 254 254 254 256 256 256 257 257 257 257 258 258 258 259 259 259 259 259 260 260 260 260 260 261 261 261 262 262

GFSNGP_sfc_thetae_117.txt.gz
Theta_e
290 291 290 288 288 290 290 291 288 291 291 295 299 299 300 301 301 300 299 300 302 303 304 304 303 303 304 305 306 306 305 306 307 307 308 305 300 299 296 298 295 295 291 290
285 289 290 288 290 291 291 292 292 292 291 298 299 300 299 300 300 300 300 301 301 302 303 303 303 302 303 303 303 303 303 303 304 301 298 295 293 292 290 290 290 289 290 289
284 287 287 284 287 289 291 293 293 289 294 297 296 297 298 299 300 299 299 300 301 301 302 303 303 303 302 302 303 301 299 297 295 293 292 291 290 289 288 289 288 288 288 288
282 285 277 289 294 294 291 293 294 294 295 297 298 299 301 301 301 300 300 301 301 301 302 304 305 304 303 303 301 297 296 294 291 291 290 289 288 288 288 288 287 287 288 287
283 282 287 289 290 291 290 290 295 294 295 297 298 297 297 300 301 301 302 300 299 301 301 302 302 303 300 297 296 295 295 293 291 290 288 288 287 287 287 286 286 286 286 287
284 282 278 288 293 295 295 284 296 296 296 296 297 290 294 301 300 298 298 298 298 299 299 300 301 300 295 294 294 294 294 293 292 290 288 288 288 287 287 287 285 285 285 287
285 284 288 291 293 295 284 287 294 296 297 297 294 296 297 296 295 296 295 295 295 297 296 296 295 294 293 293 292 293 291 290 288 288 287 289 288 287 286 285 284 284 285 285
285 283 280 293 291 288 294 294 294 294 295 294 298 295 295 295 294 293 293 293 291 293 292 292 292 292 291 291 292 289 288 287 287 286 287 286 286 286 285 285 285 284 284 284
288 288 292 293 293 295 295 296 294 296 295 295 294 293 294 292 292 291 290 288 288 288 288 288 287 288 288 289 288 286 286 285 285 285 286 286 286 285 284 285 284 284 283 283
288 291 291 292 291 292 292 294 293 294 293 294 293 292 290 289 288 288 286 285 285 286 285 284 285 285 285 286 285 285 285 285 285 285 285 285 286 286 286 284 284 284 284 283
288 287 289 290 292 292 290 291 290 289 290 292 290 289 288 286 286 285 285 284 284 284 284 283 284 284 284 284 285 285 285 284 285 285 285 285 285 286 285 286 287 285 285 285
287 291 293 292 292 291 289 289 289 288 287 287 289 287 286 284 284 284 283 283 283 282 282 282 283 282 282 282 283 284 284 284 285 285 285 284 284 284 287 287 287 288 289 287
292 293 292 291 291 292 290 289 288 287 286 284 284 286 284 282 282 281 281 280 280 280 279 280 280 280 279 281 281 281 283 284 284 282 284 284 283 284 283 283 284 286 287 288
289 289 286 288 286 288 286 284 282 280 280 281 280 280 281 279 279 278 276 277 278 277 275 275 276 275 275 277 279 279 281 282 283 284 284 284 283 283 283 283 281 282 284 285
284 288 288 286 284 282 282 282 280 279 279 277 277 277 278 277 276 275 273 273 276 273 271 272 271 271 271 272 276 279 281 284 284 284 284 283 283 283 282 282 282 282 282 283
279 282 282 281 280 280 281 280 278 277 276 275 274 273 275 275 274 273 271 271 275 270 268 268 268 268 269 270 273 280 281 281 279 283 283 283 283 282 282 281 281 281 282 282
280 278 278 277 276 274 273 273 274 273 272 270 269 270 271 272 271 269 268 269 269 267 266 265 264 266 266 268 270 276 278 280 280 281 282 282 282 282 282 281 281 281 281 283
269 270 271 275 273 271 269 267 267 266 265 265 267 267 266 266 266 265 265 268 267 265 263 262 263 265 265 266 269 273 275 277 279 279 280 280 281 281 281 280 280 280 280 282
264 264 265 265 267 267 265 264 263 262 261 262 264 263 263 262 262 263 264 264 264 267 263 261 265 264 265 265 267 271 273 273 274 275 276 276 276 277 278 278 278 279 279 279
261 262 262 261 260 261 260 260 262 260 259 260 262 262 263 261 259 260 263 261 260 260 260 261 261 264 263 264 264 269 270 270 271 271 272 273 273 273 274 274 274 274 276 276
257 259 259 259 258 257 257 257 258 258 258 257 259 258 258 259 258 258 263 269 260 259 259 261 262 263 263 264 265 267 268 268 268 268 269 270 271 272 272 273 273 272 272 273
256 256 256 256 257 257 255 255 256 256 257 257 256 255 257 261 259 260 257 261 261 259 260 263 263 261 262 263 265 265 265 265 265 266 266 267 268 268 269 269 269 270 270 270
255 255 256 255 254 255 255 255 254 255 255 255 255 255 257 258 259 260 263 259 259 259 259 261 261 262 263 263 264 264 264 263 263 263 263 264 264 265 265 266 266 267 267 267
253 254 254 254 254 255 257 256 254 255 254 254 255 253 254 257 259 260 260 259 258 257 258 259 261 264 261 261 262 262 262 262 262 262 262 261 262 263 263 263 263 264 264 265
252 252 252 253 255 257 254 255 254 257 256 257 257 257 255 257 255 257 256 257 258 257 258 259 262 261 259 260 261 260 261 261 261 260 260 261 261 261 261 262 262 262 262 262
252 253 253 252 252 253 254 254 254 255 255 256 256 257 257 257 257 256 257 257 257 257 258 259 259 258 259 259 259 259 260 260 260 260 260 260 260 260 260 260 260 261 261 261
252 251 253 254 254 254 253 253 252 254 255 254 254 256 256 256 257 256 256 257 258 258 258 258 258 258 258 258 258 259 259 259 259 259 258 259 259 259 259 259 259 259 260 260

GFSNGP_sfc_thetae_123.txt.gz
Theta_e
287 288 289 290 289 290 289 290 286 289 288 291 290 290 290 291 291 291 292 292 293 294 294 295 295 295 296 297 298 299 299 299 299 299 300 300 301 302 301 302 303 302 300 298
280 287 289 288 291 292 292 292 291 288 288 295 295 291 291 291 292 293 293 294 294 294 294 295 296 296 296 296 297 297 297 297 296 296 295 294 293 293 293 294 295 294 293 294
276 283 284 279 288 290 292 293 292 287 293 293 292 293 291 291 292 293 293 294 294 294 294 294 295 296 295 296 296 295 293 291 291 291 291 289 288 289 289 289 288 289 290 291
278 282 274 284 291 294 292 293 295 295 292 292 293 294 293 293 292 293 293 293 293 293 293 294 295 296 296 295 293 291 289 289 289 289 288 288 287 287 287 287 289 289 289 289
279 272 279 283 286 290 289 289 294 294 295 292 292 290 290 294 294 294 293 294 293 293 294 294 294 294 292 289 289 289 289 288 288 287 284 285 283 284 288 287 286 287 286 287
280 277 275 282 288 292 291 283 293 294 294 292 291 287 293 295 293 292 292 293 292 292 292 291 289 290 288 288 287 287 287 287 287 287 282 282 283 281 282 286 286 285 286 286
282 277 281 284 286 293 279 283 289 292 294 294 291 295 291 291 290 290 290 290 290 289 288 287 286 287 286 286 286 286 285 285 283 283 281 281 281 281 280 284 285 285 284 284
278 275 278 287 288 286 288 286 287 288 289 292 291 289 289 289 288 288 287 287 287 285 283 283 284 286 284 284 283 282 280 281 280 280 283 283 277 278 284 285 285 284 284 283
285 284 287 286 288 289 289 288 288 288 288 290 288 288 287 287 286 285 285 284 284 282 282 281 280 282 282 280 281 279 280 281 282 282 283 283 277 279 284 284 284 283 283 283
284 286 286 288 286 288 289 288 288 288 288 289 288 287 285 284 283 283 281 280 278 279 278 277 277 278 277 277 280 283 279 280 276 276 278 280 278 279 279 282 283 283 283 283
280 283 285 286 288 290 288 287 287 286 286 288 287 285 285 283 281 281 280 278 278 278 277 276 275 275 274 276 275 278 275 276 280 279 275 276 277 277 279 278 280 279 281 284
282 286 288 288 288 287 286 286 286 286 285 284 285 284 283 281 280 280 278 277 277 275 275 272 270 270 270 270 271 273 277 276 275 275 274 275 274 276 284 286 288 288 288 285
282 284 286 286 287 286 286 284 284 285 284 283 282 283 282 279 277 277 275 275 274 272 271 269 267 267 265 266 268 274 275 273 273 275 275 273 273 274 274 279 285 286 286 287
277 280 284 284 284 283 283 281 279 277 277 280 278 278 278 276 274 274 272 270 270 268 266 265 265 264 264 265 270 279 282 281 280 281 281 281 279 277 275 270 271 274 280 284
273 276 279 280 279 278 279 279 276 275 275 273 274 275 275 273 272 270 268 268 267 265 263 263 262 262 262 264 277 279 279 279 278 279 280 280 279 271 270 270 270 271 270 278
269 274 274 274 274 274 274 274 273 272 271 270 271 270 270 269 267 266 265 263 265 261 258 259 261 260 260 262 268 276 278 278 279 279 278 279 277 278 268 268 268 267 267 270
270 271 268 268 268 268 267 269 269 269 268 267 267 267 267 266 265 264 262 262 260 258 257 259 257 257 257 261 259 268 268 265 272 274 274 275 268 270 269 270 276 272 271 274
264 265 266 267 267 265 264 263 263 263 263 263 265 266 266 266 266 265 263 262 261 261 259 258 260 258 259 257 257 258 258 258 259 260 260 263 267 271 266 270 272 272 273 268
262 262 262 262 264 263 262 262 261 262 262 265 265 263 263 264 265 265 265 265 265 264 260 259 266 258 258 262 259 257 258 258 259 258 257 259 259 259 263 268 268 270 272 267
260 260 261 260 260 260 261 262 262 261 262 266 266 265 263 262 263 264 264 261 260 260 260 260 260 260 260 260 262 258 258 256 256 255 256 256 257 258 258 261 262 263 263 263
257 258 258 260 258 258 258 259 261 260 260 262 263 262 262 262 262 263 263 263 260 260 260 261 260 260 260 262 261 259 258 257 254 254 253 254 254 256 256 254 256 256 258 258
256 256 257 257 258 257 257 258 259 260 260 260 260 261 262 261 261 260 259 262 259 260 259 259 259 260 261 261 259 257 256 256 254 252 253 251 252 254 256 254 254 256 257 256
255 255 256 256 255 256 258 257 257 258 258 258 258 258 258 259 259 260 261 259 259 259 259 258 259 262 262 259 258 258 258 257 256 257 254 255 254 254 256 256 256 255 256 258
254 255 255 256 257 258 258 257 256 257 257 257 257 257 256 257 259 259 258 258 258 258 258 258 260 263 261 258 258 258 258 257 258 257 257 258 256 256 254 255 255 256 255 255
252 253 254 254 255 255 255 255 255 257 256 256 257 258 257 257 256 257 256 256 258 258 257 258 261 261 257 256 256 257 257 256 256 255 256 255 255 254 254 254 254 253 253 253
251 252 252 252 253 253 253 254 254 254 255 255 255 256 256 256 256 257 257 257 257 257 257 257 257 257 256 256 255 255 256 256 256 256 255 255 253 253 253 254 253 253 253 253
249 252 251 252 254 254 253 253 253 253 253 253 253 254 255 255 255 256 256 256 256 256 256 256 256 256 256 255 255 254 254 254 255 254 253 253 252 252 253 253 253 253 254 253

GFSNGP_sfc_thetae_129.txt.gz
Theta_e
291 292 291 291 293 293 292 293 289 292 288 290 288 288 290 289 288 289 290 290 291 291 292 292 292 293 293 294 294 295 295 296 297 297 297 297 296 297 302 303 303 303 302 299
282 288 291 289 292 293 294 295 294 293 290 293 292 286 287 289 289 289 290 291 292 291 291 292 293 293 294 294 294 296 296 296 295 295 293 292 291 291 292 294 295 295 294 293
284 285 287 284 290 292 293 295 295 291 295 293 291 288 289 289 289 291 292 292 291 292 292 292 293 294 294 294 294 294 293 291 291 290 291 290 290 290 290 289 289 289 290 291
279 285 279 288 294 296 294 295 297 298 296 297 296 297 293 291 292 291 291 291 291 291 291 292 292 293 293 293 292 291 290 289 289 289 289 288 288 288 287 287 287 288 289 290
280 282 282 283 284 292 291 291 298 297 299 296 293 291 293 292 292 293 293 293 293 291 291 292 293 293 291 289 289 288 288 288 288 288 283 284 282 282 285 286 287 287 287 287
282 280 278 288 285 295 293 287 297 299 298 299 290 289 296 298 293 291 291 290 290 290 291 291 291 290 288 288 287 288 287 287 286 285 282 281 282 281 280 285 285 285 286 286
283 280 280 285 287 297 285 288 297 298 300 299 293 298 301 294 291 290 289 290 289 290 290 289 287 287 287 286 286 285 285 283 282 283 282 281 280 280 285 285 285 285 285 285
280 276 279 286 291 289 292 289 287 294 298 298 298 296 293 292 289 289 288 288 287 287 286 285 286 286 285 285 284 282 282 283 284 284 284 284 282 285 285 285 285 285 285 284
285 287 286 292 290 289 290 291 287 289 293 299 298 296 290 289 288 287 287 285 284 284 282 282 280 283 283 282 283 283 284 283 284 284 284 284 286 285 284 285 284 283 283 281
285 285 284 288 286 288 287 287 287 287 288 292 291 290 288 287 285 285 283 282 278 280 280 279 275 280 283 282 282 283 282 280 281 282 282 281 278 283 283 282 278 281 280 281
281 283 285 285 286 287 288 287 286 286 286 291 289 287 287 284 282 282 281 279 280 280 281 278 278 278 280 282 282 282 282 281 280 276 275 276 276 275 276 275 277 274 273 274
280 277 276 283 283 283 288 288 286 285 285 285 287 286 284 283 282 281 279 277 277 279 278 275 275 274 273 270 274 279 278 277 275 276 274 275 277 276 286 286 287 287 286 281
273 274 275 279 282 280 282 285 284 284 284 283 283 283 283 280 278 277 276 275 275 274 272 270 271 272 273 269 279 280 279 277 277 278 280 279 275 275 276 275 284 285 285 285
271 273 278 277 276 277 279 280 278 277 276 278 277 277 278 276 276 275 273 270 270 269 267 267 270 270 271 276 275 277 280 281 281 280 275 275 276 276 276 276 273 269 277 281
267 270 272 274 274 272 274 276 275 274 274 273 273 274 276 275 273 270 268 268 267 265 264 264 269 267 268 274 280 280 280 280 279 275 280 275 269 272 274 274 273 271 265 273
263 270 268 268 269 268 268 268 271 270 270 269 269 269 269 269 267 266 265 266 268 263 260 261 264 263 265 273 279 278 279 280 276 269 268 268 267 266 271 271 264 263 264 264
261 262 262 263 265 266 264 264 265 266 266 266 266 266 265 264 263 261 259 260 260 258 258 259 258 260 263 266 271 269 266 264 268 266 264 265 261 264 262 262 262 260 263 264
261 262 262 262 263 264 263 263 263 263 264 264 265 265 263 262 259 257 256 257 258 258 259 258 256 259 261 262 262 261 261 261 268 265 264 263 260 261 261 262 263 262 261 262
259 259 260 260 260 261 261 262 262 263 264 263 263 262 262 260 259 257 256 259 259 259 257 258 267 261 263 266 263 265 263 267 266 265 264 264 262 259 260 258 260 259 257 259
258 259 259 260 260 259 259 260 262 262 263 267 267 265 264 264 263 263 261 259 258 259 260 262 262 261 262 263 266 265 265 265 265 264 264 264 264 264 262 259 259 259 258 256
256 257 257 258 259 259 259 259 260 260 261 262 263 263 263 264 265 265 264 264 261 262 262 263 262 263 263 263 264 263 263 263 264 263 263 263 262 261 261 257 255 256 257 256
255 256 256 257 257 258 259 259 259 260 260 260 261 262 263 262 263 261 260 262 261 262 261 262 262 262 263 263 262 262 262 262 262 261 261 260 260 260 260 259 258 258 257 254
254 255 255 256 256 257 259 258 258 258 258 258 258 259 259 260 261 262 263 260 260 261 261 261 261 263 264 262 261 261 261 261 261 261 261 260 260 260 259 259 258 257 256 256
252 253 253 255 256 258 256 257 257 258 258 259 259 259 258 259 261 260 260 260 260 260 260 260 261 264 264 261 260 260 260 260 260 260 260 260 259 259 258 258 258 258 257 256
251 251 252 253 253 254 254 255 256 257 257 258 258 259 259 259 258 259 259 259 260 260 259 260 262 263 262 261 260 259 259 260 260 259 259 259 259 258 258 257 257 256 256 256
249 251 251 251 252 253 253 253 253 254 255 255 255 256 257 257 257 257 258 258 258 258 258 259 259 259 259 259 259 259 259 259 259 259 259 259 258 258 257 257 256 256 256 256
250 251 250 251 251 251 251 251 252 253 252 252 253 254 254 254 255 256 256 256 256 257 257 257 258 258 258 258 258 258 258 258 258 258 257 257 257 257 257 256 256 255 255 254

GFSNGP_sfc_thetae_132.txt.gz
Theta_e
288 290 292 292 292 292 291 291 287 290 290 294 293 293 289 289 288 289 290 290 290 291 290 290 290 291 291 292 293 294 296 296 298 297 297 296 296 298 302 304 304 303 303 301
286 290 291 289 292 293 293 293 292 292 291 298 298 298 287 289 289 289 290 290 291 291 291 291 291 291 292 292 293 293 294 294 294 294 293 293 291 291 295 295 296 295 294 294
283 288 288 285 290 292 293 295 294 290 295 298 292 291 294 291 289 290 291 292 291 291 291 291 292 292 292 292 293 293 292 291 291 290 291 290 289 289 289 289 289 290 290 292
284 286 278 288 295 295 294 295 297 297 297 299 299 298 295 292 291 291 292 291 291 291 290 291 291 292 292 292 292 291 290 289 289 289 289 288 288 288 287 287 287 287 289 290
282 282 284 285 285 292 291 291 298 297 299 300 294 293 294 293 291 294 294 293 294 294 291 291 291 292 291 290 289 289 289 288 288 288 285 285 284 285 285 285 288 287 287 286
283 281 279 289 288 294 295 286 297 299 298 299 297 292 297 302 296 294 292 291 292 290 290 291 291 291 289 288 288 288 288 287 287 286 284 283 284 284 284 286 286 286 286 286
283 283 284 286 290 297 286 289 298 298 299 299 297 300 304 302 299 292 291 290 289 289 290 291 289 288 288 287 288 287 285 284 283 282 283 283 284 283 285 285 285 285 285 285
285 283 280 287 294 291 296 293 291 297 300 299 301 302 302 297 296 290 290 288 288 288 288 287 287 288 287 286 284 282 284 284 284 284 284 284 286 285 286 286 285 285 284 283
286 286 285 295 292 289 289 292 288 291 293 300 299 300 300 296 293 290 289 287 286 288 285 284 283 284 286 284 284 284 285 285 285 285 285 285 286 285 285 285 284 283 283 282
287 288 285 289 287 287 288 288 288 286 287 291 294 295 296 288 287 286 284 284 283 284 283 281 277 281 282 284 284 285 284 283 283 284 284 285 285 285 286 284 283 283 283 282
281 282 283 283 281 280 282 286 288 288 286 287 288 288 288 286 283 283 282 279 281 284 283 281 280 281 282 283 284 283 282 281 282 282 282 280 279 279 278 274 278 275 271 278
277 273 274 279 278 278 278 282 284 285 285 285 286 287 285 282 281 281 280 278 279 280 279 278 278 278 279 281 283 282 280 280 279 278 278 279 281 281 286 285 287 286 284 279
269 270 271 275 279 276 275 279 280 280 280 283 282 281 281 280 278 277 276 277 279 278 276 276 275 274 275 276 279 281 279 277 275 276 277 277 277 280 279 283 285 285 285 285
267 268 275 274 272 273 274 275 278 276 276 275 275 275 275 276 275 275 274 272 273 273 272 273 274 272 274 278 281 280 279 278 280 280 277 275 274 276 275 275 274 270 276 279
262 264 269 270 271 270 271 271 273 271 272 272 271 272 273 273 272 270 269 269 269 269 269 272 271 269 271 278 280 281 281 281 279 279 278 277 276 275 275 274 273 271 263 271
260 266 263 264 266 267 266 266 267 267 268 269 269 268 268 268 267 266 266 267 270 265 265 268 266 264 267 275 280 280 280 280 279 277 274 269 272 273 272 270 268 264 261 264
257 258 259 259 261 263 263 264 265 265 266 266 267 267 266 265 264 262 261 261 260 259 260 263 262 264 267 271 274 274 274 273 271 269 266 264 264 265 267 265 265 263 264 265
259 260 260 260 259 261 261 262 263 264 264 265 266 266 265 264 261 260 259 260 260 259 259 258 261 265 265 266 268 269 270 268 265 263 263 263 263 265 266 265 265 266 262 263
258 258 259 260 259 259 260 260 262 263 265 265 264 262 262 260 258 257 258 260 259 259 257 258 267 261 262 265 264 265 266 265 264 264 265 266 265 265 265 265 264 262 261 261
257 258 258 259 260 259 258 259 261 262 262 265 266 265 264 263 263 261 260 257 258 258 258 260 260 260 260 263 266 265 266 266 265 264 264 266 266 265 264 264 264 263 260 259
256 256 257 257 258 259 259 259 259 260 261 262 262 263 263 264 264 265 266 262 261 262 263 263 263 263 264 264 265 265 265 265 265 265 265 264 264 264 263 262 262 261 261 259
255 255 255 256 257 258 259 259 259 259 259 260 260 261 262 261 263 262 260 261 261 262 262 262 262 263 264 264 263 264 264 263 263 263 263 262 262 262 262 261 261 261 260 259
253 253 253 254 255 256 259 258 258 258 258 258 258 258 259 260 260 261 262 260 261 262 261 261 263 264 264 263 262 262 262 262 262 262 262 262 262 262 261 261 261 260 260 259
251 250 251 253 254 255 255 256 256 258 258 259 259 259 258 258 260 260 260 260 260 261 261 261 262 265 265 263 262 261 261 261 261 261 261 262 261 261 260 260 260 260 259 259
250 249 250 251 251 253 253 253 254 255 256 256 257 258 258 259 258 258 259 259 260 260 259 261 263 264 262 262 261 260 260 260 261 261 261 260 260 260 260 259 259 259 258 258
248 249 249 249 250 251 251 252 252 253 253 254 255 255 256 256 256 257 257 258 258 258 258 259 259 260 260 260 260 260 260 260 260 260 260 260 260 259 259 259 259 258 258 258
249 251 248 250 249 249 249 250 250 251 252 250 252 253 253 254 254 255 255 255 256 256 257 257 257 258 258 258 258 258 259 259 259 259 259 259 259 259 259 259 258 258 257 256

GFSNGP_sfc_thetae_135.txt.gz
Theta_e
286 287 288 290 291 292 290 291 287 289 289 293 295 295 296 294 291 291 291 291 291 292 292 292 292 292 293 297 301 303 306 308 309 305 306 306 307 307 307 307 308 308 305 302
282 287 288 285 288 291 293 292 292 292 291 298 298 295 294 298 294 291 291 291 292 291 291 291 291 292 292 292 293 296 300 301 300 298 297 298 296 296 298 297 298 298 297 298
280 284 286 282 287 288 288 293 293 289 294 298 294 294 296 296 296 296 294 293 292 292 292 292 292 292 292 292 292 293 293 292 291 292 291 291 291 291 293 295 295 294 295 295
280 281 275 286 292 293 290 291 295 296 297 298 298 300 298 297 300 301 295 294 292 292 292 292 292 292 292 292 292 291 291 290 290 290 290 289 289 289 289 289 290 290 291 293
278 277 283 283 288 288 289 289 295 295 297 299 300 293 294 298 297 299 299 296 296 295 293 291 291 291 291 290 290 290 290 290 289 289 288 288 287 287 287 288 289 290 290 289
281 271 272 283 289 293 294 285 296 297 297 298 299 291 297 303 301 301 298 294 292 292 291 291 290 291 290 290 289 290 290 289 289 288 288 288 287 286 286 288 288 288 287 288
280 278 279 287 289 294 284 287 297 298 299 299 296 299 303 304 302 301 300 296 291 291 292 292 290 290 290 290 290 290 288 287 285 285 285 286 286 286 288 287 287 286 286 286
281 278 276 288 288 289 293 298 291 298 300 299 301 302 303 303 301 297 294 289 290 290 290 288 290 291 290 289 288 285 285 285 285 285 285 286 286 287 287 287 286 286 285 284
284 283 288 289 290 284 283 286 288 290 293 299 300 300 301 301 300 297 294 291 288 290 288 288 289 291 290 288 285 285 285 285 285 285 285 286 287 287 287 287 287 286 285 283
286 289 280 285 283 279 279 280 284 286 287 291 296 297 294 293 292 292 288 286 283 284 285 285 283 282 286 285 285 286 285 285 285 285 285 286 287 287 287 287 287 286 285 284
282 278 277 279 276 276 276 278 280 282 284 287 287 287 287 287 286 286 284 279 282 285 283 282 281 282 284 285 286 285 285 284 285 285 286 285 284 286 285 283 286 286 285 283
271 269 267 271 274 274 273 274 276 279 280 282 283 282 285 282 280 279 277 276 278 279 280 280 281 281 283 285 286 284 283 283 283 283 282 282 282 282 285 285 286 285 283 281
264 267 267 268 272 273 272 272 275 278 277 277 277 277 278 279 276 276 276 277 279 278 278 278 277 276 278 281 284 284 283 281 281 281 281 282 283 283 282 285 287 286 286 286
266 264 268 268 266 270 270 271 273 274 274 274 273 274 274 275 272 271 271 274 276 275 275 276 275 274 277 280 281 280 280 280 280 280 280 281 282 282 282 279 277 276 282 284
261 262 265 265 265 266 267 268 269 269 269 270 271 270 271 271 269 268 269 271 272 273 273 273 272 270 274 280 280 280 280 281 281 278 278 278 278 278 277 276 275 273 269 274
259 261 262 261 261 262 263 264 264 265 267 268 268 267 267 267 266 265 265 266 269 267 268 269 267 267 270 280 281 281 280 280 280 277 276 276 276 276 275 274 272 268 268 268
256 257 257 258 259 259 260 261 262 264 265 265 266 268 268 267 264 262 262 262 262 262 263 264 265 267 270 275 278 278 277 277 276 275 274 273 273 272 270 269 268 268 268 268
258 258 259 259 258 258 259 260 261 263 263 265 264 264 263 262 261 261 262 263 263 262 261 263 266 266 268 271 273 274 273 272 272 270 268 268 267 268 269 269 268 267 266 271
258 257 258 258 259 259 259 259 260 262 263 265 264 263 263 262 262 262 263 262 261 261 260 262 267 265 266 270 268 270 269 268 267 267 267 266 266 267 267 267 266 265 264 264
257 257 258 258 259 259 258 259 260 261 261 263 264 264 263 264 263 262 262 260 260 261 263 264 264 264 264 266 268 267 267 267 266 266 267 267 267 266 266 266 266 265 265 264
255 256 256 256 257 259 259 259 259 259 260 261 261 261 262 263 262 262 264 261 260 262 263 264 264 264 265 265 266 266 266 267 267 267 266 266 266 265 265 265 264 264 263 262
255 254 255 255 256 257 259 258 258 259 259 259 260 260 261 261 261 261 260 260 261 263 262 262 262 264 264 264 264 264 265 265 265 265 265 265 265 265 264 264 264 263 263 262
254 254 254 254 254 255 257 256 256 257 258 258 258 258 258 260 259 259 259 260 260 262 261 261 264 266 266 263 263 263 263 263 263 264 264 264 264 264 264 263 263 263 262 262
252 253 253 253 254 255 253 254 254 256 256 257 257 258 258 257 259 259 259 260 260 261 261 262 263 266 265 263 262 262 262 262 262 262 262 263 262 262 262 262 262 262 262 262
251 251 251 251 252 252 252 253 253 254 254 254 255 256 256 257 256 257 258 258 259 259 259 261 263 263 261 261 261 261 261 261 261 261 261 261 261 261 261 261 261 261 261 261
248 250 250 249 249 249 250 250 250 252 252 252 253 253 254 254 255 255 256 257 257 257 257 258 258 259 259 260 260 260 260 260 261 261 261 261 261 261 261 261 261 261 261 261
247 250 248 249 247 246 244 245 245 248 248 247 249 250 250 253 253 254 254 254 254 255 255 256 256 257 257 257 257 258 258 259 259 259 260 260 260 260 260 260 260 260 260 260

GFSNGP_sfc_thetae_138.txt.gz
Theta_e
288 288 288 288 287 288 290 291 287 292 293 297 300 302 303 304 303 298 298 299 300 300 301 300 299 299 300 305 311 316 316 316 317 319 320 320 320 320 320 319 319 319 318 317
282 286 286 285 287 289 290 288 291 294 293 301 303 304 303 303 303 302 303 303 300 300 299 299 299 299 299 300 304 311 314 313 315 313 313 312 312 310 309 308 310 308 304 302
280 285 285 281 286 288 290 292 290 286 295 301 300 302 303 303 303 302 303 304 304 304 301 300 300 299 298 299 301 304 309 308 302 302 301 302 300 298 297 298 297 297 299 299
280 282 274 286 292 293 291 293 294 294 296 298 300 303 305 306 305 304 304 304 304 304 305 301 300 299 300 299 298 299 302 302 300 300 300 296 295 294 295 297 299 299 299 300
277 278 281 283 286 289 290 290 296 295 296 297 299 301 301 305 307 306 307 307 307 308 307 301 299 300 298 297 297 296 296 296 296 296 294 294 293 294 294 294 293 294 293 292
280 275 273 283 289 293 293 284 296 297 298 298 299 293 297 304 306 307 307 306 307 304 300 298 299 297 296 295 295 295 295 295 295 294 292 292 293 292 290 292 290 291 289 291
279 277 281 288 292 296 283 284 295 297 299 299 297 300 303 305 306 307 307 307 307 304 300 300 296 295 295 295 294 297 294 293 292 292 291 293 291 289 289 290 289 288 288 288
281 278 275 292 291 286 283 285 288 286 293 292 296 302 304 305 305 306 306 306 304 302 299 301 295 294 294 294 296 292 292 291 290 289 289 289 288 288 289 289 288 287 286 286
285 284 292 288 283 279 279 279 280 280 284 284 287 291 294 301 304 305 306 304 299 298 298 295 293 294 293 294 291 290 289 288 287 287 287 287 288 288 289 288 289 287 287 286
285 288 288 280 281 278 275 276 277 278 279 281 283 286 288 290 292 294 296 295 291 291 291 290 290 290 293 289 289 288 287 287 286 286 286 287 288 289 289 289 289 287 287 286
277 283 275 281 276 273 274 275 275 275 276 278 281 282 283 284 286 287 288 288 286 289 290 289 288 288 287 287 288 287 287 287 286 287 287 287 288 289 289 289 290 288 287 287
276 268 267 269 272 271 272 272 273 273 273 277 278 278 278 280 283 282 282 283 284 283 284 284 284 285 285 286 287 287 286 286 286 286 287 287 286 285 287 287 288 288 288 287
264 266 266 267 270 272 268 270 270 271 273 273 274 275 275 277 278 277 277 278 279 279 281 282 281 282 285 286 286 286 286 285 285 285 285 285 285 284 282 285 286 286 285 285
264 264 265 268 265 267 268 268 269 269 271 270 271 272 272 274 273 272 272 273 276 277 277 278 277 277 280 285 285 285 285 284 284 284 285 285 285 284 284 283 282 283 286 286
262 262 262 264 265 264 265 265 265 266 267 268 269 270 269 269 268 267 267 271 273 272 272 273 272 271 274 281 282 282 282 283 283 284 285 285 285 284 283 282 281 279 278 284
259 260 261 260 260 261 262 262 262 263 265 266 266 266 268 267 266 265 265 266 266 264 265 267 268 269 272 281 282 282 282 282 281 281 280 281 281 281 280 279 278 277 278 278
256 257 257 257 258 259 259 261 261 261 263 265 264 265 265 265 265 265 265 265 264 263 264 266 266 268 270 274 279 280 280 279 279 279 280 279 279 278 278 277 276 276 276 273
259 259 259 258 258 258 259 260 260 261 262 263 266 265 264 263 263 263 264 266 266 264 264 265 268 267 269 271 273 275 276 276 276 275 274 275 276 276 275 275 274 273 272 275
258 258 258 258 258 259 259 259 259 261 262 262 264 264 264 264 264 263 263 262 262 262 263 266 269 267 267 270 270 272 272 271 271 270 271 271 272 274 274 273 273 272 272 269
257 258 258 258 258 258 259 259 259 260 261 261 262 262 262 263 262 265 263 260 261 262 264 264 265 265 266 268 270 270 270 270 270 271 271 271 271 271 271 271 270 270 270 269
257 256 256 256 256 258 259 259 258 258 260 260 260 260 261 262 261 261 261 260 261 263 263 264 265 265 265 266 267 268 269 269 269 269 269 269 269 269 269 269 269 268 268 267
256 256 256 256 256 257 258 258 258 258 259 259 259 259 260 260 261 261 260 259 261 263 263 263 265 266 266 265 265 266 266 266 267 267 267 268 268 268 268 267 267 267 267 267
256 255 255 255 255 255 257 257 256 257 257 257 257 257 258 259 260 258 258 260 261 262 262 262 264 266 265 265 264 264 264 264 264 265 265 266 266 266 266 266 266 266 266 265
254 254 254 255 255 256 254 255 255 256 256 257 257 257 257 256 258 260 259 259 259 260 260 261 262 265 263 263 263 263 263 263 263 263 264 264 264 264 264 264 264 265 264 264
251 251 252 253 254 254 253 254 254 255 254 255 256 256 256 257 256 257 257 258 258 258 259 260 261 261 260 261 261 261 262 262 262 262 263 263 263 263 264 264 264 264 264 264
250 251 252 250 252 252 252 252 252 253 252 252 254 255 255 255 255 256 256 256 256 256 257 258 258 258 258 259 259 259 260 260 261 261 262 262 262 262 262 262 263 263 263 263
250 250 251 253 252 251 250 250 250 251 251 251 250 254 253 253 253 254 254 254 255 255 255 256 256 256 256 257 257 258 258 258 259 259 260 260 260 261 261 262 262 262 262 262